GFSNW_850_dewp_000.txt.gz
Dewpoint
-3 -2 -2 -1 -1 0 1 2 3 2 2 3 3 3 -0 -0 4 4 4 2 3 3 3 4 2 2 1 0 1 3 3 5 4 3 1 1 1 2 2 3 1 2 1 0
-3 -2 -2 -1 -1 0 1 2 4 4 3 4 4 2 2 2 5 5 5 4 3 3 4 4 3 2 -0 1 2 3 3 5 5 4 4 3 5 3 1 1 2 2 2 -1
-3 -3 -2 -1 -0 -1 3 2 4 3 4 3 2 2 2 3 2 3 4 4 3 4 5 3 3 3 1 1 1 2 2 5 5 4 5 5 6 4 3 2 4 2 2 -0
-3 -3 -2 -1 0 1 3 3 3 2 3 4 1 1 2 3 4 3 3 5 4 5 7 5 4 2 1 1 1 3 4 5 5 5 3 5 6 5 4 4 2 2 -0 -1
-3 -3 -2 -1 0 1 3 4 3 1 2 2 1 1 3 3 3 4 5 4 4 5 6 4 2 3 3 4 2 3 4 5 5 5 5 5 6 5 6 5 3 1 0 1
-3 -3 -3 -1 0 1 1 1 3 1 2 3 2 2 3 2 3 3 3 4 5 5 4 4 3 2 2 3 4 5 5 5 6 6 6 6 6 5 4 4 4 1 3 1
-3 -3 -2 -1 -0 1 1 1 2 4 4 3 2 2 1 4 4 4 4 4 5 4 4 4 4 3 3 3 4 4 5 4 5 6 7 9 6 4 3 3 4 2 0 3
-3 -3 -3 -1 -0 1 1 2 2 5 4 2 2 3 3 2 3 4 4 4 4 4 5 6 6 5 5 4 4 5 4 5 7 7 8 6 6 6 4 4 5 2 3 2
-3 -3 -4 -3 -2 0 1 3 3 4 4 3 2 3 4 5 5 5 5 4 5 5 6 6 6 5 4 4 5 2 4 4 6 6 8 5 1 6 5 4 8 3 3 3
-3 -3 -3 -3 -2 -1 1 2 3 4 4 3 2 3 4 4 4 4 4 4 4 4 6 7 7 6 3 5 6 6 6 5 6 6 6 4 1 1 4 8 5 0 3 3
-4 -6 -4 -3 -2 -1 0 1 2 4 4 5 4 4 4 4 3 4 5 5 5 5 7 7 7 7 4 4 3 5 5 5 5 5 6 4 1 1 4 1 -0 -0 2 3
-4 -5 -4 -4 -2 -2 -0 1 3 4 4 4 4 4 4 4 4 3 4 4 5 5 7 5 6 6 4 4 5 3 6 4 4 4 3 0 1 0 1 -0 0 -0 -0 1
-5 -4 -3 -12 -5 -3 -1 -0 1 3 3 3 4 4 3 4 3 4 4 5 4 5 6 5 4 6 4 5 4 4 3 2 4 4 2 2 0 1 0 0 0 0 -0 -0
-4 -4 -11 -16 -8 -4 -2 -2 1 2 4 4 3 4 4 3 4 4 4 4 5 5 5 6 5 5 2 4 3 4 3 3 3 3 1 0 0 1 0 0 0 0 -0 -0
-12 -12 -8 -9 -6 -4 -4 -4 2 3 4 5 5 5 4 5 4 4 5 5 5 5 6 6 7 3 3 2 2 3 2 4 4 5 2 1 0 1 0 0 0 0 -0 0
-4 -4 -4 -5 -9 -5 -4 2 1 3 3 5 5 5 5 4 4 5 5 5 5 5 6 6 6 5 4 4 4 2 1 2 2 2 1 -0 0 0 -0 -0 -0 -0 0 0
-4 -4 -4 -5 -11 -8 -3 0 2 3 4 5 4 3 5 5 5 5 5 5 5 5 4 6 6 6 5 6 6 3 2 2 0 1 0 0 1 0 -0 -0 -0 -0 -0 -1
-5 -4 -6 -8 -9 -8 -7 -4 -1 2 4 4 4 4 4 5 5 5 5 5 5 6 6 6 5 4 4 6 3 3 2 2 0 0 0 0 0 0 -0 -0 -1 -2 -4 -7
-6 -6 -2 -1 -0 -1 -0 1 3 3 4 4 4 4 4 5 5 5 6 6 6 5 6 5 5 5 5 4 3 2 2 1 1 0 -0 -0 0 -0 -0 -1 -3 -5 -7 -8
-6 -3 -3 -0 -0 -0 1 3 3 4 5 5 4 3 4 4 5 4 5 4 5 5 5 4 5 5 3 3 2 2 2 1 0 -0 -1 -0 -0 -0 -1 -2 -4 -7 -8 -7
-5 -5 -3 -4 -1 0 2 3 4 4 3 4 4 3 3 4 4 5 4 3 2 5 2 5 5 5 3 3 2 2 2 1 0 -0 -0 -1 -1 -0 -1 -3 -5 -7 -7 -7
-4 -3 -3 -2 -1 -0 1 2 2 3 3 3 4 3 3 4 3 3 2 3 2 4 0 4 5 2 1 1 2 3 2 1 -0 -0 -1 -1 -1 -1 -2 -4 -6 -6 -8 -11
-4 -3 -3 -3 -2 1 2 3 3 3 2 3 3 2 2 2 2 1 1 3 3 -1 2 3 2 -0 -0 0 1 3 1 0 -0 -1 -1 -1 -1 -1 -3 -5 -6 -9 -11 -13
-4 -3 -4 -2 -0 1 1 1 1 0 1 3 2 1 -0 1 -0 0 3 2 1 2 3 1 -2 -2 -3 -0 1 2 1 -0 -1 -1 -1 -1 -1 -2 -4 -6 -9 -11 -13 -14
-3 -3 -4 -2 -0 -0 -0 0 -0 1 1 2 1 1 0 0 -1 -1 1 2 2 1 1 -2 -3 -3 -1 0 1 1 0 -1 -1 -1 -2 -2 -2 -4 -7 -9 -10 -13 -15 -13
-3 -3 -4 -2 -2 -3 -1 -0 -0 0 2 2 1 1 -0 2 -1 -0 1 0 1 0 -3 -2 -3 -2 -0 0 1 0 -0 -1 -1 -2 -2 -3 -4 -7 -9 -10 -12 -14 -14 -12
-4 -2 -2 -2 -3 -2 -1 -1 -0 1 2 2 1 2 1 -3 -2 -1 -3 -0 -0 -2 -3 -3 -3 -2 -0 0 0 -1 -1 -2 -2 -3 -3 -4 -7 -8 -10 -13 -11 -12 -11 -11

GFSNW_850_dewp_003.txt.gz
Dewpoint
-4 -4 -2 -2 -1 0 2 0 3 1 3 2 1 4 0 1 3 3 4 2 2 3 2 4 3 2 0 0 2 4 2 4 5 3 1 1 1 2 2 4 3 4 2 1
-4 -3 -2 -1 -0 0 1 2 3 1 2 4 4 3 2 2 5 4 4 4 3 3 3 4 3 2 -0 1 1 3 3 5 4 2 3 2 5 3 2 1 2 3 3 0
-3 -3 -3 -1 -0 1 2 2 4 3 3 3 2 2 3 3 3 4 4 4 3 4 4 2 3 3 1 0 1 2 2 5 3 3 4 5 5 3 3 4 5 2 2 0
-2 -3 -2 -3 0 1 2 3 3 2 3 4 2 2 2 3 4 3 3 4 4 4 6 5 5 3 2 1 1 3 3 5 5 5 3 4 5 5 4 5 3 3 -0 -0
-2 -3 -3 -3 -0 1 2 2 3 2 3 2 1 2 2 2 3 4 5 4 3 4 5 3 3 3 2 3 2 4 4 6 5 5 5 5 5 5 4 4 3 2 1 1
-2 -3 -3 -2 -1 1 1 1 3 3 2 2 1 1 2 3 2 3 3 3 4 5 4 3 3 3 2 3 3 4 5 5 5 5 5 6 6 5 5 4 3 2 3 1
-2 -4 -4 -2 -2 0 1 1 2 3 4 2 1 1 1 3 3 4 4 3 5 4 4 4 5 5 4 4 3 3 5 4 5 6 6 8 7 4 3 3 1 2 1 -0
-4 -3 -6 -4 -3 -1 1 2 2 3 4 2 1 2 1 1 2 4 4 3 4 4 5 5 6 6 5 4 4 4 4 5 6 7 8 7 3 4 4 4 4 1 3 2
-5 -3 -3 -5 -3 -2 1 2 2 2 4 3 1 2 3 4 5 5 4 4 4 5 5 6 7 4 3 4 4 3 4 4 6 7 8 8 0 4 2 3 5 1 1 2
-4 -4 -3 -6 -7 -4 -0 1 1 2 4 3 2 2 4 4 4 4 4 4 4 5 6 7 7 6 2 5 5 6 6 6 6 6 7 5 1 2 4 6 4 -0 2 1
-4 -3 -3 -3 -14 -5 -2 -0 1 1 3 5 3 2 3 4 4 5 4 5 5 5 6 7 7 5 4 4 2 4 4 5 5 5 6 4 1 3 5 1 -0 -0 2 3
-5 -4 -3 -4 -12 -10 -4 -1 1 2 2 4 4 4 3 3 4 3 4 4 4 4 6 6 6 7 4 3 5 3 6 3 4 4 3 -1 1 1 0 1 0 0 0 3
-7 -8 -4 -5 -8 -4 -3 -3 -2 2 3 3 3 3 4 4 4 4 4 5 4 4 5 6 5 6 3 5 4 4 3 2 5 4 1 1 1 1 1 0 0 -0 -0 2
-4 -4 -4 -4 -4 -6 -5 -4 -6 -1 1 4 3 3 3 3 4 4 4 4 4 5 5 5 6 5 2 3 3 4 3 3 3 3 2 1 1 0 0 0 -0 -1 -0 0
-5 -4 -5 -4 -4 -8 -6 -11 -7 -0 -0 3 4 4 4 4 4 4 4 5 5 5 5 5 6 4 3 2 2 3 2 3 4 5 2 1 1 1 0 0 -0 -1 -0 0
-4 -5 -3 -3 -3 -4 -4 0 1 1 0 3 5 5 5 5 5 4 5 5 5 4 5 5 5 5 3 4 4 3 2 2 2 2 1 0 0 0 0 -0 -0 -0 0 1
-8 -4 -4 -4 -3 -4 -4 -1 0 0 2 3 3 2 4 5 5 5 4 5 5 5 5 5 6 6 6 6 6 3 3 3 2 2 1 0 1 0 -0 -0 -0 0 0 -0
-16 -12 -7 -5 -5 -6 -10 -9 -2 1 2 3 3 3 3 5 5 5 5 5 5 5 5 6 6 5 5 6 4 3 3 2 2 1 1 0 1 0 -0 -0 -0 -0 -1 -2
-16 -7 -3 -2 -1 -1 -1 -2 0 2 2 4 3 3 2 5 5 5 5 5 6 5 5 5 5 5 6 5 3 3 3 2 2 1 0 0 1 -0 -0 -1 -1 -2 -5 -9
-7 -6 -3 -1 -3 -2 -1 0 2 3 3 4 4 2 3 4 4 5 5 4 5 5 5 4 4 6 4 3 4 3 1 2 1 0 -0 0 0 -0 -1 -1 -3 -6 -10 -9
-5 -5 -3 -3 -2 0 1 1 3 3 3 3 4 3 3 4 4 5 3 3 2 5 3 5 5 4 2 2 3 3 2 1 1 1 0 -0 -0 -0 -1 -3 -5 -8 -8 -8
-3 -3 -3 -2 -1 -0 -0 1 2 3 1 3 4 3 3 4 4 3 3 3 2 5 -0 3 4 1 1 1 1 2 3 1 0 -0 -0 -0 -0 -0 -1 -4 -7 -7 -7 -7
-4 -3 -3 -3 -2 0 1 2 3 3 2 3 3 2 3 3 3 0 0 4 4 -1 2 3 1 -0 -1 -0 1 2 2 1 -0 -1 -1 -1 -1 -1 -2 -5 -7 -7 -7 -10
-4 -4 -5 -2 0 -0 1 0 0 0 1 2 3 2 1 1 -1 -0 4 2 1 2 3 0 -3 -2 -3 -2 0 2 1 -0 -1 -1 -1 -1 -1 -1 -3 -6 -6 -8 -11 -13
-4 -4 -5 -2 -1 -1 -1 -1 -1 1 1 2 2 1 0 -2 0 -0 1 2 2 2 1 -2 -2 -3 -2 -1 0 1 1 -0 -1 -1 -1 -1 -1 -2 -5 -6 -8 -11 -13 -16
-4 -4 -5 -3 -4 -6 -3 -2 -1 0 1 2 2 1 1 0 1 1 2 2 2 0 -3 -2 -2 -3 -2 -0 0 1 0 -1 -1 -1 -2 -2 -2 -3 -5 -8 -11 -13 -16 -15
-4 -3 -3 -3 -4 -4 -3 -3 -1 -0 1 2 1 3 2 -3 -2 -0 -2 -0 -0 -1 -2 -3 -3 -2 -1 -0 0 -0 -1 -1 -2 -2 -2 -2 -3 -5 -9 -11 -12 -14 -13 -12

GFSNW_850_dewp_006.txt.gz
Dewpoint
-4 -2 -2 -1 -1 0 1 1 2 2 2 2 2 4 3 2 2 3 2 1 1 1 2 3 2 2 -0 -1 1 4 1 3 5 3 -1 -1 -1 1 1 5 5 5 2 0
-2 -1 -3 -2 -1 1 1 1 2 2 2 4 4 3 3 4 4 4 3 3 1 1 2 3 2 1 -0 0 1 2 2 5 5 3 3 1 3 1 1 4 5 5 4 -0
-2 -1 -3 -2 -0 1 2 2 3 3 2 3 3 2 3 4 3 4 3 3 2 2 2 1 3 2 1 0 0 1 1 3 5 3 4 2 6 3 4 5 5 3 3 1
-2 -2 -3 -3 -0 1 1 1 3 3 4 3 1 1 2 3 4 3 3 3 2 3 3 3 3 2 2 1 1 1 2 6 5 3 3 4 5 5 6 5 3 4 1 -1
-2 -3 -4 -4 -1 1 1 1 3 2 3 1 1 2 2 2 4 3 3 3 3 2 3 3 3 3 3 2 1 2 3 5 6 5 4 4 6 6 6 6 4 2 1 1
-3 -3 -4 -3 -1 0 1 1 2 4 3 2 1 2 1 2 2 3 3 2 3 4 3 2 2 2 1 2 2 3 4 6 6 5 3 4 7 6 6 6 4 3 3 1
-4 -3 -6 -3 -3 -0 1 1 1 3 4 2 1 1 1 1 1 4 3 3 4 4 4 4 4 4 5 4 3 2 5 5 5 6 5 9 6 4 4 5 5 3 1 0
-4 -5 -7 -5 -5 -1 1 1 1 3 4 1 1 1 0 2 3 3 3 4 3 3 4 5 6 6 5 4 4 4 3 5 7 7 8 5 3 3 6 5 3 1 2 0
-4 -5 -8 -3 -12 -5 -1 1 1 2 4 2 1 2 1 1 2 4 3 4 4 4 5 6 7 5 3 4 4 4 4 4 6 7 7 7 3 2 2 2 5 1 0 1
-3 -4 -5 -5 -13 -10 -3 -0 0 2 2 4 2 2 3 4 4 5 4 4 4 5 5 7 6 6 2 4 4 5 5 6 6 7 7 4 1 1 4 5 4 0 1 1
-12 -4 -10 -9 -13 -15 -5 -2 -0 0 1 3 3 1 3 4 3 4 4 5 5 5 6 5 5 6 4 4 3 4 4 6 6 5 5 7 0 3 3 2 1 0 2 3
-9 -4 -4 -4 -3 -6 -6 -2 -2 -0 1 3 4 4 3 2 2 3 4 4 4 4 5 5 5 5 4 4 5 2 5 3 4 4 3 0 1 1 1 1 1 1 1 3
-14 -4 -4 -4 -4 -3 -6 -4 -3 0 2 3 3 4 4 4 4 4 4 4 4 5 4 5 5 6 5 6 5 4 3 2 5 4 2 2 1 1 1 0 1 0 1 2
-4 -4 -4 -4 -3 -3 -3 -5 -4 -3 -0 1 3 3 3 3 4 4 4 4 4 4 5 4 5 6 3 5 3 4 3 3 4 4 2 2 1 1 1 -0 -0 0 2 1
-3 -4 -3 -5 -4 -4 -5 -10 -13 -8 -1 1 4 4 3 3 3 4 4 4 5 5 5 5 5 4 4 3 3 4 2 3 3 3 2 2 1 1 0 -0 -1 -0 -0 -1
-3 -4 -4 -4 -3 -4 -4 -1 0 -0 0 -0 4 4 5 5 5 5 5 5 5 5 5 5 4 4 4 6 6 3 2 2 2 2 1 1 0 0 0 -0 -1 -1 0 0
-4 -5 -4 -4 -3 -4 -3 -1 -0 -0 -0 1 4 3 4 5 4 4 5 5 5 5 5 5 4 5 5 6 6 3 3 3 2 2 2 1 1 0 -0 -0 -0 -0 -0 -0
-14 -4 -6 -2 -1 -3 -4 -11 -6 -0 0 1 4 4 4 4 4 5 4 5 5 5 5 5 6 5 5 7 5 4 3 3 2 2 1 1 1 0 -0 -0 -0 -0 -1 -1
-8 -6 -3 -2 -3 -3 -2 -1 -2 -0 1 3 4 4 4 4 5 5 5 5 6 5 6 5 5 5 6 5 4 4 3 3 2 1 1 0 1 -0 -0 -0 -0 -0 -1 -2
-6 -6 -3 -1 -4 -3 -2 -1 0 1 2 3 4 2 4 4 4 5 5 4 5 5 5 4 4 5 4 3 4 4 3 2 2 0 0 0 0 -0 -0 -0 -1 -1 -3 -7
-4 -5 -4 -2 -2 -0 0 0 1 2 3 4 4 2 3 3 4 5 4 4 3 6 4 5 5 5 3 2 2 3 3 3 2 1 1 1 0 -0 -1 -1 -2 -4 -9 -10
-4 -3 -3 -2 -1 -0 1 2 1 3 3 3 4 3 3 4 4 4 3 4 3 5 0 4 5 3 1 -0 0 1 2 3 2 1 -0 0 -0 -0 -1 -1 -3 -8 -9 -8
-4 -4 -3 -2 -1 1 1 1 2 3 1 2 3 3 3 3 3 2 3 4 4 0 3 3 3 1 -0 -2 0 2 2 2 1 0 -0 -0 -0 -0 -1 -2 -6 -8 -8 -8
-4 -4 -3 -2 -1 -0 0 0 0 -0 0 1 2 2 2 1 3 1 4 2 1 3 4 3 2 -2 -3 -3 -1 1 1 1 0 -0 -1 -1 -0 -1 -2 -4 -8 -8 -7 -9
-4 -4 -2 -2 -3 -2 -1 -1 -1 -0 0 1 2 1 1 1 2 1 2 3 3 2 3 2 -1 -3 -3 -1 -0 1 1 -0 -1 -1 -1 -1 -1 -1 -3 -6 -7 -7 -9 -11
-4 -4 -3 -3 -3 -4 -3 -3 -2 -1 -0 1 2 2 3 4 2 3 3 3 3 3 2 -1 -2 -3 -2 -1 -0 0 1 -0 -1 -1 -1 -1 -1 -2 -4 -6 -6 -9 -11 -14
-4 -3 -3 -3 -4 -4 -4 -4 -3 -3 -1 1 1 3 4 -0 2 2 1 2 2 -1 -2 -3 -3 -3 -2 -1 -0 0 0 -0 -1 -2 -2 -2 -2 -3 -5 -6 -9 -11 -13 -14

GFSNW_850_dewp_009.txt.gz
Dewpoint
-3 -2 -2 -1 0 1 0 1 2 2 1 2 3 5 3 2 1 3 1 -0 -1 -0 -0 1 1 1 -0 -1 -0 2 -0 2 4 2 -1 -2 -1 1 1 5 3 4 3 2
-3 -2 -2 -1 1 2 2 2 2 2 2 4 5 3 4 2 3 3 2 1 -0 -1 0 2 1 0 -1 -2 0 1 1 4 5 5 2 -1 1 0 -0 2 4 6 6 2
-2 -2 -2 -2 -0 1 2 1 3 2 2 3 2 4 5 4 4 3 2 2 0 0 1 1 1 2 1 -1 -0 1 0 2 5 3 5 1 5 4 3 5 6 4 3 1
-3 -4 -4 -3 -1 2 2 1 3 3 4 3 3 3 3 4 4 2 1 1 1 0 2 1 2 1 1 1 0 0 1 6 4 3 2 3 4 4 4 6 6 6 3 0
-2 -2 -5 -3 -1 1 2 1 2 2 2 0 -0 1 2 2 3 2 1 1 1 0 1 1 3 2 1 2 1 2 2 5 5 5 3 3 5 4 5 6 6 6 6 5
-4 -2 -4 -8 -1 1 1 2 2 3 3 1 0 1 1 2 2 3 2 2 2 2 2 2 2 2 1 1 2 3 4 5 5 5 2 3 7 7 7 6 5 5 6 4
-3 -4 -3 -10 -9 1 1 1 2 3 4 0 -0 0 0 1 2 3 3 2 2 4 4 4 3 3 3 3 3 2 4 5 5 7 5 9 4 3 4 5 4 3 3 3
-4 -4 -4 -4 -16 -5 1 1 1 2 3 0 0 -0 1 1 1 2 3 3 4 3 4 4 4 6 5 4 4 4 2 4 6 7 6 3 5 2 6 7 5 2 3 2
-20 -7 -10 -9 -13 -15 -1 0 1 2 3 1 -0 -0 -0 2 2 2 2 5 4 5 5 5 7 7 3 4 5 3 3 3 6 5 7 7 3 2 3 4 6 1 2 4
-24 -22 -8 -16 -12 -15 -9 -0 -0 2 2 3 3 1 1 1 1 5 5 5 4 4 5 6 8 7 2 4 4 5 6 6 6 6 7 4 0 1 4 6 4 1 2 3
-20 -13 -6 -4 -5 -8 -12 -0 -1 -0 0 2 3 2 2 4 3 4 4 5 5 5 5 6 6 7 4 4 2 4 4 5 5 5 6 6 0 1 4 2 1 1 2 3
-10 -8 -4 -4 -4 -4 -4 -2 -1 -1 0 2 3 4 3 3 3 3 4 5 4 4 5 5 5 6 4 3 4 1 4 2 3 3 3 0 1 1 1 1 1 1 1 5
-4 -4 -4 -4 -4 -4 -3 -2 -2 -1 0 2 3 4 4 3 2 2 4 5 4 4 5 5 5 7 5 7 4 3 2 1 4 4 2 1 1 1 1 1 1 1 2 2
-3 -3 -2 -2 -4 -4 -3 -2 -2 -2 -1 1 4 3 4 4 4 4 4 4 4 4 4 5 5 5 4 4 4 4 3 3 3 3 2 2 1 1 1 0 0 2 1 0
-4 -3 -3 -4 -4 -4 -4 -3 -3 -5 -1 1 3 4 3 3 3 4 4 5 5 5 5 5 5 4 4 3 4 4 2 3 4 3 2 2 1 1 0 -0 -0 -0 -1 -1
-4 -3 -4 -4 -4 -4 -3 -1 -2 -2 -3 0 4 4 5 4 4 4 4 5 5 5 5 5 4 3 4 6 5 1 0 0 1 1 1 1 1 1 0 -0 -1 -1 -1 -0
-5 -5 -4 -3 -3 -3 -3 -3 -1 -1 -1 0 3 4 4 5 5 5 5 5 5 5 5 5 5 4 6 5 5 1 1 2 2 2 2 1 1 1 -0 -1 -1 -1 -1 -1
-16 -5 -4 -3 -2 -2 -2 -4 -1 -1 -0 0 3 4 4 3 5 4 4 5 5 5 5 5 5 5 5 6 3 3 3 2 3 2 2 1 1 0 -0 -1 -0 -1 -1 -2
-16 -5 -2 -2 -3 -2 -2 -3 -6 -1 -0 1 4 4 4 4 5 5 5 5 6 5 6 5 5 5 6 4 4 4 3 3 3 2 1 1 0 -0 -0 -1 -1 -1 -2 -2
-9 -5 -3 -2 -2 -4 -3 -2 -0 -1 0 1 3 2 4 4 4 4 5 5 5 6 4 4 5 5 3 2 2 3 4 3 2 1 1 1 0 -0 -1 -1 -1 -2 -2 -2
-4 -3 -2 -2 -2 -1 -0 -0 0 0 2 3 4 2 2 3 4 4 4 4 4 6 4 4 5 5 3 3 1 1 3 3 3 2 1 1 1 0 -0 -1 -1 -2 -3 -6
-4 -3 -3 -2 -1 -0 0 2 1 2 4 3 3 3 2 4 4 4 4 5 4 6 1 4 5 3 2 1 -1 -1 1 2 2 2 1 1 1 0 -1 -1 -1 -2 -6 -9
-4 -3 -3 -2 -0 1 2 2 2 3 0 1 2 4 3 3 3 3 3 5 5 1 4 4 3 2 0 -2 -3 -1 2 2 2 2 1 -0 0 -0 -1 -1 -1 -4 -10 -9
-3 -3 -1 -0 0 -1 -0 0 0 -0 -0 0 1 2 3 2 4 3 5 3 2 4 4 4 5 1 -2 -3 -2 0 2 1 0 0 -0 -0 -0 -1 -1 -1 -2 -9 -9 -8
-3 -3 -1 -1 -2 -1 -1 -2 -1 -1 -0 0 1 2 1 2 3 2 3 3 3 2 4 4 1 -2 -2 -2 -1 0 1 1 0 -0 -1 -1 -1 -1 -1 -2 -6 -8 -8 -8
-4 -4 -3 -3 -2 -2 -2 -2 -2 -1 -1 1 1 2 3 3 4 3 3 3 4 4 2 -0 -2 -2 -2 -2 -1 -0 0 -0 -0 -1 -1 -1 -1 -1 -2 -4 -7 -7 -7 -9
-4 -3 -3 -3 -3 -3 -3 -4 -4 -3 -1 1 1 3 3 1 3 3 2 3 2 -1 -1 -2 -3 -3 -3 -3 -2 -1 -0 -1 -1 -1 -1 -1 -1 -2 -3 -6 -7 -6 -8 -10

GFSNW_850_dewp_012.txt.gz
Dewpoint
-2 -2 -2 -2 -0 1 1 1 3 2 1 2 2 4 3 4 2 2 0 -1 -0 -0 0 2 1 2 0 -1 -1 1 -1 2 4 4 -0 -1 0 2 2 5 2 3 4 3
-2 -3 -6 -4 0 1 2 1 2 1 3 3 4 3 4 3 3 3 1 1 -0 -2 -0 2 1 1 -2 -1 -0 1 -0 4 4 5 3 -0 2 0 0 2 3 5 5 2
-3 -3 -9 -7 1 2 1 1 2 2 1 3 2 4 5 5 4 2 1 0 -1 -0 0 1 1 2 0 -1 -0 -0 -0 3 3 4 3 3 5 4 2 3 6 4 4 3
-2 -4 -7 -10 2 2 2 2 3 2 4 4 3 4 4 5 5 2 1 1 0 0 2 1 1 0 1 -0 1 0 1 5 3 3 2 2 3 3 3 5 6 6 5 5
-3 -11 -4 -15 1 2 2 2 3 2 1 2 4 3 5 4 2 2 1 1 -0 -1 1 2 1 1 1 2 1 1 1 5 5 4 2 2 4 3 3 4 5 7 7 6
-3 -8 -5 -16 -3 1 1 2 2 3 2 1 1 2 1 2 2 2 2 1 1 3 4 2 2 2 1 1 2 2 4 6 5 4 2 3 6 5 6 6 5 6 7 5
-10 -28 -25 -16 -17 -1 1 1 2 3 3 1 -0 0 -0 1 3 3 2 2 3 4 4 3 3 3 3 3 1 2 5 5 5 6 4 6 3 3 4 5 5 4 3 3
-12 -14 -33 -30 -19 -17 1 1 2 2 4 0 -1 -0 1 0 1 3 3 4 4 4 4 4 4 6 5 4 3 3 3 4 6 6 4 3 2 3 5 6 5 2 4 4
-5 -6 -20 -30 -27 -19 -14 1 0 2 3 1 2 -0 0 2 2 3 4 4 3 4 5 5 6 7 4 5 5 4 4 3 6 5 6 6 4 2 3 4 7 1 4 5
-3 -3 -4 -17 -12 -24 -16 -0 -0 1 2 2 3 1 2 0 1 5 4 4 4 4 5 6 7 6 3 5 6 6 6 6 6 6 6 5 1 1 3 7 5 1 1 4
-3 -3 -2 -3 -8 -7 -11 -8 -0 -0 0 1 2 3 3 3 3 5 4 5 4 5 5 5 6 7 5 4 3 4 4 5 6 6 7 6 0 2 4 3 2 1 1 4
-2 -3 -2 -2 -3 -6 -5 -4 -5 -2 -0 0 2 3 4 4 4 4 4 5 4 4 5 5 5 5 5 5 5 1 4 2 4 3 4 -0 1 1 1 1 1 1 1 5
-2 -3 -3 -3 -3 -3 -5 -4 -3 -3 -1 0 1 3 2 3 3 3 4 4 3 4 4 5 5 6 5 6 5 4 1 0 4 4 2 2 2 1 1 1 0 1 1 4
-3 -2 -2 -3 -3 -3 -5 -5 -4 -3 -2 -1 3 3 4 4 2 2 2 4 3 4 4 5 4 5 4 5 4 4 3 3 3 3 2 2 1 1 1 -0 1 2 2 2
-4 -3 -3 -3 -3 -3 -5 -6 -5 -3 -2 -0 1 3 3 4 3 4 4 4 5 4 5 5 4 4 4 3 3 4 2 4 5 5 2 2 1 1 0 -0 0 0 0 -0
-4 -3 -3 -4 -3 -4 -5 -4 -3 -4 -3 -1 3 4 4 4 3 4 4 4 4 5 5 5 4 3 4 5 4 1 1 1 1 1 2 1 1 1 -0 -1 -0 -0 -0 -1
-2 -4 -4 -3 -3 -4 -5 -4 -2 -1 -3 -1 1 4 4 5 5 5 5 5 5 5 5 5 4 4 4 6 5 1 0 1 1 2 2 2 1 1 -0 -1 -1 -1 -1 -1
-6 -6 -3 -3 -3 -4 -4 -5 -3 -2 -1 -1 2 4 4 4 5 5 4 5 5 5 5 5 5 4 5 6 4 3 2 2 2 3 2 2 1 1 -0 -1 -1 -1 -2 -2
-13 -6 -2 -2 -3 -3 -3 -3 -4 -2 -1 -1 2 4 4 4 5 5 4 5 5 5 5 5 5 5 6 4 3 3 4 4 3 3 2 2 1 0 -0 -1 -1 -1 -2 -1
-6 -4 -2 -2 -2 -3 -2 -2 -1 -1 -0 -0 2 2 4 4 4 5 5 5 5 5 4 4 5 5 3 3 3 3 3 3 3 2 2 1 0 0 -0 -1 -1 -1 -0 -1
-4 -3 -2 -3 -4 -3 -1 -1 -1 -0 1 2 3 3 3 3 4 4 4 4 3 5 3 4 4 5 3 1 0 -1 -1 2 3 3 2 2 1 1 -0 -1 -1 -1 -1 -1
-4 -3 -3 -2 -1 -1 -0 1 0 1 3 3 4 3 3 4 3 3 3 4 3 5 1 3 5 3 -0 -2 -3 -2 -0 1 2 3 2 1 1 1 -0 -1 -1 -1 -2 -3
-3 -3 -3 -2 -1 1 2 2 2 3 0 1 2 3 3 3 4 3 2 4 4 1 3 3 1 1 -1 -2 -1 -0 1 1 2 2 1 0 1 2 0 -1 -1 -2 -2 -6
-3 -4 -3 -2 -1 -2 0 0 0 -0 0 0 1 2 3 2 2 2 3 3 1 2 3 2 1 -0 -2 -2 -1 -0 0 1 1 1 0 -0 0 2 1 -1 -1 1 -3 -8
-4 -4 -2 -2 -2 -2 -1 -2 -1 -1 -0 0 2 2 2 2 3 2 3 3 2 2 2 1 -0 -2 -3 -3 -2 -1 -1 -0 0 -0 -1 -1 -0 1 1 1 1 -1 -7 -9
-4 -4 -3 -3 -2 -3 -2 -2 -1 -1 -1 0 1 2 3 3 3 3 2 2 2 1 -1 -1 -2 -3 -3 -3 -3 -2 -1 -1 -1 -1 -1 -1 -1 -1 -1 -2 -2 -5 -9 -8
-5 -4 -4 -3 -3 -2 -3 -4 -4 -4 -1 1 0 2 3 1 3 2 1 2 1 -2 -2 -2 -2 -2 -3 -3 -3 -2 -2 -1 -1 -1 -2 -2 -2 -2 -2 -2 -4 -8 -8 -8

GFSNW_850_dewp_015.txt.gz
Dewpoint
-3 -2 -1 -3 1 1 -0 -0 2 2 2 2 2 4 3 3 3 3 3 -1 -0 1 3 3 2 1 0 -1 -1 1 -1 2 4 2 0 -0 0 1 2 2 1 2 2 2
-3 -2 -4 -2 1 -0 -0 1 2 1 2 4 4 3 4 4 5 3 2 2 -1 -1 0 3 1 1 -1 -1 -1 1 -1 2 2 4 2 1 2 1 1 2 2 3 4 1
-3 -1 -7 -4 1 -0 -0 1 0 0 2 2 3 4 5 4 3 3 1 0 -2 -1 1 0 1 2 -0 -1 1 -1 -1 3 1 3 2 3 3 3 2 2 5 4 3 2
-8 -16 -14 -12 1 0 1 2 1 2 1 2 2 4 4 4 4 2 0 1 0 1 2 1 2 2 1 -0 1 0 2 3 3 3 3 3 3 3 3 4 4 6 3 4
-9 -34 -23 -18 -1 1 2 2 2 2 2 2 3 4 4 4 3 4 1 1 2 2 3 2 2 2 2 2 1 1 1 3 4 3 3 3 4 3 2 3 3 3 4 5
-10 -25 -34 -21 -14 0 1 2 2 2 1 2 3 2 3 3 2 2 3 2 4 5 4 3 3 1 1 1 2 2 4 4 2 1 2 3 5 3 3 4 5 5 7 5
-14 -14 -24 -31 -21 -11 1 1 2 2 3 2 1 0 0 3 3 3 3 3 4 4 4 3 2 2 3 2 1 2 4 4 3 3 3 4 3 2 3 5 5 4 4 4
-3 -13 -14 -18 -28 -21 -8 1 1 2 3 2 -0 0 1 1 3 3 4 4 4 3 4 4 5 5 4 4 3 3 3 4 5 5 4 2 2 4 5 6 5 2 4 5
-2 -2 -7 -6 -10 -25 -15 1 0 1 2 3 3 2 1 1 2 2 5 4 3 4 5 4 5 7 4 6 5 3 3 3 5 6 6 5 3 2 3 3 6 1 2 5
-2 -2 -2 -4 -3 -14 -17 -1 -1 -0 1 2 2 3 2 0 3 4 4 3 4 4 4 5 5 4 4 5 5 6 6 6 6 6 6 4 1 1 3 6 2 2 1 3
-2 -3 -2 -2 -2 -4 -9 -10 -2 -1 -0 -0 -0 1 4 4 3 3 3 3 4 4 5 4 5 5 5 4 3 4 5 5 6 6 6 5 -1 3 5 2 2 1 1 3
-2 -2 -2 -2 -3 -4 -3 -7 -6 -4 -2 -0 -0 1 2 3 5 5 4 4 4 4 4 4 5 5 4 5 5 1 6 3 4 3 3 -1 -0 1 1 2 1 1 1 4
-3 -3 -2 -3 -2 -3 -3 -3 -6 -4 -3 -4 -3 -2 1 2 4 5 4 4 4 3 4 4 4 5 4 5 5 5 2 1 3 3 2 1 1 1 1 1 0 0 1 4
-4 -3 -3 -3 -4 -4 -4 -2 -5 -4 -3 -1 -0 2 4 3 3 2 3 4 4 4 3 4 4 5 4 4 4 4 3 3 3 3 2 2 1 1 1 -0 1 1 3 3
-2 -3 -3 -3 -4 -4 -3 -5 -6 -7 -4 -1 -1 2 4 4 4 3 3 4 4 4 5 5 5 4 4 3 3 4 2 3 4 5 2 2 1 1 1 -0 0 1 1 1
-3 -3 -3 -4 -3 -3 -3 -5 -3 -3 -4 -2 0 3 4 4 4 4 4 4 5 5 4 4 4 3 3 5 5 1 1 1 1 2 2 1 1 1 0 -0 -0 0 0 0
-2 -3 -3 -4 -3 -3 -3 -5 -2 -2 -3 -3 -0 3 4 4 5 5 5 4 4 5 4 5 4 4 4 5 4 1 1 2 2 2 2 2 1 1 1 -1 -1 -1 -1 -1
-7 -4 -6 -3 -4 -5 -4 -5 -4 -2 -2 -2 -0 3 4 4 5 5 4 5 5 5 5 5 5 4 4 5 3 3 3 3 3 3 2 2 2 1 0 -1 -1 -1 -2 -2
-13 -5 -3 -2 -2 -3 -4 -3 -3 -4 -2 -2 0 3 4 5 4 5 4 5 5 4 5 4 4 4 5 4 4 4 3 2 3 3 2 2 2 1 0 -1 -1 -1 -2 -2
-7 -4 -2 -2 -3 -3 -3 -2 -1 -2 -1 -2 1 3 4 4 4 4 5 5 4 5 5 4 5 4 3 -1 -2 -2 -2 -2 1 3 2 2 1 1 -0 -1 -1 -1 -1 -2
-7 -3 -3 -3 -3 -2 -2 -1 -1 -1 1 1 2 4 3 3 3 4 4 3 3 5 3 3 3 5 0 -2 -2 -1 -1 -0 0 1 2 2 2 1 0 -1 -1 -1 -1 -1
-10 -3 -3 -2 -2 -1 -1 -0 0 1 2 3 3 3 3 3 3 3 3 3 3 4 1 3 3 2 -2 -2 -2 -1 0 1 1 2 3 3 2 1 0 -1 0 2 0 -1
-3 -3 -3 -2 -1 -1 1 1 2 2 0 1 2 2 3 3 3 2 2 3 3 0 3 3 1 -1 -2 -3 -3 -2 -0 1 0 1 2 2 1 1 0 -0 -1 -1 -1 -1
-4 -4 -3 -2 -1 -1 -1 -0 0 -0 -0 0 1 2 2 2 2 2 3 2 1 2 3 1 0 -1 -3 -3 -3 -2 -1 -1 1 -0 0 0 0 1 2 1 -0 -1 -2 2
-4 -4 -4 -2 -3 -3 -1 -2 -1 -0 -0 0 1 2 2 1 2 1 2 2 2 1 0 0 -1 -2 -3 -3 -3 -3 -2 -1 -1 -0 -0 -0 -0 1 2 2 1 -1 -0 3
-4 -4 -3 -3 -3 -2 -3 -3 -2 -1 -2 1 1 1 2 3 2 3 2 1 1 -1 -2 -2 -2 -2 -3 -2 -3 -3 -2 -2 -2 -2 -1 -1 -1 -1 0 2 1 -1 1 0
-5 -4 -4 -3 -2 -3 -2 -4 -3 -3 -3 1 0 2 3 1 3 2 1 2 -1 -2 -2 -3 -3 -2 -3 -3 -2 -2 -3 -2 -2 -2 -2 -2 -2 -2 -1 -1 -1 -1 -0 -5

GFSNW_850_dewp_018.txt.gz
Dewpoint
-5 -14 -5 0 -1 -2 -3 -0 -1 0 2 2 2 3 3 3 3 3 4 -1 1 3 2 3 2 3 1 -1 -1 2 -1 2 1 2 -0 -1 0 1 1 0 -0 1 1 2
-29 -22 -9 0 -2 -2 -2 1 1 1 2 4 4 3 4 4 4 4 2 0 -1 1 2 2 1 0 -1 -1 -0 1 -1 2 1 3 2 1 2 1 1 1 1 0 4 2
-26 -33 -18 -0 -0 -0 -0 0 -1 -0 2 3 3 4 4 4 2 2 1 -0 -0 -1 0 -0 2 1 -1 -0 -0 -1 -1 2 -0 2 0 2 2 2 1 2 4 3 2 1
-18 -31 -30 -10 0 -0 0 2 2 3 2 2 3 3 3 4 4 3 0 0 -1 1 2 2 3 1 0 1 1 1 1 2 2 2 2 2 2 2 2 3 2 4 2 2
-15 -20 -31 -25 -1 1 1 2 2 2 2 2 2 3 4 4 3 3 3 4 3 1 3 2 3 2 1 1 1 1 1 4 3 4 2 3 3 2 2 2 2 2 2 3
-8 -18 -20 -27 -15 -1 1 1 1 2 1 1 2 2 2 3 2 2 3 2 4 4 4 3 1 -0 -0 0 1 2 2 3 2 1 1 2 4 3 2 2 2 3 6 4
-4 -7 -15 -18 -23 -12 0 0 1 2 2 2 1 0 2 3 2 2 3 3 4 4 3 3 2 2 2 1 1 2 4 3 1 1 2 4 2 -0 1 2 3 4 4 4
-2 -3 -6 -10 -17 -22 -1 0 0 1 1 2 2 3 2 2 3 3 3 4 4 3 3 4 5 5 4 3 2 3 2 4 2 3 3 2 2 3 4 5 4 3 4 2
-2 -2 -2 -4 -5 -19 -12 -1 -0 0 1 2 3 3 2 2 2 2 4 4 3 4 4 3 4 6 4 6 6 3 2 3 5 5 6 5 1 2 3 3 6 2 1 2
-2 -2 -2 -2 -2 -4 -13 -8 -6 -1 1 1 2 3 3 2 2 2 4 3 3 3 3 5 4 4 4 6 5 6 6 5 6 6 6 3 0 -0 3 5 2 1 1 1
-4 -2 -2 -2 -2 -3 -4 -7 -6 -7 -1 -0 -1 0 2 3 3 2 2 3 3 3 4 4 5 5 4 5 3 5 5 6 7 6 6 5 -1 3 5 1 1 2 1 2
-3 -3 -2 -3 -3 -2 -3 -3 -5 -5 -4 -7 -4 -1 0 2 3 4 4 3 3 3 3 3 4 5 4 4 4 2 5 2 4 4 3 -1 -1 1 1 2 1 1 1 2
-2 -3 -2 -3 -4 -4 -4 -3 -3 -4 -4 -7 -6 -20 -7 -2 2 3 5 4 4 3 4 3 4 5 4 4 4 4 2 1 3 2 1 0 0 1 1 1 0 -0 0 2
-1 -2 -3 -3 -3 -4 -3 -2 -4 -3 -6 -4 -6 -1 -1 -0 2 3 5 5 3 3 3 3 4 4 3 3 3 4 3 3 3 3 3 2 2 1 1 1 0 1 1 3
-2 -3 -3 -3 -3 -5 -3 -3 -3 -3 -4 -4 -3 -7 -1 1 4 4 4 5 4 4 4 4 4 3 3 3 3 4 2 3 4 3 2 2 2 1 1 1 0 0 2 2
-2 -3 -3 -3 -4 -3 -2 -3 -3 -3 -4 -4 -3 -1 2 4 5 4 3 4 4 4 4 4 4 3 3 5 5 2 1 1 1 1 1 2 2 1 1 1 -0 -0 0 1
-4 -5 -4 -4 -4 -3 -3 -5 -4 -4 -3 -3 -2 -0 3 4 5 5 5 5 5 4 4 4 4 4 4 5 4 1 3 4 4 3 3 2 2 2 1 1 -0 -0 0 -0
-13 -9 -6 -4 -5 -5 -5 -5 -6 -4 -4 -3 -1 0 4 5 4 4 4 4 4 4 4 4 4 4 4 5 2 3 3 1 2 2 3 3 2 2 1 1 -0 -1 -1 -1
-14 -5 -3 -3 -4 -3 -3 -4 -3 -4 -2 -2 -1 2 4 4 4 4 4 5 5 4 4 4 4 4 5 2 -1 -2 -2 -1 -2 -2 2 2 2 1 1 1 -1 -1 -2 -2
-9 -3 -2 -3 -3 -3 -4 -2 -2 -2 -2 -2 -1 1 4 4 4 4 4 4 4 5 5 4 5 4 2 -1 -2 -2 -1 -0 0 0 1 2 2 2 1 1 -1 -1 -2 -2
-10 -4 -3 -4 -4 -2 -2 -2 -1 -1 0 -1 0 3 4 3 3 5 4 3 3 4 3 4 3 5 -1 -2 -3 -2 -1 0 0 0 1 1 2 2 2 0 -1 -1 -2 -0
-12 -6 -3 -2 -2 -2 -1 -1 -0 1 2 2 2 3 3 4 3 3 3 2 2 4 1 3 3 2 -2 -3 -3 -2 -1 -0 0 0 1 2 2 2 1 1 -1 -1 -0 3
-4 -3 -3 -3 -2 -1 -0 1 1 2 -0 0 1 2 3 3 3 2 2 3 3 -0 3 2 2 -1 -2 -3 -3 -3 -1 -1 1 0 1 1 1 1 1 0 -1 -1 3 4
-4 -4 -3 -2 -1 -1 -1 -0 -0 -0 -0 0 1 2 2 2 2 2 3 2 0 2 2 2 -0 -2 -3 -3 -3 -3 -2 -1 -1 1 1 0 0 1 1 1 2 -1 0 1
-4 -4 -3 -3 -3 -2 -2 -2 -2 -0 -0 0 1 2 2 1 2 2 2 3 2 1 -0 -0 -2 -2 -2 -2 -2 -3 -3 -2 -1 -1 1 1 -0 1 1 2 2 1 -0 -1
-5 -5 -4 -4 -3 -2 -3 -3 -3 -1 -1 -0 0 1 2 3 2 2 2 1 1 -1 -2 -2 -3 -2 -3 -5 -4 -2 -3 -3 -2 -2 -2 -1 -1 -1 1 1 2 1 1 1
-4 -4 -4 -4 -4 -2 -3 -3 -2 -2 -1 0 0 2 2 0 3 2 1 2 -0 -2 -2 -4 -4 -3 -3 -5 -8 -7 -3 -3 -3 -2 -2 -2 -2 -2 -1 -1 1 2 1 0

GFSNW_850_dewp_021.txt.gz
Dewpoint
-31 -22 -3 -1 -2 -3 -3 -2 -1 1 1 2 2 3 3 3 4 3 3 -1 2 2 2 3 2 2 1 -1 -1 1 -0 1 2 2 -0 -1 0 1 1 -0 -1 0 1 2
-27 -34 -14 -1 -2 -1 -3 -1 -0 0 2 3 4 2 4 4 4 4 3 -0 0 1 1 2 1 1 -1 -1 -1 0 -0 1 0 3 2 1 2 1 0 -0 -1 -0 3 1
-26 -30 -32 -6 0 -1 -0 0 -1 1 2 3 3 3 3 3 2 3 -1 0 -0 -0 1 -0 2 1 0 -1 -1 -1 -1 1 -1 1 -0 1 2 2 1 1 2 2 2 1
-16 -28 -33 -24 -0 0 1 1 2 2 3 3 3 2 3 4 4 2 0 -0 -0 0 2 2 2 1 1 1 1 1 -0 1 1 2 2 1 2 2 2 1 2 3 1 1
-8 -18 -28 -32 -7 0 0 1 2 1 2 1 2 2 3 3 3 3 3 2 2 0 2 1 3 1 1 1 1 1 1 4 3 3 2 2 3 2 2 2 2 2 1 2
-6 -9 -22 -28 -25 -1 0 1 2 2 1 1 1 1 2 3 2 2 3 3 3 4 4 2 -0 -1 -1 -1 1 2 1 3 2 2 -0 2 4 2 2 2 1 1 3 1
-3 -4 -11 -21 -24 -11 0 0 1 1 1 1 2 1 2 3 2 2 3 3 3 4 3 2 2 1 0 -0 0 1 3 3 3 1 1 3 0 -1 0 1 1 1 1 2
-4 -3 -6 -8 -8 -19 -8 -1 0 1 1 1 1 2 2 2 2 3 3 4 4 4 3 3 3 4 3 3 2 2 1 3 2 3 3 1 1 4 4 4 3 2 3 3
-2 -3 -3 -4 -4 -8 -13 -8 -3 0 1 1 2 2 2 1 1 1 4 4 3 3 3 3 4 6 4 6 5 3 2 2 4 4 5 4 -0 2 3 2 4 1 2 2
-2 -3 -2 -2 -3 -3 -7 -7 -10 -4 -0 1 1 1 3 3 1 1 3 3 3 3 3 4 4 4 4 5 6 6 6 6 5 5 6 3 -1 -1 3 4 2 1 1 1
-1 -2 -3 -2 -3 -3 -3 -5 -8 -8 -4 -4 -4 1 1 2 3 2 2 2 3 3 3 3 3 4 5 5 3 5 5 6 6 6 6 4 1 3 4 1 1 2 1 1
-1 -1 -2 -3 -2 -3 -3 -3 -3 -3 -4 -10 -11 -9 -4 -2 -1 2 4 2 2 3 2 2 3 4 4 4 5 2 5 2 3 3 2 -1 0 1 -0 0 1 1 1 0
-3 -0 -1 -4 -3 -3 -3 -3 -2 -3 -3 -4 -4 -11 -18 -14 -12 0 1 4 3 3 2 2 3 4 4 5 3 3 2 1 3 3 1 1 1 2 2 1 1 0 1 0
-3 -1 -1 -3 -4 -3 -3 -3 -4 -2 -3 -4 -7 -6 -8 -3 -2 -5 -2 3 4 4 3 3 3 3 2 2 2 3 2 2 3 3 2 2 2 2 1 1 1 1 0 1
-4 -2 -2 -3 -4 -3 -4 -3 -3 -2 -3 -4 -6 -7 -13 -16 -4 1 2 1 4 4 3 3 3 2 3 2 3 3 1 2 3 3 1 2 2 2 2 1 1 1 -0 1
-4 -2 -3 -4 -4 -3 -3 -3 -4 -4 -3 -3 -5 -8 -12 -5 -2 0 3 4 5 4 3 4 4 3 2 4 5 1 1 2 4 2 4 3 2 2 2 1 1 0 -0 1
-2 -4 -10 -4 -4 -3 -2 -5 -4 -4 -3 -5 -5 -3 -2 0 2 4 3 5 5 4 4 4 4 4 3 5 4 1 3 3 2 3 1 3 2 2 1 1 1 0 -0 0
-3 -13 -5 -4 -5 -5 -4 -4 -4 -4 -4 -3 -2 -1 0 2 4 4 4 5 4 4 4 4 4 4 4 4 2 -1 -2 -2 -1 1 -0 -1 2 2 2 1 1 0 -1 -1
-8 -6 -3 -3 -3 -3 -4 -4 -3 -3 -3 -2 -1 -0 3 3 4 4 4 3 4 4 3 4 4 4 5 1 -2 -2 -2 -2 -1 -1 -1 -2 1 1 1 1 1 0 -1 -1
-13 -4 -2 -3 -3 -3 -3 -2 -2 -3 -2 -3 -2 -1 1 4 3 4 4 4 4 4 4 4 4 4 0 -2 -3 -3 -3 -1 -1 0 0 -0 1 2 1 1 1 -0 -1 -2
-13 -5 -3 -3 -3 -3 -2 -2 -1 -1 -2 -1 -1 -0 4 3 3 4 4 3 3 4 3 5 4 3 -1 -2 -3 -3 -2 -1 -0 0 -0 0 1 1 2 2 1 -0 -1 -2
-11 -8 -4 -3 -3 -2 -1 -1 -1 0 1 1 1 2 3 4 3 3 3 2 2 4 2 3 2 1 -2 -3 -3 -3 -2 -1 -0 0 0 0 2 2 2 2 1 -0 -1 -2
-6 -4 -3 -3 -2 -1 -1 -1 -0 2 -0 0 0 2 3 3 3 2 2 3 2 -0 3 2 2 -2 -3 -3 -3 -3 -2 -2 -1 1 1 0 1 1 1 1 0 -0 -2 -1
-5 -5 -4 -3 -3 -2 -1 -1 -3 -0 -0 -0 0 1 2 2 2 2 2 2 1 3 2 1 -1 -2 -2 -2 -2 -3 -3 -2 -2 -1 2 2 2 1 1 1 0 1 -1 -1
-5 -4 -5 -5 -4 -3 -2 -2 -2 -1 -1 -0 1 1 2 1 2 1 2 3 2 1 0 -2 -2 -2 -3 -4 -5 -3 -3 -3 -3 -2 -2 -1 -0 0 1 2 2 2 1 0
-5 -4 -5 -4 -3 -4 -3 -3 -3 -2 -1 -0 -0 1 2 3 1 2 2 2 2 -1 -2 -2 -3 -2 -3 -5 -8 -7 -4 -3 -3 -3 -2 -2 -2 -1 -1 1 2 2 1 1
-5 -5 -5 -4 -4 -4 -3 -3 -3 -2 -2 0 0 2 2 1 2 1 -0 1 -1 -1 -2 -4 -4 -4 -3 -4 -11 -11 -8 -6 -4 -3 -3 -2 -2 -2 -2 -1 -0 1 1 1

GFSNW_850_dewp_024.txt.gz
Dewpoint
-22 -29 -31 -4 -3 -4 -4 -1 -1 0 1 2 2 4 3 3 3 3 2 0 1 2 2 2 1 2 0 -1 -1 1 -1 1 1 3 -0 -1 0 1 -0 -1 -2 1 0 1
-18 -26 -32 -21 -2 -3 -1 -1 -2 0 2 4 4 2 3 3 4 3 3 0 0 0 1 2 1 1 -1 -1 -1 -0 -0 0 1 3 1 1 1 1 -1 -1 -2 -0 1 0
-16 -22 -27 -33 -3 -2 -1 0 -0 1 1 2 3 3 3 3 2 2 -1 0 -1 -0 1 0 1 1 1 -1 -1 -1 -1 0 -0 1 -1 1 2 2 0 -0 0 1 1 0
-8 -18 -25 -32 -14 -1 -0 1 2 2 2 2 2 2 3 3 4 2 0 -0 -0 0 2 2 2 1 1 1 1 1 -0 1 0 1 1 1 1 2 2 1 1 0 0 1
-3 -12 -16 -27 -26 -0 0 1 1 1 1 1 1 1 2 3 3 3 2 2 3 0 1 1 2 1 1 1 0 1 0 3 2 1 1 2 3 2 1 1 1 1 1 1
-1 -8 -10 -12 -29 -6 0 1 1 1 0 -0 1 1 2 3 2 2 3 2 3 3 4 3 -0 -1 -1 -1 1 2 2 3 1 2 0 1 3 2 2 2 1 1 3 -0
-1 -3 -4 -6 -10 -16 -1 -1 0 1 0 0 1 1 1 3 3 2 3 3 3 4 2 2 1 -0 -0 -0 0 0 2 2 3 1 0 2 -1 -1 -0 1 0 0 0 -0
-1 -3 -3 -3 -3 -7 -11 -7 -0 -0 1 -0 0 1 2 2 2 3 3 4 4 3 3 2 3 3 2 3 1 2 0 2 2 2 3 1 1 3 2 2 3 0 0 -0
-1 -1 -4 -2 -4 -2 -6 -9 -10 -1 -1 -1 1 1 2 1 1 1 3 4 4 3 2 2 4 3 2 4 5 2 2 2 4 3 3 4 -1 2 3 1 4 1 2 2
-1 -0 -2 -3 -3 -4 -4 -5 -7 -9 -2 -2 1 1 2 3 1 0 3 3 3 3 3 4 3 3 3 5 5 6 6 6 5 5 4 3 -1 -1 2 5 2 0 2 2
-3 -1 -0 -1 -4 -4 -3 -4 -6 -5 -7 -10 -10 -2 1 1 3 1 2 2 2 2 3 3 3 3 4 4 3 5 5 4 5 4 5 4 1 3 4 1 1 1 1 1
-2 -2 -1 -1 -2 -5 -3 -2 -3 -3 -3 -7 -8 -8 -8 -7 -3 -1 2 2 1 2 2 2 2 3 3 4 5 2 5 2 3 3 2 -2 -0 1 0 -0 0 1 1 0
-2 -4 -1 -1 -1 -2 -4 -2 -3 -3 -3 -3 -3 -7 -10 -10 -12 -11 0 3 3 3 2 1 2 3 2 4 3 3 2 1 2 3 1 1 1 1 2 2 1 1 1 1
-2 -2 -2 -1 -1 -3 -3 -2 -3 -3 -3 -3 -6 -7 -8 -7 -8 -3 -11 -0 4 3 3 2 2 2 1 2 1 2 2 2 3 3 2 1 1 2 2 1 1 1 1 0
-1 -2 -2 -1 -3 -5 -4 -5 -5 -3 -3 -3 -4 -4 -7 -8 -7 -8 -6 -8 -4 -0 4 3 3 2 2 1 2 2 1 1 3 3 1 2 2 2 2 2 2 1 1 0
-1 -2 -1 -3 -7 -4 -3 -3 -4 -4 -4 -4 -4 -6 -8 -10 -12 -10 -11 -3 -1 1 4 3 3 3 2 3 4 1 1 1 2 3 3 3 3 3 3 2 2 1 1 0
-1 -2 -3 -8 -4 -4 -4 -4 -5 -5 -4 -3 -5 -5 -3 -1 -6 -2 -2 1 2 2 4 3 3 4 3 4 3 2 3 2 0 -1 0 3 2 0 2 2 1 1 1 0
-1 -3 -9 -4 -4 -5 -5 -5 -4 -4 -4 -4 -3 -3 -1 1 0 1 2 3 3 4 4 4 3 4 4 4 2 0 -1 -1 -1 -0 -1 -1 -1 -1 0 2 1 1 1 0
-2 -8 -3 -3 -3 -4 -4 -4 -3 -2 -3 -3 -2 -1 0 1 1 3 2 2 3 4 4 4 3 3 4 2 0 -2 -2 -2 -2 -2 -2 -1 -0 -0 0 1 1 1 1 -0
-4 -10 -2 -3 -3 -3 -3 -2 -3 -3 -3 -3 -2 -2 -0 0 3 4 4 3 3 3 4 4 4 2 -0 -2 -2 -3 -3 -3 -2 -1 -1 0 -0 0 0 1 1 1 1 -1
-8 -10 -4 -3 -3 -3 -2 -2 -1 -2 -1 -2 -2 -1 0 4 3 4 3 3 2 3 4 4 4 3 -0 -2 -3 -3 -3 -2 -1 -1 -0 -0 -0 0 1 1 1 2 1 -1
-3 -8 -7 -4 -3 -3 -1 -2 -1 -1 -0 1 0 1 2 3 3 2 2 2 2 3 2 4 2 -0 -2 -3 -3 -3 -2 -1 -1 -0 1 1 0 1 1 2 2 1 1 -1
-5 -4 -4 -3 -3 -1 -1 -2 -2 -0 -0 -0 -0 0 2 3 2 2 2 2 1 -0 3 3 1 -2 -3 -2 -3 -3 -3 -2 -1 -1 1 1 1 1 0 1 1 0 -0 -2
-7 -5 -4 -3 -3 -2 -5 -4 -4 -1 -2 -1 -0 0 2 2 2 2 2 1 0 3 3 1 -2 -2 -2 -3 -3 -3 -3 -3 -2 -2 -1 1 2 2 1 1 0 0 1 -1
-8 -5 -5 -5 -4 -3 -3 -2 -2 -3 -2 -1 -0 1 1 1 2 1 2 3 3 2 0 -3 -2 -2 -4 -6 -7 -5 -4 -3 -3 -3 -2 -2 -1 1 1 1 2 2 2 -1
-6 -5 -5 -5 -4 -5 -3 -3 -3 -2 -2 -1 -1 0 2 2 2 2 2 2 1 -0 -2 -2 -2 -3 -4 -4 -10 -10 -7 -7 -6 -4 -3 -3 -2 -2 -2 -1 0 2 2 1
-5 -6 -5 -5 -5 -4 -4 -3 -3 -3 -2 -1 -0 2 2 1 2 1 -1 0 -1 -2 -2 -3 -2 -3 -3 -5 -13 -15 -16 -16 -16 -12 -6 -4 -3 -3 -3 -3 -2 -1 0 1

GFSNW_850_dewp_027.txt.gz
Dewpoint
-8 -19 -25 -34 -14 -3 -4 -3 -1 1 0 2 3 4 4 3 3 3 0 0 1 2 2 2 2 2 0 -1 -1 1 -1 1 3 3 -0 -1 -0 1 -1 1 0 1 1 -1
-2 -4 -20 -29 -28 -1 -1 -1 -1 1 0 4 4 2 2 3 3 2 2 0 0 -0 1 2 0 0 -1 -1 -1 0 -0 0 2 3 1 0 2 1 -1 -2 -1 2 2 -2
-1 -2 -10 -25 -30 -1 -1 0 -1 1 1 2 3 3 3 3 2 1 -1 -0 -1 -1 0 0 1 1 1 -1 -2 -1 -1 -0 -0 0 -1 1 3 2 -0 0 2 1 1 -1
-1 -1 -7 -21 -30 -1 -0 1 1 2 2 1 1 2 2 3 3 2 -0 -0 -1 -0 2 2 2 1 1 0 1 -0 -1 1 0 1 -0 1 1 2 1 1 0 1 -1 -0
-1 -1 -5 -15 -28 -10 -0 1 1 1 1 1 1 0 2 3 3 3 1 1 2 -0 1 -0 2 1 1 1 1 0 -0 3 1 0 1 2 3 2 1 1 1 1 1 1
-1 -2 -4 -5 -15 -23 -0 -0 0 1 0 -1 0 1 2 2 2 2 3 2 2 3 3 3 1 -1 -1 -0 1 1 1 3 -0 1 0 1 3 2 2 1 1 1 2 0
-1 -2 -4 -3 -3 -12 -9 -3 -0 0 0 -0 1 1 1 2 2 2 3 3 2 2 2 0 -1 -0 -0 -0 -0 -0 1 2 1 0 -0 2 -2 -1 -0 1 0 0 -0 -1
-2 -1 -1 -2 -3 -3 -9 -11 -4 -1 -1 -1 -0 0 1 2 1 2 3 4 3 3 2 1 2 3 2 2 2 1 0 2 3 2 2 -1 1 2 1 2 2 -1 -0 -1
-2 -1 -0 -2 -3 -5 -4 -7 -9 -4 -2 -3 -1 -1 0 2 0 0 3 4 4 3 2 2 3 3 2 4 5 2 1 1 2 2 3 3 -1 2 2 1 5 1 -0 0
-1 -2 -1 -1 -2 -3 -4 -4 -5 -8 -4 -4 -2 -1 0 2 2 -0 1 3 3 3 2 3 3 2 1 4 4 5 5 5 5 4 4 2 -2 -0 2 4 3 -0 1 2
-2 -1 -1 -1 -1 -3 -5 -4 -4 -4 -5 -9 -9 -6 -3 -2 1 2 1 2 2 2 3 4 3 2 3 2 2 2 3 5 4 2 3 3 -1 1 3 1 0 0 1 1
-1 -1 -1 -1 -1 -1 -3 -4 -3 -4 -4 -7 -7 -7 -6 -7 -7 -3 -0 3 1 2 1 1 1 3 2 3 4 1 4 1 3 2 1 -2 0 1 0 0 1 1 1 1
-1 -1 -2 -1 -1 -1 -3 -4 -3 -2 -2 -4 -4 -8 -7 -8 -8 -8 -2 0 4 3 2 1 1 3 2 4 3 2 2 1 2 2 1 0 -0 1 2 1 1 1 1 1
-1 -1 -1 -2 -1 -2 -3 -4 -2 -3 -4 -3 -5 -8 -9 -10 -5 -8 -8 -6 1 -0 2 3 3 2 1 1 1 2 1 1 2 2 1 1 1 2 2 2 1 2 2 1
-1 -1 -2 -1 -1 -3 -5 -5 -3 -3 -3 -3 -3 -5 -7 -7 -6 -6 -4 -6 -7 -4 0 4 3 1 1 1 1 2 1 2 4 4 1 2 1 2 2 2 2 2 2 1
-1 -1 -2 -2 -7 -3 -3 -3 -4 -4 -4 -4 -3 -6 -7 -9 -6 -7 -5 -6 -6 -3 -0 4 2 2 1 1 3 0 1 1 1 2 3 2 2 3 2 2 1 1 1 1
-1 -1 -2 -6 -3 -4 -3 -4 -4 -4 -4 -3 -5 -6 -8 -3 -3 -4 -3 -5 -4 -1 -1 3 3 3 2 2 3 1 1 1 2 1 0 0 2 2 2 1 1 2 1 0
-1 -1 -3 -4 -4 -4 -5 -5 -5 -3 -4 -4 -4 -6 -3 -1 -1 -3 -3 -3 -3 1 2 3 2 4 3 3 1 1 0 0 -0 -1 -1 -1 -2 -2 -2 -2 1 2 1 1
-2 -1 -10 -3 -2 -3 -4 -5 -4 -3 -3 -3 -3 -2 -2 -1 1 1 0 1 2 2 3 4 2 4 4 1 2 0 -0 -1 -1 -1 -2 -2 -0 -0 -0 -0 1 1 1 1
-3 -6 -3 -3 -3 -4 -4 -2 -3 -3 -3 -3 -3 -2 -1 -0 0 2 1 1 3 3 4 4 4 3 0 -1 -1 -1 -2 -3 -3 -2 -2 -0 1 0 0 1 1 1 1 1
-3 -5 -7 -4 -5 -5 -3 -2 -1 -2 -2 -2 -3 -2 -1 1 2 4 2 3 2 4 4 4 4 3 -1 -2 -2 -3 -3 -3 -2 -1 -0 0 0 0 1 1 1 1 2 2
-3 -4 -5 -4 -4 -3 -2 -2 -1 -1 -1 0 -0 0 -0 1 3 2 2 3 2 3 3 4 3 -0 -2 -3 -3 -3 -3 -2 -1 -1 0 1 1 1 1 1 1 2 2 1
-5 -4 -4 -3 -3 -2 -2 -2 -2 -0 -1 -1 -1 -1 1 2 2 2 2 2 2 -0 3 2 -1 -2 -3 -3 -3 -3 -3 -2 -2 -1 -0 1 2 1 1 0 -0 0 0 -0
-8 -5 -6 -4 -4 -2 -3 -3 -2 -2 -2 -2 -1 -0 1 1 2 2 2 1 0 2 2 -0 -2 -2 -3 -3 -3 -3 -3 -3 -3 -2 -2 -1 1 2 2 2 2 2 1 1
-7 -6 -8 -6 -5 -4 -4 -3 -2 -3 -2 -2 -2 -1 1 1 1 2 1 2 3 1 -0 -4 -2 -2 -4 -6 -7 -5 -5 -5 -4 -3 -3 -2 -2 -1 0 0 1 2 2 1
-7 -5 -6 -6 -5 -5 -4 -4 -3 -2 -2 -2 -2 -0 1 2 2 2 2 1 -0 -1 -5 -2 -2 -3 -5 -7 -10 -10 -11 -13 -13 -10 -7 -5 -4 -3 -2 -2 -1 0 1 1
-7 -6 -6 -5 -5 -5 -6 -4 -3 -4 -3 -2 -1 1 2 0 2 1 -1 -0 -1 -3 -1 -2 -2 -4 -4 -5 -12 -15 -18 -19 -20 -19 -16 -12 -8 -5 -4 -3 -3 -2 -1 0

GFSNW_850_dewp_030.txt.gz
Dewpoint
-6 -6 -2 -21 -30 -7 -3 -3 4 1 -0 4 4 5 3 3 3 3 -0 0 1 2 2 2 2 1 1 -1 -1 0 -1 2 4 3 -0 -1 -0 0 -2 1 3 1 1 -3
-7 -8 -3 -16 -28 -2 -1 -1 -1 1 -1 4 4 2 2 3 2 2 0 1 0 -0 1 2 1 1 -1 -1 -1 -0 -1 2 5 4 2 1 2 0 -1 -1 1 4 1 -2
-4 -5 -3 -13 -25 -5 -1 1 4 2 1 2 2 3 3 3 2 1 -1 0 -1 -1 0 -0 1 1 1 -1 -1 -1 -2 0 2 1 3 2 4 2 -0 1 3 1 -1 -2
-3 -3 -3 -13 -23 -14 -0 1 2 1 4 3 2 2 3 3 3 2 0 -0 -0 -1 1 1 1 1 0 -0 1 -0 -1 5 2 0 0 2 2 2 1 3 1 2 -2 -1
-1 -2 -3 -9 -21 -16 0 1 1 1 1 1 1 1 3 3 3 3 1 1 -0 -0 -0 -1 1 1 1 1 1 -0 -0 5 3 3 1 2 3 2 1 1 1 0 -1 -0
-2 -2 -2 -3 -9 -17 -6 -0 0 0 0 1 1 2 2 3 2 2 3 2 2 2 2 2 1 -1 -1 -1 0 1 1 4 3 4 0 1 3 1 1 1 0 0 2 -1
-2 -1 -1 -2 -5 -7 -11 -4 -1 -0 1 0 1 1 1 2 2 3 3 3 2 2 -0 -0 -0 -0 -0 -0 -0 -1 1 3 3 4 1 4 -0 -1 -1 0 -0 -0 -1 -1
-2 -2 -1 -1 -2 -5 -6 -10 -8 -0 -2 -1 -1 0 1 1 1 2 3 4 3 2 2 1 1 2 2 2 2 0 -1 1 4 4 3 0 -0 1 1 1 2 -1 -1 -2
-2 -2 -1 -1 -1 -3 -5 -5 -8 -7 -2 -4 -2 -2 -1 1 2 1 3 4 4 3 2 3 3 3 1 3 4 1 1 0 1 2 3 2 -0 2 1 0 5 0 -1 -1
-2 -2 -2 -1 -1 -1 -3 -4 -5 -5 -5 -7 -2 -2 -1 1 2 2 1 3 4 3 3 4 3 3 -0 3 4 5 4 4 3 3 2 -0 -3 1 2 4 4 0 1 2
-1 -1 -1 -1 -1 -1 -2 -4 -4 -5 -4 -7 -8 -6 -3 -5 -2 2 2 3 3 3 5 4 3 3 2 2 1 1 2 3 4 3 3 3 -1 1 1 1 0 0 1 1
-2 -1 -2 -1 -1 -1 -2 -3 -4 -3 -2 -4 -5 -5 -6 -7 -8 -3 -1 2 2 2 4 3 3 3 3 3 4 1 3 1 1 0 0 -3 -0 1 1 1 1 1 1 1
-2 -1 -1 -1 -1 -1 -1 -2 -3 -3 -2 -4 -4 -4 -7 -7 -7 -8 -6 -1 2 3 2 2 2 3 3 4 3 3 2 1 2 2 -0 -1 -1 1 1 1 1 1 1 1
-2 -2 -1 -2 -1 -2 -2 -2 -3 -4 -3 -3 -4 -5 -7 -9 -8 -7 -7 -5 -1 -3 -1 3 3 3 2 3 1 2 1 1 1 2 1 1 1 1 2 2 2 1 1 2
-1 -2 -2 -1 -2 -3 -6 -4 -3 -3 -2 -3 -4 -5 -7 -7 -7 -5 -6 -6 -4 -4 -2 1 4 2 2 1 1 2 1 2 2 2 1 1 1 2 2 2 2 2 2 1
-2 -1 -1 -2 -2 -4 -3 -3 -4 -5 -3 -3 -3 -5 -7 -8 -5 -7 -5 -5 -4 -3 -3 -1 2 2 2 4 3 0 0 1 1 1 1 2 2 1 1 3 2 1 1 1
-1 -1 -2 -2 -4 -3 -4 -4 -5 -3 -4 -4 -4 -5 -8 -6 -2 -3 -4 -3 -3 -4 -3 -1 2 3 2 3 3 -0 0 1 1 2 2 1 1 2 2 1 -1 -1 1 2
-1 -2 -2 -2 -4 -4 -4 -5 -5 -4 -3 -4 -4 -4 -4 -2 -2 -4 -4 -4 -4 -3 -2 0 2 3 3 4 1 1 1 1 1 1 1 -0 -1 -2 -2 -1 -1 -1 1 2
-3 -3 -3 -3 -2 -3 -4 -4 -3 -3 -3 -3 -4 -2 -1 -1 -0 -0 -2 -3 -3 -3 1 2 2 3 5 2 1 1 0 -0 -0 -0 -0 -2 -2 -1 0 -0 -0 -0 1 1
-3 -5 -4 -3 -3 -4 -6 -2 -3 -3 -3 -3 -3 -3 -1 -1 0 1 1 0 2 2 2 3 3 4 1 0 1 0 -0 -1 -2 -2 -2 -1 1 1 1 1 0 1 0 1
-3 -3 -7 -5 -4 -5 -3 -2 -2 -2 -2 -3 -2 -2 -1 -1 0 2 1 1 2 4 4 4 4 3 -0 -2 -2 -2 -2 -2 -2 -2 -1 0 1 2 1 1 1 1 1 1
-3 -4 -4 -4 -4 -3 -2 -2 -2 -1 -1 -1 -1 -0 -1 -0 2 3 3 3 3 4 3 4 4 1 -2 -2 -2 -2 -3 -3 -2 -1 -1 1 1 1 1 0 0 1 1 2
-5 -6 -5 -4 -3 -2 -2 -1 -1 -0 -1 -1 -2 -1 -0 1 2 2 2 3 3 1 3 3 1 -2 -3 -3 -3 -3 -3 -2 -2 -2 -1 0 2 1 1 1 -0 -1 0 0
-5 -8 -9 -4 -3 -2 -2 -3 -2 -2 -2 -2 -2 -2 -0 1 1 1 3 2 1 3 3 2 -0 -2 -3 -3 -3 -3 -3 -3 -3 -2 -2 -1 1 2 1 1 2 3 3 2
-5 -7 -8 -5 -5 -5 -4 -4 -4 -3 -3 -3 -2 -2 -1 1 1 2 2 2 2 1 1 0 -1 -2 -3 -4 -4 -4 -5 -5 -4 -4 -4 -3 -2 -2 -2 -1 -0 1 2 2
-5 -6 -5 -7 -5 -6 -5 -5 -5 -3 -3 -3 -3 -1 1 2 2 3 3 2 1 1 0 -2 -2 -2 -5 -8 -8 -8 -13 -16 -17 -14 -12 -10 -8 -6 -4 -3 -2 -2 -0 1
-6 -7 -7 -7 -7 -7 -7 -6 -4 -4 -4 -2 -2 -0 2 -0 3 2 1 1 1 -2 -2 -1 -2 -3 -5 -9 -11 -14 -17 -19 -20 -21 -20 -17 -14 -10 -7 -6 -4 -3 -3 -1

GFSNW_850_dewp_033.txt.gz
Dewpoint
-4 -7 -9 -4 -19 -28 -3 0 5 1 1 4 3 4 3 3 2 1 -0 -0 0 1 1 1 1 1 1 -1 -2 -0 -0 3 5 3 0 -1 -0 0 -0 2 4 0 1 -2
-4 -6 -7 -4 -18 -26 -1 2 2 1 0 4 2 2 2 2 1 1 -1 -0 -0 -1 0 2 1 0 -1 -1 -1 -1 -1 3 5 4 2 0 2 0 -0 -1 1 4 1 -1
-3 -5 -4 -5 -19 -23 -1 2 4 3 2 3 1 1 1 2 2 -0 -1 -1 -1 -1 -0 -1 1 1 0 -1 -1 -1 -2 0 3 3 5 2 3 2 0 1 4 0 -2 -2
-3 -3 -3 -5 -18 -16 1 2 2 2 4 2 2 2 2 2 2 1 -0 -0 -1 -1 -0 -1 -0 0 0 -1 0 -1 -1 6 3 -0 0 2 2 1 1 3 1 1 -3 -4
-2 -1 -2 -5 -16 -16 1 1 2 1 1 1 1 1 2 3 2 2 -0 0 -1 -2 -1 -2 -0 -0 -1 -0 -0 -1 -0 5 3 4 1 1 3 1 0 1 0 -1 -2 -2
-1 -2 -2 -2 -8 -18 -3 -1 0 1 1 1 1 2 2 3 2 2 2 1 -0 -0 -0 -0 -0 -2 -2 -2 -0 0 1 4 4 4 0 1 3 1 1 1 -0 -1 0 -2
-2 -2 -2 -1 -2 -7 -5 -9 -1 -0 0 -1 1 1 1 2 2 3 2 2 2 1 0 -0 -1 -1 -1 -1 -1 -2 1 3 4 5 2 5 1 -1 -2 -0 -1 -1 -2 -3
-2 -2 -3 -2 -2 -3 -5 -7 -6 -3 -4 -6 -3 -0 1 1 1 2 3 3 4 2 2 1 2 1 1 1 -0 -1 -2 0 3 4 3 -0 -3 -2 -0 1 1 -2 -1 -2
-2 -2 -2 -2 -1 -1 -3 -4 -9 -4 -5 -4 -3 -4 -2 1 1 1 2 4 4 3 2 2 2 3 0 2 2 0 -1 -1 2 1 3 2 0 0 -1 -1 5 -1 -2 -2
-2 -1 -2 -2 -1 -1 -2 -3 -4 -7 -4 -8 -5 -5 -2 -1 1 2 1 3 4 4 3 3 2 1 -1 1 2 3 3 2 3 2 2 -0 -3 2 1 5 4 1 0 1
-2 -2 -2 -2 -1 -2 -2 -2 -4 -4 -3 -4 -4 -6 -6 -8 -5 -0 2 3 3 4 4 3 2 1 0 -0 -0 1 1 2 2 1 2 3 -2 2 3 1 1 1 1 2
-2 -1 -2 -2 -2 -2 -1 -1 -3 -3 -3 -3 -5 -5 -5 -5 -6 -4 -2 1 2 3 4 2 1 0 0 1 2 -1 2 -1 0 -0 0 -3 -2 -2 1 1 1 2 2 2
-2 -1 -1 -2 -2 -1 -1 -1 -2 -2 -3 -3 -4 -3 -5 -8 -7 -5 -7 -5 1 1 0 3 3 3 0 2 1 1 -1 -2 1 -0 -2 -2 -2 1 1 1 2 2 2 1
-2 -1 -1 -1 -2 -2 -1 -4 -2 -3 -3 -2 -5 -6 -6 -5 -8 -7 -5 -7 -3 -3 -2 1 4 3 -1 0 -0 0 -0 0 1 0 -1 1 -0 -1 -0 2 2 1 1 1
-2 -2 -2 -2 -1 -2 -4 -3 -3 -3 -2 -3 -3 -4 -6 -7 -5 -7 -7 -4 -4 -4 -3 -0 3 2 2 1 1 1 0 1 2 1 -2 -1 -1 1 2 2 2 1 1 1
-2 -2 -1 -2 -1 -4 -4 -2 -6 -5 -5 -3 -4 -4 -4 -7 -7 -6 -4 -4 -4 -4 -4 -3 -2 0 3 3 1 -2 -2 -0 -0 -1 1 1 2 2 2 1 1 2 2 2
-2 -2 -2 -2 -2 -3 -4 -3 -5 -4 -3 -4 -4 -4 -5 -6 -2 -2 -3 -3 -3 -4 -3 -5 -4 -1 -0 4 2 -2 -1 -0 1 2 2 2 1 1 1 1 0 -1 -2 -1
-2 -2 -2 -4 -3 -3 -3 -4 -5 -4 -3 -4 -4 -3 -4 -3 -1 -3 -3 -4 -3 -4 -6 -6 -4 -4 -0 4 2 -0 0 0 1 1 1 0 1 0 -1 -1 -2 -1 -1 -1
-3 -3 -4 -2 -2 -3 -4 -4 -4 -3 -3 -3 -3 -2 1 -1 -1 -0 -3 -4 -4 -6 -4 -5 -5 -1 3 3 1 1 1 0 0 0 0 0 -0 -1 -1 1 1 0 -0 -1
-4 -4 -3 -2 -4 -4 -5 -2 -3 -3 -3 -3 -3 -2 -1 -1 -0 0 -0 -2 0 -2 -3 -2 1 2 2 2 1 1 -0 -0 -0 -1 -1 -2 -1 1 1 1 1 1 1 0
-3 -3 -3 -5 -5 -5 -3 -2 -2 -1 -2 -2 -2 -2 -1 -1 0 2 0 1 2 4 3 3 4 4 1 0 -0 -1 -1 -1 -1 -2 -2 -2 0 1 2 1 0 0 0 1
-3 -5 -5 -5 -3 -2 -2 -1 -1 -0 1 -1 -1 -1 -1 -1 -0 0 1 2 2 4 1 3 5 1 -2 -2 -2 -2 -2 -2 -2 -2 -1 0 1 1 1 1 1 -1 -1 1
-5 -8 -6 -3 -3 -1 -1 -2 -1 -1 -1 -1 -2 -2 -2 -0 1 2 2 3 4 1 4 3 2 -1 -2 -2 -2 -2 -3 -3 -2 -1 -1 0 1 1 1 1 1 1 -1 -1
-4 -6 -7 -2 -2 -2 -1 -2 -1 -1 -2 -2 -2 -3 -2 -0 1 2 3 2 2 3 3 2 1 -1 -2 -3 -3 -3 -3 -2 -2 -2 -1 -1 -1 1 1 1 1 2 2 2
-4 -5 -4 -4 -4 -4 -4 -5 -5 -4 -5 -2 -2 -2 -2 -0 1 2 2 3 2 -0 1 2 0 -2 -3 -3 -3 -3 -4 -4 -4 -4 -4 -3 -3 -3 -3 -2 -2 -1 -0 1
-4 -5 -3 -5 -4 -3 -4 -4 -3 -5 -3 -3 -2 -2 -0 1 2 3 4 3 3 2 3 -0 -2 -2 -4 -5 -5 -7 -11 -14 -14 -12 -13 -12 -10 -8 -7 -6 -4 -3 -3 -1
-4 -4 -5 -4 -4 -4 -5 -6 -5 -4 -3 -3 -2 -1 1 -1 2 2 1 3 2 0 -1 -1 -2 -2 -6 -8 -9 -12 -16 -18 -19 -21 -21 -20 -17 -15 -14 -14 -11 -8 -5 -4

GFSNW_850_dewp_036.txt.gz
Dewpoint
-5 -4 -6 -5 -11 -24 -7 3 5 1 1 5 3 5 3 2 1 1 -0 -0 1 0 0 0 1 2 1 -1 -2 0 0 3 6 6 1 0 3 4 3 6 4 1 2 -1
-4 -3 -3 -5 -17 -22 -3 3 2 2 0 5 3 2 1 1 1 0 -1 -0 -0 -1 -0 1 1 1 -1 -1 -0 0 -0 4 5 4 3 1 2 1 2 1 3 5 4 -1
-1 -2 -3 -6 -17 -14 -0 2 4 3 3 2 3 2 1 2 2 0 -1 -1 -1 -0 -0 -2 1 1 0 -1 -1 -2 -2 1 4 4 3 3 3 2 1 2 4 2 1 -1
-1 -3 -3 -4 -17 -7 2 1 2 1 5 3 2 2 2 2 3 1 -0 0 -1 -1 0 -1 0 1 1 -0 -1 -1 0 4 2 -0 1 3 3 2 2 2 3 2 -1 -3
-2 -3 -3 -3 -9 -7 -5 1 1 1 1 1 1 2 2 3 2 2 0 1 -1 -2 -1 -1 0 0 -1 -0 -0 -0 1 4 3 2 1 1 2 2 1 2 1 1 0 -1
-2 -3 -2 -2 -3 -15 -8 -4 -0 1 1 1 1 2 2 2 3 2 2 2 2 0 3 1 -0 -2 -2 -2 0 0 1 3 3 3 1 1 3 2 1 1 -0 0 1 -2
-3 -3 -2 -2 -2 -5 -7 -8 -1 -1 1 -1 1 0 1 2 2 3 2 3 2 1 -0 -1 -1 -1 -2 -1 -1 -1 1 3 4 4 2 4 1 -1 -1 0 -0 -1 -2 -2
-3 -1 -2 -2 -2 -2 -3 -7 -9 -3 -4 -8 -5 -3 -1 0 1 2 2 4 4 1 2 2 1 2 1 -0 -1 -1 -1 2 4 4 4 1 -1 -0 -0 1 1 -2 -1 -2
-2 -1 -2 -2 -2 -2 -2 -3 -4 -6 -4 -7 -7 -6 -7 0 1 1 2 4 4 3 4 3 3 5 1 3 3 0 -1 -1 2 3 4 4 3 -1 -1 -1 5 -0 -2 -1
-3 -2 -2 -2 -2 -2 -2 -1 -5 -3 -3 -6 -5 -4 -1 -2 -0 1 1 2 3 4 4 3 4 3 -1 2 1 3 3 2 3 4 2 1 2 1 0 6 5 -1 -2 -2
-3 -2 -2 -2 -2 -2 -2 -2 -2 -4 -3 -4 -3 -5 -6 -7 -8 -3 -2 2 3 3 4 4 4 3 1 -0 -1 1 2 3 4 3 3 3 2 2 4 2 1 1 1 2
-2 -2 -2 -2 -2 -2 -1 -1 -1 -2 -3 -5 -5 -5 -5 -5 -6 -5 -5 -2 -0 3 4 3 2 2 -1 0 2 -2 2 0 1 0 1 -2 -1 -0 1 1 1 1 2 2
-2 -2 -2 -2 -2 -2 -1 -1 -3 -2 -3 -4 -4 -4 -5 -6 -7 -5 -6 -6 -0 -1 -1 1 4 4 1 1 1 0 -1 -2 1 -0 -1 -2 -2 0 1 2 2 2 2 1
-1 -2 -2 -2 -2 -1 -3 -3 -3 -3 -3 -3 -4 -5 -5 -4 -4 -6 -6 -5 -5 -5 -4 -0 3 4 -0 1 0 1 0 -1 0 1 -1 0 -1 -1 1 1 1 1 1 1
-0 -2 -2 -2 -2 -2 -4 -5 -5 -4 -4 -3 -3 -4 -5 -7 -5 -5 -5 -4 -4 -4 -4 -2 -0 1 3 1 1 2 0 1 2 2 -1 -1 -1 -1 -0 1 2 2 1 1
-1 -2 -2 -2 -2 -3 -4 -2 -5 -6 -4 -3 -3 -5 -4 -6 -7 -6 -4 -4 -4 -4 -4 -4 -4 -3 1 3 2 -1 -2 -1 -0 -0 0 1 1 1 2 2 2 1 1 2
-2 -2 -2 -3 -4 -2 -3 -4 -5 -4 -4 -3 -3 -3 -4 -6 -3 -2 -3 -3 -3 -4 -4 -4 -4 -5 0 2 2 -0 -1 -2 -1 0 1 2 2 2 1 1 1 0 -1 -1
-2 -3 -3 -4 -3 -3 -3 -5 -4 -3 -4 -4 -3 -3 -3 -3 -1 -2 -3 -4 -3 -3 -4 -4 -5 -5 -4 -1 0 2 2 -0 0 1 2 1 1 1 0 -0 -1 -1 -1 -1
-3 -4 -4 -2 -3 -3 -4 -4 -4 -3 -3 -3 -3 -2 0 -0 -1 -1 -2 -4 -3 -6 -4 -5 -5 -4 -1 -2 -3 1 2 1 1 1 0 0 0 -0 -1 0 1 1 1 0
-4 -4 -2 -2 -5 -6 -5 -2 -2 -3 -3 -3 -3 -2 -1 -1 -1 0 -0 -1 -1 -1 -3 -4 -2 -2 -5 -4 1 1 0 0 0 0 -0 -1 -2 0 1 1 1 1 1 1
-3 -3 -3 -5 -5 -4 -3 -2 -1 -1 -1 -2 -2 -2 -1 -2 -0 1 0 1 1 2 1 -0 3 2 1 -0 0 -0 -0 -0 -1 -1 -1 -2 -0 1 1 1 1 1 1 0
-3 -6 -8 -5 -2 -2 -2 -2 -1 -1 1 -1 -0 -2 -2 -2 -1 -1 0 1 1 3 0 2 4 2 -0 -0 -1 -0 0 -1 -2 -2 -2 -1 0 1 2 2 1 1 -0 -1
-6 -8 -7 -3 -3 -4 -4 -3 -3 -1 -0 -1 -2 -2 -3 -2 -0 -0 2 3 3 1 3 4 2 -1 -2 -2 -2 -2 -2 -2 -2 -2 -1 -0 0 1 1 1 1 1 1 1
-4 -6 -9 -4 -3 -2 -2 -2 -2 -2 -3 -3 -3 -2 -3 -2 -0 1 2 3 2 3 3 3 -1 -1 -2 -2 -2 -3 -3 -2 -2 -2 -1 -1 -0 0 1 0 -1 -0 1 2
-3 -5 -5 -5 -4 -4 -5 -6 -7 -6 -5 -3 -3 -3 -2 -1 0 0 2 2 2 3 2 2 -0 -1 -2 -3 -3 -3 -3 -3 -3 -3 -3 -3 -3 -3 -4 -4 -4 -3 -2 -2
-4 -5 -4 -5 -6 -3 -4 -4 -5 -4 -6 -5 -3 -2 -1 0 1 2 2 3 3 3 0 0 -1 -1 -3 -4 -4 -6 -10 -12 -11 -12 -13 -14 -14 -14 -13 -12 -10 -8 -6 -4
-3 -4 -5 -4 -4 -5 -5 -6 -5 -5 -8 -4 -4 -2 -2 -3 0 2 1 2 1 1 1 1 -0 -1 -1 -6 -6 -10 -16 -17 -19 -20 -21 -21 -21 -20 -21 -22 -21 -16 -11 -8

GFSNW_850_dewp_039.txt.gz
Dewpoint
-1 -3 -5 -7 -18 -24 -4 3 4 2 1 4 3 1 3 2 2 1 1 -0 1 1 0 1 2 3 1 -1 -0 4 1 4 6 6 4 3 3 4 2 4 4 1 2 1
-2 -4 -5 -7 -17 -10 -0 2 2 3 3 5 2 1 2 2 2 1 0 0 -0 -1 -0 2 1 1 -1 -1 -0 0 0 3 5 6 5 3 5 4 4 2 2 3 2 -1
-4 -4 -5 -7 -19 -5 2 2 3 3 4 3 3 2 1 3 1 1 -1 -1 -1 -0 -1 -2 1 2 0 -1 -1 -2 -1 2 2 3 2 3 3 3 4 5 5 3 3 -2
-4 -4 -4 -5 -18 -9 0 1 2 1 4 2 1 2 3 2 3 2 -0 0 -0 0 -0 -0 1 1 1 -0 -1 -1 1 1 0 1 2 2 2 2 2 2 1 2 -0 -2
-4 -4 -3 -4 -8 -18 -14 -0 0 0 1 1 1 2 3 4 3 2 1 2 -1 -2 3 1 0 0 -0 0 -0 -0 0 2 1 -1 0 1 2 2 2 2 1 1 1 1
-3 -3 -3 -3 -4 -8 -13 -9 -1 1 0 -0 1 2 2 3 2 1 2 2 3 3 2 1 -0 -2 -2 -2 0 0 2 0 -0 1 1 1 1 1 1 1 1 0 2 -1
-2 -3 -3 -3 -3 -4 -4 -6 -4 -2 -1 -6 -3 -3 -0 1 1 2 2 3 2 1 1 0 -1 -1 -1 -1 -1 -1 2 2 -0 0 1 3 -3 -2 -1 -0 0 -0 -1 -2
-2 -2 -3 -3 -3 -3 -4 -5 -5 -4 -3 -6 -7 -5 -5 -3 0 2 3 4 3 2 2 2 2 2 0 0 -1 -1 0 2 2 2 2 0 0 -0 -0 1 1 -1 -1 -2
-3 -2 -2 -3 -3 -3 -3 -3 -5 -4 -4 -5 -7 -7 -3 -0 -0 2 3 3 3 3 3 3 4 5 2 4 3 -0 -0 -0 1 4 3 4 2 -1 -2 -1 3 -0 -2 -2
-3 -2 -2 -2 -2 -2 -2 -2 -2 -4 -3 -4 -4 -5 -2 -6 -5 -1 1 -1 2 3 3 3 3 3 -1 2 3 2 3 2 3 4 3 1 -2 -1 -0 5 3 -1 -2 -2
-2 -2 -2 -2 -2 -2 -2 -1 -1 -2 -3 -4 -4 -4 -5 -7 -6 -4 -4 0 3 3 3 3 2 2 0 0 -1 2 2 2 3 3 3 3 1 1 4 2 1 -1 -1 -2
-1 -2 -2 -2 -2 -2 -2 -1 -4 -2 -3 -5 -5 -4 -5 -6 -4 -6 -7 -4 -1 1 4 3 3 2 -1 0 2 -1 2 0 1 1 1 -3 1 0 1 1 1 2 1 2
-1 -2 -2 -2 -2 -2 -2 -4 -3 -2 -2 -4 -4 -4 -5 -7 -6 -5 -5 -4 -1 -2 -3 0 3 4 2 1 1 -0 -1 -2 -0 -0 -2 -2 -2 -1 1 1 1 1 2 1
-0 -2 -2 -2 -2 -2 -3 -5 -4 -2 -2 -3 -5 -4 -4 -5 -5 -4 -6 -4 -4 -5 -5 -4 1 3 2 2 1 1 -0 -1 -0 -0 -1 -1 -1 0 1 1 1 2 2 1
-1 -2 -2 -2 -2 -3 -4 -6 -6 -6 -5 -4 -5 -3 -4 -7 -6 -5 -5 -6 -5 -4 -4 -3 -2 -0 1 1 1 1 0 1 1 1 -1 -1 -2 -1 0 0 1 1 1 1
-2 -2 -2 -2 -3 -3 -3 -2 -3 -5 -5 -3 -3 -5 -4 -6 -7 -5 -5 -4 -4 -4 -4 -4 -5 -4 -0 1 0 -4 -4 -2 -0 -1 -1 -0 -0 -1 -0 1 2 2 1 1
-3 -2 -2 -3 -3 -3 -4 -5 -5 -4 -4 -4 -4 -4 -4 -4 -2 -2 -3 -3 -3 -4 -4 -4 -5 -5 -2 -1 -2 -4 -3 -1 0 0 1 2 2 2 2 2 1 1 1 -1
-4 -4 -4 -3 -3 -4 -4 -4 -5 -4 -4 -4 -4 -3 -3 -1 -1 -1 -3 -3 -3 -3 -4 -3 -4 -5 -5 -3 -5 -6 -7 -3 -0 2 1 1 2 1 1 1 0 -0 -1 -0
-5 -5 -3 -3 -4 -3 -4 -3 -3 -4 -4 -3 -3 -2 -2 -2 -1 -0 -2 -3 -3 -5 -3 -4 -5 -5 -3 -4 -5 -6 -4 0 0 1 1 1 1 0 -0 -0 0 1 1 1
-6 -4 -3 -3 -6 -5 -4 -3 -3 -3 -3 -4 -4 -3 -2 -2 -1 -0 -0 -2 -2 -2 -4 -5 -4 -3 -6 -6 -6 1 -0 -1 0 0 0 -0 -0 -0 0 1 1 1 1 1
-6 -5 -4 -6 -5 -3 -3 -2 -2 -2 -2 -2 -2 -2 -2 -3 -1 -0 0 -0 -1 1 -1 -1 0 2 1 0 -2 -0 -0 -0 1 1 -1 -1 -0 0 1 1 1 1 1 0
-7 -10 -10 -6 -3 -2 -6 -7 -3 -3 -2 -1 -1 -2 -3 -3 -2 -1 -1 1 1 1 -0 1 3 2 -1 -0 -0 -0 -0 1 1 0 -1 -1 0 1 2 2 2 2 1 1
-6 -9 -8 -4 -3 -8 -9 -7 -7 -6 -2 -2 -3 -4 -4 -3 -1 -0 1 2 3 1 2 4 2 -0 -2 -2 -1 -1 -1 -1 -1 -0 -0 -1 0 1 1 1 1 1 1 1
-6 -6 -10 -8 -8 -8 -7 -7 -7 -3 -3 -5 -4 -3 -3 -3 -1 0 2 2 1 2 1 2 1 -0 -1 -2 -2 -3 -3 -2 -1 -1 -1 -1 -1 -0 -0 -1 -2 -2 -2 -1
-4 -5 -8 -9 -5 -4 -4 -5 -7 -7 -7 -5 -3 -3 -3 -2 -1 -0 1 2 2 2 2 1 -0 -1 -1 -3 -3 -3 -4 -3 -3 -3 -3 -3 -3 -4 -6 -8 -8 -7 -5 -4
-4 -5 -6 -5 -6 -6 -5 -5 -6 -5 -6 -4 -2 -3 -2 -1 -0 0 2 3 2 0 -0 0 0 -1 -1 -1 -3 -6 -10 -12 -10 -11 -5 -9 -12 -13 -15 -17 -19 -16 -11 -10
-4 -4 -4 -4 -3 -4 -5 -5 -6 -5 -7 -6 -4 -6 -5 -5 -2 -1 0 1 -1 -0 -1 -1 -1 -1 -1 -1 -2 -6 -14 -15 -16 -12 -14 -14 -16 -21 -22 -22 -22 -21 -21 -18

GFSNW_850_dewp_042.txt.gz
Dewpoint
-5 -5 -5 -11 -21 -15 -0 3 2 3 2 4 2 1 2 2 1 1 1 -0 0 1 0 1 2 3 2 3 2 5 2 4 6 6 5 3 4 4 3 6 4 1 1 0
-5 -4 -5 -14 -19 -6 -1 2 3 4 4 2 1 1 2 2 2 1 0 0 -0 -1 -0 2 1 1 -0 2 1 3 1 4 5 6 5 4 6 5 3 2 2 1 1 -2
-5 -4 -5 -12 -19 -13 0 1 2 2 4 3 3 2 1 3 1 1 -0 -1 -1 -1 -1 -0 2 2 -0 -1 -1 -1 -0 2 1 3 2 4 5 5 4 3 3 3 2 -1
-4 -5 -5 -9 -16 -20 -0 0 1 1 3 2 1 2 2 3 3 1 0 0 -0 -0 0 0 2 1 1 -0 -1 -1 -1 1 0 1 2 2 2 3 4 5 4 5 2 2
-4 -5 -6 -6 -8 -15 -13 -1 -0 0 1 1 1 2 3 4 3 2 2 2 2 1 3 1 1 1 0 0 -0 -0 -0 2 -1 -1 0 1 2 2 3 4 4 4 1 1
-3 -4 -5 -5 -6 -7 -6 -6 -1 1 -1 -3 2 2 2 3 2 2 2 3 2 2 1 1 1 -1 -2 -2 -0 0 1 0 -1 -0 1 1 1 1 1 2 1 2 2 -1
-3 -3 -4 -4 -5 -5 -5 -5 -6 -4 -3 -4 -4 -6 -4 -4 0 2 2 3 2 2 2 1 -1 -1 -1 -1 -1 -1 1 0 -2 -1 -0 1 -2 -2 -2 0 0 -0 -1 -2
-3 -2 -3 -4 -4 -4 -4 -4 -5 -5 -5 -6 -9 -7 -5 -2 -0 1 3 3 3 2 2 1 1 2 1 0 -1 -0 -0 1 1 2 1 -0 -0 -0 -0 0 -0 -2 -0 -2
-3 -2 -3 -3 -4 -4 -4 -3 -3 -4 -5 -5 -4 -6 -2 -2 -1 1 3 2 3 3 3 3 3 3 1 3 2 -1 -0 -0 1 3 3 4 -0 -1 -2 -2 2 -1 -1 -2
-2 -2 -2 -2 -2 -3 -3 -2 -4 -4 -3 -3 -4 -4 -4 -5 -7 -4 -1 -4 1 2 2 3 3 1 0 3 3 3 3 2 4 3 4 1 -2 -1 -1 3 1 1 -1 -2
-1 -2 -2 -2 -2 -2 -2 -3 -4 -4 -3 -5 -4 -5 -4 -6 -5 -4 -5 -0 1 2 3 2 2 2 0 -0 -1 1 1 2 3 3 4 2 -1 1 3 1 1 0 -1 -2
-1 -2 -2 -2 -2 -2 -3 -4 -3 -3 -3 -4 -4 -4 -5 -4 -5 -4 -6 -5 0 1 3 3 3 4 0 -0 2 -1 1 -0 1 1 1 -3 -1 0 -0 1 1 1 0 -1
-1 -2 -2 -2 -3 -2 -3 -5 -5 -4 -4 -5 -5 -5 -4 -5 -5 -5 -5 -4 -2 -2 -4 -0 2 3 2 2 0 -0 -2 -2 -0 -0 -2 -2 -3 0 0 1 1 1 1 1
-2 -2 -2 -3 -2 -3 -4 -6 -6 -6 -3 -4 -4 -4 -4 -3 -3 -4 -5 -4 -4 -4 -5 -5 -1 2 1 2 1 1 -1 -1 -1 -0 -1 -1 -1 -2 -2 0 1 1 1 1
-4 -4 -3 -2 -3 -4 -4 -6 -6 -5 -6 -5 -5 -3 -5 -6 -6 -5 -4 -6 -5 -4 -5 -3 -3 -2 -1 -2 0 -0 -1 0 1 1 -2 -2 -2 -2 -2 0 0 1 1 1
-6 -5 -5 -4 -4 -3 -4 -2 -4 -5 -5 -4 -3 -6 -3 -4 -5 -5 -5 -4 -4 -4 -4 -4 -4 -5 -2 -1 -1 -3 -7 -6 0 1 -0 0 0 -1 -2 0 1 1 1 1
-5 -5 -5 -4 -4 -6 -6 -5 -5 -5 -5 -5 -5 -3 -4 -3 -2 -2 -3 -4 -4 -4 -4 -3 -4 -5 -2 -2 -1 -8 -9 -10 -8 -7 -2 1 1 1 -0 1 1 2 1 1
-5 -6 -5 -6 -6 -7 -5 -4 -3 -4 -4 -4 -7 -4 -3 -1 -1 -1 -3 -3 -3 -3 -4 -4 -3 -4 -5 -3 -6 -8 -8 -7 -6 -3 -2 1 1 2 2 2 2 1 0 -0
-6 -5 -4 -6 -6 -7 -5 -4 -3 -4 -4 -4 -5 -4 -3 -3 -2 -1 -1 -3 -2 -4 -3 -3 -5 -5 -4 -5 -6 -6 -5 -1 1 0 0 1 1 1 1 0 0 0 0 1
-6 -5 -6 -6 -7 -5 -4 -3 -2 -2 -3 -4 -5 -3 -5 -3 -2 -1 -0 -2 -3 -2 -3 -5 -4 -4 -7 -2 -0 -1 -2 0 -0 -0 -1 0 0 1 0 0 1 1 1 1
-7 -7 -9 -6 -4 -3 -3 -3 -3 -2 -3 -2 -2 -2 -3 -4 -2 -1 -1 0 -1 -0 -0 -2 -3 -0 1 -0 -1 -1 -1 -1 1 1 0 -0 0 0 1 1 1 1 1 0
-10 -11 -8 -5 -3 -3 -6 -7 -4 -4 -4 -2 -2 -2 -3 -3 -2 -1 -1 -0 0 0 -1 -0 1 1 -0 -1 -2 -1 -1 -1 -0 -0 0 -0 0 1 1 1 1 1 1 1
-9 -10 -8 -4 -4 -10 -12 -11 -9 -8 -3 -3 -3 -5 -4 -4 -2 -1 0 1 2 0 2 3 1 -0 -1 -1 -2 -2 -2 -2 -1 -1 -1 -1 -0 1 1 1 0 0 1 1
-7 -7 -12 -9 -9 -9 -8 -9 -9 -4 -3 -6 -5 -4 -3 -3 -3 -1 1 -0 2 2 2 1 -2 -1 -0 -1 -2 -3 -3 -3 -2 -2 -1 -1 -1 -1 -1 -2 -3 -4 -4 -3
-7 -7 -8 -9 -6 -3 -3 -4 -7 -7 -7 -6 -4 -4 -3 -4 -3 -3 -0 2 2 -0 -1 -2 -2 -0 -1 -1 -2 -3 -7 -7 -4 -3 -3 -3 -2 -2 -5 -8 -10 -12 -11 -9
-6 -6 -7 -5 -6 -8 -4 -5 -5 -6 -6 -6 -3 -4 -4 -3 -2 -2 -2 0 -2 -2 -2 -2 -1 -1 -0 -1 -1 -2 -6 -13 -12 -10 -4 -4 -8 -13 -16 -19 -21 -19 -16 -13
-5 -5 -5 -5 -4 -4 -5 -5 -6 -5 -6 -7 -6 -7 -6 -5 -3 -2 -3 -2 -5 -2 -3 -4 -5 -5 -4 -2 -3 -2 -2 -9 -10 -7 -6 -5 -9 -8 -7 -16 -22 -21 -20 -20

GFSNW_850_dewp_048.txt.gz
Dewpoint
-8 -7 -7 -9 -17 -10 2 3 2 3 3 3 2 -1 1 2 1 1 1 -0 0 1 4 5 3 4 3 3 3 3 1 2 6 7 5 3 3 3 2 3 2 1 0 1
-8 -7 -6 -7 -12 -19 0 2 3 3 3 3 1 -0 2 2 1 1 -0 -0 -1 -1 0 3 2 1 1 3 2 2 2 4 5 5 5 4 6 5 3 1 1 1 3 3
-8 -7 -7 -8 -8 -18 -1 1 0 2 3 3 2 3 2 2 1 1 -0 -0 -2 -2 0 0 2 2 1 2 1 1 0 2 1 3 1 3 5 5 4 3 6 4 3 2
-7 -7 -7 -8 -8 -13 -4 -0 1 1 -0 2 1 1 3 3 2 1 1 1 1 -0 0 1 2 1 0 0 2 2 1 1 1 1 0 3 4 3 4 5 4 5 3 3
-7 -7 -8 -8 -8 -8 -9 -3 -1 1 -2 -2 1 0 3 3 3 2 3 4 2 1 2 1 2 1 0 1 -1 1 -1 2 -1 -1 -0 2 3 2 3 4 4 4 4 4
-6 -6 -7 -8 -8 -8 -7 -3 -0 -0 -5 -3 2 -3 -0 -1 0 2 3 4 1 2 2 3 2 -0 -1 -2 -0 1 0 -0 -1 -0 -0 -0 1 0 1 3 3 3 5 3
-6 -6 -6 -7 -8 -8 -7 -6 -8 -4 -5 -7 -7 -5 -5 -2 -1 2 2 3 2 3 3 1 -1 -1 -1 -1 -1 -1 -1 -1 -2 -2 -1 0 -2 -4 -2 -0 -0 2 2 2
-6 -6 -6 -7 -6 -7 -7 -6 -5 -8 -5 -6 -7 -4 -3 -2 -1 0 3 0 2 3 2 0 1 1 1 -0 -1 -0 -2 -1 0 0 0 -1 -3 -1 -1 -1 -1 -2 -0 -0
-6 -5 -6 -6 -6 -7 -9 -9 -6 -5 -6 -4 -4 -5 -4 -4 -4 -0 -1 -1 1 2 1 1 2 2 1 2 2 -0 -0 -1 0 2 2 3 -4 -1 -2 -2 1 -3 -1 -1
-5 -5 -5 -5 -6 -7 -8 -9 -9 -5 -4 -4 -4 -5 -5 -6 -6 -4 -4 -5 -0 1 1 3 3 2 -0 3 2 2 3 3 3 2 3 1 -2 -2 -2 2 -1 -0 1 1
-5 -5 -4 -5 -7 -7 -8 -7 -8 -7 -4 -4 -4 -5 -5 -6 -6 -5 -6 -1 -1 0 2 2 1 2 -0 -0 -0 1 2 2 2 3 3 2 -3 -0 1 -1 0 0 1 1
-4 -4 -4 -5 -7 -7 -7 -7 -7 -6 -5 -4 -5 -5 -4 -5 -5 -6 -6 -4 -1 -1 1 1 0 2 1 -1 1 -2 1 -1 0 0 0 -3 -3 -1 -2 -1 -1 1 1 1
-5 -4 -4 -4 -6 -7 -7 -8 -6 -6 -5 -5 -5 -4 -5 -5 -5 -5 -5 -5 -3 -3 -3 -1 0 1 1 1 0 -1 -2 -2 -0 -1 -2 -2 -1 -2 -1 -1 -1 -0 1 1
-4 -4 -4 -5 -5 -7 -6 -7 -8 -7 -6 -5 -4 -5 -5 -5 -5 -4 -4 -5 -4 -4 -5 -5 -3 -0 -1 0 -0 0 -0 -1 -0 -1 -2 -2 -2 -2 -3 -3 -3 1 1 1
-4 -4 -5 -5 -5 -7 -6 -7 -6 -6 -5 -5 -4 -4 -4 -4 -5 -5 -4 -4 -5 -5 -5 -4 -4 -4 -3 -3 -3 -2 -4 -3 -1 -1 -3 -5 -6 -8 -8 -7 -4 -1 1 1
-4 -4 -5 -6 -7 -6 -6 -5 -6 -6 -6 -6 -5 -4 -4 -3 -3 -3 -4 -4 -4 -4 -4 -4 -4 -5 -4 -3 -3 -5 -5 -6 -6 -5 -5 -3 -3 -5 -6 -2 -3 -4 1 2
-4 -5 -6 -7 -6 -5 -5 -6 -6 -7 -6 -5 -5 -4 -4 -2 -2 -2 -3 -4 -4 -4 -4 -4 -5 -5 -3 -2 -2 -7 -6 -3 -1 -1 -1 -1 -1 -0 -2 -1 -1 -2 0 2
-5 -6 -7 -6 -5 -5 -6 -6 -6 -6 -6 -6 -10 -8 -3 -4 -2 -1 -2 -3 -3 -3 -3 -4 -3 -4 -5 -4 -5 -1 -1 -1 -1 -2 -1 -1 -0 0 0 0 1 1 1 1
-7 -7 -7 -6 -6 -5 -4 -4 -5 -6 -6 -5 -5 -5 -7 -4 -3 -2 -1 -2 -3 -4 -3 -4 -4 -4 -2 -1 -1 -1 -2 -2 -2 -2 -2 -1 -1 -1 -0 -0 0 1 1 0
-9 -8 -8 -7 -5 -5 -5 -5 -5 -4 -5 -4 -4 -4 -5 -4 -4 -3 -1 -2 -2 -4 -3 -4 -3 -3 -4 -3 -0 -0 -1 -2 -2 -2 -2 -2 -1 -1 -1 -1 -0 1 1 1
-8 -9 -7 -5 -4 -5 -4 -4 -5 -4 -5 -3 -3 -3 -6 -4 -5 -4 -2 -1 -1 -3 -1 -2 -1 -1 -4 -2 -1 -1 -2 -2 -4 -2 -2 -3 -2 -2 -2 -1 -1 -0 0 0
-9 -8 -5 -5 -4 -5 -9 -10 -7 -7 -8 -3 -3 -3 -5 -4 -3 -1 -1 -2 -1 -1 -2 -1 -1 -4 -6 -2 -1 -3 -2 -3 -6 -6 -2 -2 -2 -2 -2 -2 -1 -1 -0 -0
-8 -9 -6 -7 -8 -11 -16 -12 -10 -10 -5 -4 -6 -7 -5 -4 -3 -2 -1 1 1 -1 -0 -1 -4 -5 -6 -4 -6 -7 -5 -3 -3 -8 -8 -3 -3 -3 -2 -2 -2 -2 -2 -2
-10 -11 -10 -9 -10 -10 -10 -10 -9 -7 -5 -6 -5 -5 -4 -3 -4 -3 -1 -2 -1 -0 -2 -4 -6 -7 -5 -5 -7 -7 -7 -6 -3 -4 -7 -9 -4 -3 -3 -3 -3 -7 -8 -7
-10 -11 -10 -9 -6 -4 -6 -4 -6 -6 -6 -6 -5 -5 -5 -5 -4 -3 -4 -3 -1 -4 -6 -7 -6 -6 -9 -8 -9 -9 -9 -8 -7 -3 -3 -4 -7 -4 -3 -3 -4 -16 -15 -16
-10 -8 -8 -7 -7 -6 -5 -6 -7 -7 -5 -5 -5 -6 -7 -5 -4 -4 -5 -3 -3 -6 -8 -7 -9 -9 -8 -10 -12 -13 -12 -11 -9 -6 -3 -2 -3 -4 -4 -4 -5 -8 -8 -17
-10 -9 -10 -8 -8 -9 -7 -7 -6 -6 -5 -8 -7 -10 -9 -7 -4 -4 -4 -3 -6 -5 -9 -10 -10 -11 -11 -12 -12 -10 -9 -8 -8 -10 -7 -3 -3 -4 -4 -4 -4 -4 -7 -19

GFSNW_850_dewp_051.txt.gz
Dewpoint
-8 -8 -8 -8 -11 -11 1 2 3 3 3 3 2 1 0 2 1 1 1 -0 1 4 4 1 3 3 3 3 2 3 1 3 6 7 4 3 3 2 1 3 3 1 1 2
-8 -8 -8 -8 -8 -18 2 2 3 3 3 2 0 -0 1 2 1 0 -0 -0 -1 -0 4 4 2 2 2 2 1 2 2 2 6 6 4 3 6 4 2 1 1 2 4 2
-8 -8 -8 -8 -8 -13 -0 2 0 3 3 3 2 2 2 2 1 1 -0 -0 -2 -2 1 0 2 2 3 2 2 1 0 1 1 3 1 3 5 5 4 2 3 3 3 2
-8 -8 -8 -8 -9 -11 -2 -0 -0 1 3 2 1 1 2 3 2 0 2 0 1 -0 1 1 2 1 2 2 3 1 0 2 1 1 0 3 3 3 5 5 4 5 2 2
-8 -8 -8 -8 -9 -9 -8 -3 -0 0 -2 -2 1 0 2 3 2 3 3 3 1 1 2 1 2 1 1 3 0 4 -0 3 -1 0 -0 2 3 2 3 4 4 4 4 4
-8 -8 -7 -8 -9 -8 -10 -1 -0 -2 -5 -3 1 -3 -2 -1 0 2 3 4 1 3 3 3 2 0 -1 -1 0 1 1 1 1 1 -0 -0 1 0 1 2 3 3 5 2
-8 -7 -7 -8 -8 -9 -9 -8 -2 -4 -5 -7 -5 -4 -4 -1 -0 2 2 2 2 3 3 1 -1 -1 -1 -1 -1 -1 -1 -1 -2 -2 -2 -1 -4 -5 -2 -0 -1 1 2 1
-7 -7 -7 -7 -8 -9 -8 -7 -10 -7 -5 -7 -5 -4 -3 -2 -1 1 2 -1 1 2 1 0 1 1 0 -0 -1 -1 -2 -1 0 1 0 -2 -2 -1 -1 -1 -1 -3 -1 -2
-8 -7 -7 -7 -8 -10 -10 -8 -7 -9 -5 -4 -4 -5 -5 -4 -3 -0 -2 -3 1 1 1 1 2 3 1 3 2 -0 -1 -1 1 2 2 2 -4 -2 -2 -3 1 -3 -2 -0
-8 -7 -5 -6 -7 -9 -8 -8 -7 -5 -4 -4 -5 -5 -5 -6 -6 -4 -4 -4 -1 0 1 3 3 1 -1 2 2 2 3 3 3 3 4 1 -3 -2 -2 1 -0 -1 1 1
-8 -6 -5 -7 -7 -7 -8 -8 -8 -6 -5 -4 -5 -5 -5 -6 -7 -3 -6 -2 -1 -0 2 2 1 1 -1 -0 -1 1 2 2 3 3 4 1 -3 -1 1 -0 -1 -1 0 1
-7 -4 -4 -8 -7 -7 -8 -8 -7 -7 -6 -4 -5 -4 -4 -5 -5 -5 -5 -2 -1 -1 2 1 -0 1 0 -1 0 -3 1 -1 -0 0 -1 -3 -2 -2 -1 -4 -5 -3 -2 0
-7 -4 -6 -7 -7 -7 -8 -8 -7 -6 -5 -4 -5 -5 -5 -5 -4 -5 -6 -5 -3 -3 -3 -1 0 0 -0 1 -0 -0 -2 -1 -0 -1 -2 -4 -6 -3 -7 -7 -7 -7 -5 -3
-6 -4 -6 -7 -7 -7 -8 -7 -7 -6 -5 -5 -4 -4 -4 -5 -5 -5 -5 -5 -5 -5 -5 -5 -3 -1 -1 -0 -1 -0 -1 -3 -3 -3 -2 -5 -4 -4 -2 -3 -4 -4 -6 -6
-5 -5 -5 -6 -6 -6 -6 -7 -7 -6 -6 -4 -4 -4 -4 -4 -3 -4 -4 -5 -6 -6 -6 -4 -4 -5 -4 -4 -4 -4 -4 -6 -5 -4 -5 -5 -5 -4 -2 -2 -1 -1 -1 -6
-5 -4 -5 -5 -6 -6 -6 -6 -5 -5 -5 -4 -4 -4 -4 -3 -2 -4 -5 -5 -5 -5 -5 -4 -4 -5 -3 -3 -4 -6 -6 -2 -4 -3 -2 -1 -2 -1 -2 -0 -0 -0 0 -1
-5 -4 -6 -6 -6 -6 -5 -6 -7 -7 -6 -5 -5 -5 -3 -3 -2 -3 -3 -4 -4 -5 -4 -3 -4 -5 -4 -2 -3 -5 -3 -1 -1 -1 -2 -2 -2 -2 -1 -1 -1 -1 -0 -0
-4 -5 -5 -4 -5 -6 -6 -6 -6 -7 -8 -9 -10 -9 -4 -5 -3 -2 -2 -3 -3 -4 -4 -4 -3 -3 -4 -3 -6 -2 -1 -1 -2 -2 -2 -2 -2 -1 -1 -1 -1 -1 -0 0
-4 -5 -4 -5 -5 -5 -6 -7 -8 -7 -8 -8 -7 -10 -10 -5 -5 -2 -2 -3 -4 -4 -4 -4 -4 -3 -2 -3 -3 -2 -1 -1 -2 -3 -3 -3 -3 -2 -2 -2 -2 -1 -0 1
-6 -6 -7 -6 -5 -5 -5 -5 -5 -5 -8 -6 -6 -4 -7 -5 -5 -3 -2 -2 -2 -5 -3 -3 -3 -2 -4 -4 -2 -2 -2 -3 -3 -4 -4 -3 -3 -3 -3 -2 -2 -1 -1 -0
-6 -8 -5 -5 -5 -5 -6 -7 -6 -6 -7 -4 -4 -4 -6 -5 -6 -5 -2 -3 -4 -5 -4 -2 -4 -3 -4 -5 -7 -7 -7 -5 -4 -4 -6 -7 -3 -3 -3 -3 -2 -2 -1 -1
-8 -7 -5 -5 -5 -8 -10 -10 -8 -7 -8 -3 -4 -4 -5 -5 -3 -3 -2 -3 -2 -4 -3 -4 -3 -5 -8 -8 -6 -8 -9 -8 -7 -4 -4 -6 -7 -5 -4 -3 -3 -2 -2 -2
-6 -7 -7 -9 -10 -11 -16 -11 -9 -9 -5 -3 -5 -8 -5 -4 -4 -3 -3 -2 -2 -2 -1 -4 -5 -6 -10 -7 -5 -6 -9 -10 -10 -9 -6 -5 -4 -5 -6 -4 -4 -3 -3 -3
-11 -11 -8 -8 -9 -10 -10 -9 -9 -7 -5 -6 -6 -5 -5 -4 -4 -3 -4 -4 -0 0 -3 -5 -8 -6 -10 -11 -11 -11 -12 -12 -12 -12 -10 -7 -4 -3 -3 -4 -4 -4 -3 -12
-12 -13 -8 -8 -7 -6 -7 -6 -6 -6 -6 -6 -5 -5 -5 -6 -5 -4 -4 -5 -2 -2 -6 -8 -7 -11 -11 -11 -11 -12 -13 -12 -10 -8 -8 -9 -9 -5 -3 -3 -4 -4 -4 -6
-10 -10 -7 -6 -6 -6 -5 -7 -7 -7 -6 -6 -6 -7 -9 -6 -5 -5 -5 -7 -7 -7 -9 -9 -11 -11 -11 -12 -12 -13 -11 -9 -9 -7 -7 -8 -8 -8 -4 -3 -4 -4 -5 -5
-11 -9 -9 -10 -10 -8 -7 -8 -7 -6 -6 -8 -8 -10 -10 -7 -5 -5 -5 -6 -7 -5 -9 -10 -11 -11 -11 -11 -12 -11 -10 -10 -10 -11 -10 -9 -9 -10 -8 -5 -3 -4 -4 -4

GFSNW_850_dewp_054.txt.gz
Dewpoint
-6 -9 -9 -8 -9 -2 2 2 3 2 3 4 2 3 1 1 2 2 2 3 2 2 -0 -2 2 2 3 2 2 2 1 3 6 7 4 2 1 1 1 3 5 2 2 -2
-8 -9 -9 -9 -8 -8 2 3 3 3 3 3 2 1 1 2 1 0 0 1 3 3 3 3 2 3 2 3 1 2 1 4 6 7 5 3 4 3 1 1 2 4 3 -0
-9 -9 -9 -9 -9 -13 2 2 3 3 3 3 2 3 3 2 1 1 -0 -1 -2 1 1 1 3 3 3 2 2 1 0 2 3 3 4 3 5 4 3 3 5 2 2 0
-9 -9 -8 -9 -9 -9 1 0 1 2 3 3 1 2 3 2 2 0 1 1 1 -0 2 2 2 2 3 2 3 1 1 5 3 0 1 3 3 3 4 5 4 4 2 0
-9 -8 -8 -8 -9 -8 -2 -1 1 0 -1 -1 1 1 2 3 3 3 2 2 1 -0 1 1 2 2 2 4 3 3 1 5 2 2 0 2 3 2 2 3 3 3 3 3
-9 -8 -8 -9 -9 -8 -8 -5 -1 -1 -4 -2 1 -0 -1 0 1 2 3 3 1 3 3 3 2 0 -0 -0 3 4 4 3 3 3 -0 -0 1 -1 -0 1 2 2 3 -0
-8 -8 -8 -8 -8 -9 -8 -3 -1 -3 -3 -3 -3 -3 -2 0 1 2 1 1 2 2 2 1 -1 -1 -1 -1 -1 -1 1 1 1 3 0 1 -3 -5 -3 -2 -2 -2 -1 -1
-8 -8 -8 -8 -9 -9 -8 -5 -3 -5 -5 -5 -4 -3 -2 -1 0 2 1 -1 1 2 1 0 1 1 1 0 -1 -1 -2 -1 2 3 1 -2 -0 -1 -1 -1 1 -2 -0 -1
-8 -8 -8 -9 -10 -10 -8 -8 -10 -6 -5 -4 -4 -5 -4 1 -0 1 -1 -3 0 1 1 1 2 3 1 3 2 -1 -1 -2 -0 1 3 2 -3 -3 -2 -2 1 -1 -0 0
-8 -8 -8 -8 -9 -9 -9 -8 -10 -7 -4 -3 -5 -5 -5 -6 -4 -1 -4 -4 -1 0 2 3 3 2 -1 2 2 2 2 2 3 2 2 -1 -2 -2 -2 2 2 -1 -2 -2
-9 -8 -8 -8 -8 -7 -8 -7 -7 -7 -4 -3 -5 -5 -5 -6 -6 -1 -5 -1 -1 1 3 2 2 1 0 0 -0 1 1 2 2 2 2 1 -4 -1 1 -1 -5 -6 -6 -4
-9 -7 -8 -7 -7 -9 -9 -8 -7 -7 -7 -4 -4 -5 -6 -7 -6 -6 -2 -1 -1 -0 1 0 0 2 1 0 1 -2 2 -0 1 0 0 -2 -5 -2 -4 -4 -4 -4 -5 -3
-9 -8 -8 -7 -8 -9 -9 -8 -8 -8 -5 -4 -4 -5 -5 -5 -5 -6 -6 -4 -2 -2 -2 -0 -1 1 -0 1 1 1 -1 -3 -1 -2 -2 -4 -4 -2 -4 -4 -3 -3 -2 -1
-8 -8 -6 -7 -8 -9 -9 -8 -6 -5 -5 -3 -4 -4 -4 -4 -4 -4 -6 -5 -3 -5 -6 -4 -1 -0 -2 -0 -1 -2 -3 -6 -5 -5 -6 -4 -4 -3 -3 -2 -2 -2 -1 -0
-7 -7 -7 -7 -7 -7 -7 -6 -6 -6 -6 -3 -3 -4 -4 -3 -4 -4 -5 -6 -6 -6 -4 -3 -3 -4 -4 -5 -4 -4 -6 -3 -2 -2 -4 -3 -3 -2 -1 -1 -2 -1 -1 -1
-6 -7 -6 -6 -7 -7 -7 -6 -6 -6 -6 -4 -2 -4 -3 -3 -4 -5 -5 -6 -6 -6 -4 -4 -4 -4 -3 -5 -6 -6 -5 -3 -2 -2 -2 -1 -1 -2 -1 -2 -2 -2 -1 -1
-7 -6 -6 -6 -5 -5 -6 -6 -6 -5 -5 -5 -3 -3 -4 -2 -2 -3 -4 -4 -4 -4 -3 -3 -4 -5 -3 -3 -4 -5 -3 -1 -0 -1 -1 -2 -2 -2 -2 -2 -1 -2 -2 -1
-6 -6 -6 -6 -6 -6 -6 -7 -7 -6 -9 -12 -3 -5 -4 -4 -2 -2 -2 -3 -4 -4 -3 -3 -3 -3 -3 -2 -4 -4 -2 -1 -1 -1 -2 -3 -3 -3 -3 -3 -2 -2 -2 -1
-6 -6 -6 -6 -6 -6 -6 -7 -8 -9 -11 -10 -7 -4 -4 -5 -4 -3 -2 -3 -3 -4 -4 -4 -4 -3 -1 -4 -4 -3 -2 -2 -2 -2 -3 -4 -4 -3 -3 -2 -3 -2 -2 -1
-6 -7 -6 -5 -5 -7 -7 -7 -6 -8 -10 -10 -5 -5 -4 -5 -4 -3 -2 -2 -2 -1 -4 -3 -3 -2 -4 -5 -5 -3 -2 -4 -4 -2 -3 -5 -6 -4 -4 -3 -3 -3 -3 -2
-8 -8 -5 -4 -5 -7 -8 -8 -7 -8 -5 -5 -5 -5 -4 -4 -3 -3 -3 -3 -3 -1 -2 -2 -2 -2 -4 -7 -8 -8 -8 -8 -7 -6 -5 -4 -4 -5 -5 -5 -4 -3 -3 -3
-9 -6 -5 -6 -7 -10 -7 -7 -7 -6 -5 -3 -4 -3 -5 -4 -3 -3 -2 -2 -2 -1 -3 -2 -1 -2 -7 -11 -10 -8 -7 -9 -10 -11 -11 -10 -8 -5 -5 -4 -5 -4 -4 -3
-7 -8 -9 -11 -12 -8 -10 -9 -6 -4 -4 -4 -5 -5 -4 -4 -3 -3 -3 -1 -2 -2 -1 -2 -3 -6 -11 -12 -13 -13 -13 -13 -13 -13 -10 -10 -9 -9 -6 -4 -4 -3 -4 -4
-10 -10 -7 -6 -7 -9 -8 -7 -5 -7 -5 -7 -7 -5 -4 -4 -4 -3 -3 -4 -1 -1 -0 -1 -4 -8 -11 -12 -12 -12 -13 -12 -12 -10 -9 -8 -8 -8 -8 -8 -5 -4 -3 -4
-13 -13 -7 -6 -7 -7 -7 -6 -6 -6 -7 -7 -5 -5 -5 -4 -5 -5 -5 -4 -3 -3 -1 -4 -9 -12 -12 -12 -12 -12 -12 -12 -12 -10 -11 -12 -13 -10 -9 -9 -9 -6 -4 -4
-11 -10 -6 -6 -7 -6 -5 -6 -6 -7 -7 -7 -7 -6 -5 -5 -5 -5 -4 -4 -3 -3 -4 -10 -11 -11 -12 -12 -12 -12 -12 -12 -10 -10 -15 -17 -17 -16 -13 -10 -9 -9 -5 -4
-12 -8 -10 -9 -10 -9 -8 -8 -8 -7 -7 -5 -7 -7 -7 -6 -5 -5 -5 -4 -4 -5 -7 -7 -8 -12 -11 -11 -11 -12 -11 -11 -11 -16 -11 -7 -8 -14 -17 -16 -10 -10 -7 -4

GFSNW_850_dewp_057.txt.gz
Dewpoint
2 -6 -9 -9 -9 -4 2 4 3 2 2 4 2 4 2 2 2 2 3 3 2 -2 -4 -2 -0 2 2 1 1 2 1 3 5 4 3 2 1 1 1 3 4 0 1 -1
1 -7 -9 -9 -9 -3 2 3 2 2 3 5 2 1 1 1 1 1 1 3 2 2 0 1 1 2 1 2 1 2 1 4 7 6 3 2 3 2 1 -0 3 4 3 -2
-0 -9 -9 -9 -9 -9 2 3 3 3 3 3 2 2 2 2 1 0 -0 -1 1 1 1 1 2 3 2 2 1 0 1 1 3 4 4 1 3 1 1 1 5 2 1 -1
-2 -9 -9 -9 -9 -11 1 2 1 1 3 2 1 2 2 1 1 1 -0 -0 -0 -0 2 2 2 2 3 2 2 1 1 6 3 0 2 3 3 1 1 4 3 3 -0 -0
-4 -9 -9 -9 -9 -9 1 -1 -0 1 1 1 2 2 2 1 2 2 1 1 -0 -1 0 1 2 2 3 3 2 2 1 5 3 4 0 1 3 1 1 2 2 2 1 1
-7 -9 -9 -9 -9 -8 -1 -4 -2 -0 -1 1 1 1 1 2 2 2 2 1 1 2 3 2 1 -0 1 0 2 3 3 3 4 4 -0 -0 1 -1 -0 1 -0 0 2 -1
-8 -9 -9 -9 -9 -8 -6 -8 0 -2 -0 0 -0 -1 0 1 2 2 1 1 1 2 1 1 -1 -1 -1 -1 -0 1 3 3 3 4 1 3 -3 -4 -4 -2 -3 -3 -2 -1
-8 -8 -9 -9 -8 -9 -8 -6 -1 -3 -1 -2 -2 -1 0 1 2 2 1 -1 -0 1 1 0 1 1 0 -0 -1 -1 -2 0 2 4 1 -3 -0 -1 -1 -1 2 -1 -0 -1
-8 -8 -9 -9 -9 -9 -8 -5 -3 -3 -3 -3 -3 -1 0 1 1 1 -1 -2 0 2 1 1 3 3 2 2 2 -1 -2 -2 -0 -0 1 0 -1 -3 -2 -2 1 -1 -2 -3
-8 -9 -9 -9 -10 -9 -8 -4 -6 -3 -4 -4 -4 -2 -1 -1 -1 0 -2 -2 0 1 2 2 1 2 -1 2 4 2 1 1 3 2 2 -1 -3 -2 -2 2 1 -4 -5 -5
-8 -9 -8 -8 -9 -9 -8 -9 -7 -4 -4 -3 -3 -4 -4 -4 -4 -0 -3 -1 -0 1 3 3 2 1 -0 0 -0 0 1 2 1 0 2 2 -5 -1 0 -2 -3 -3 -3 -4
-8 -9 -9 -8 -8 -8 -8 -8 -8 -7 -4 -3 -5 -6 -7 -5 -5 -4 -2 -0 -0 0 1 0 1 1 0 -1 1 -2 1 -1 0 -0 1 -3 -4 -4 -3 -3 -3 -3 -3 -3
-9 -8 -8 -7 -9 -8 -8 -7 -7 -8 -4 -4 -4 -4 -6 -5 -6 -6 -3 -2 -2 -1 -0 -0 -1 1 -0 -0 -1 -0 -1 -3 -0 -2 -2 -3 -5 -4 -3 -3 -2 -2 -2 -2
-8 -8 -7 -8 -9 -9 -8 -8 -8 -5 -3 -4 -3 -4 -4 -4 -4 -6 -7 -4 -3 -3 -2 -2 -0 -0 -1 -1 -1 -1 -3 -6 -5 -6 -8 -4 -4 -3 -3 -1 -2 -2 -2 -2
-7 -7 -7 -9 -9 -8 -8 -6 -5 -6 -2 -4 -3 -3 -3 -4 -4 -4 -6 -4 -4 -4 -3 -3 -3 -4 -4 -5 -6 -6 -7 -5 -4 -4 -2 -3 -3 -2 -1 -2 -2 -2 -2 -1
-6 -6 -8 -10 -9 -8 -6 -6 -6 -7 -9 -4 -2 -3 -2 -4 -3 -4 -5 -6 -4 -3 -4 -4 -4 -4 -2 -4 -6 -6 -5 -4 -2 -2 -1 -1 -1 -1 -2 -2 -2 -2 -1 -2
-6 -7 -8 -9 -7 -6 -6 -4 -6 -5 -5 -4 -2 -3 -4 -3 -2 -2 -2 -3 -3 -3 -3 -3 -4 -4 -3 -3 -4 -7 -4 -2 -2 -1 -1 -2 -2 -2 -3 -2 -2 -2 -2 -2
-7 -7 -7 -7 -7 -6 -5 -6 -5 -6 -11 -10 -0 -2 -4 -3 -2 -2 -2 -3 -3 -2 -3 -3 -3 -3 -3 -1 -4 -4 -4 -3 -3 -2 -3 -3 -3 -4 -4 -3 -3 -3 -3 -2
-7 -6 -6 -6 -6 -7 -6 -6 -6 -11 -14 -5 -2 -1 -2 -4 -2 -2 -2 -2 -2 -3 -3 -4 -3 -3 -1 -3 -5 -6 -4 -3 -3 -3 -3 -3 -4 -4 -4 -5 -3 -4 -4 -3
-6 -6 -7 -7 -7 -7 -8 -10 -8 -11 -11 -11 -4 -3 -3 -3 -3 -3 -3 -2 -3 -1 -3 -3 -3 -2 -4 -5 -5 -5 -4 -4 -4 -4 -4 -4 -5 -4 -5 -5 -5 -4 -4 -4
-7 -9 -5 -6 -7 -8 -9 -7 -3 -6 -3 -4 -4 -4 -4 -4 -2 -3 -3 -3 -3 -0 -1 -2 -1 -2 -5 -5 -6 -5 -5 -6 -6 -6 -5 -5 -5 -5 -5 -5 -6 -6 -5 -4
-10 -9 -6 -5 -7 -10 -4 -4 -4 -3 -3 -3 -4 -4 -4 -3 -2 -4 -2 -2 -2 -1 -3 -2 -1 -2 -6 -8 -11 -11 -9 -8 -10 -10 -11 -9 -7 -6 -6 -7 -8 -8 -7 -7
-10 -13 -10 -10 -11 -4 -3 -5 -4 -3 -3 -4 -5 -4 -4 -3 -3 -3 -3 -2 -2 -2 -1 -2 -2 -7 -9 -9 -14 -14 -14 -14 -14 -14 -14 -11 -10 -10 -11 -11 -10 -9 -9 -7
-12 -10 -6 -1 -4 -5 -4 -3 -1 -3 -3 -4 -4 -4 -4 -4 -3 -4 -2 -4 -2 -2 -2 -2 -5 -8 -11 -13 -12 -11 -10 -12 -13 -13 -13 -10 -10 -15 -19 -19 -19 -17 -12 -9
-13 -9 -4 -4 -6 -5 -5 -5 -4 -4 -4 -6 -4 -4 -4 -4 -4 -5 -4 -4 -3 -3 -3 -2 -5 -11 -11 -11 -11 -11 -11 -12 -12 -12 -11 -10 -16 -15 -9 -8 -10 -16 -18 -13
-11 -8 -5 -6 -5 -4 -4 -3 -4 -7 -6 -7 -5 -4 -4 -4 -4 -4 -4 -4 -3 -3 -2 -4 -10 -9 -8 -10 -12 -13 -12 -12 -12 -11 -10 -13 -13 -7 -8 -9 -8 -10 -16 -16
-9 -5 -8 -6 -7 -4 -5 -5 -6 -8 -5 -3 -4 -5 -5 -5 -4 -4 -6 -4 -4 -4 -6 -9 -10 -11 -11 -12 -12 -12 -12 -12 -11 -11 -13 -11 -10 -10 -11 -12 -14 -15 -16 -16

GFSNW_850_dewp_060.txt.gz
Dewpoint
8 7 -2 -9 -9 -5 1 3 4 3 2 4 4 4 2 1 2 3 2 3 2 -1 -3 -1 0 4 2 1 1 2 2 3 6 6 5 2 3 2 1 5 4 2 2 0
8 6 -5 -9 -9 -5 2 2 2 3 3 5 3 2 2 1 1 2 3 2 2 1 -1 1 1 2 1 2 2 3 1 4 5 5 3 2 4 2 2 2 3 4 4 1
7 5 -5 -9 -9 -2 3 2 2 3 3 3 3 2 1 2 1 0 -1 1 1 1 -0 1 2 3 2 2 2 0 1 2 4 5 4 2 3 2 2 2 4 3 3 0
7 4 -7 -9 -9 -2 3 2 2 1 3 2 2 2 1 1 2 0 -0 0 0 0 2 1 1 1 2 2 1 1 2 5 2 1 2 3 3 2 1 3 3 3 1 -0
7 2 -7 -9 -9 -2 2 1 1 1 1 0 1 2 2 1 2 3 0 1 -0 -1 2 2 2 2 1 2 2 2 1 4 3 3 0 1 3 2 1 2 2 2 2 2
6 1 -7 -8 -9 -9 1 0 -1 -0 1 1 2 2 1 2 2 2 2 0 1 3 3 0 0 -0 0 0 2 2 2 3 3 3 -1 -0 1 -1 1 1 0 0 3 -0
5 -5 -8 -8 -9 -10 -2 -3 -1 0 1 1 0 0 0 2 2 2 1 1 2 1 0 -0 -1 -1 -1 -0 1 1 3 3 3 3 1 2 -2 -3 -3 -2 -1 -1 -1 0
3 -2 -8 -8 -9 -7 -5 -7 -1 -1 0 -1 -1 0 1 2 1 1 0 -0 0 1 1 1 2 1 1 0 -1 -1 -1 2 3 4 2 -1 -0 -1 -1 0 2 -1 -0 -2
1 -5 -8 -8 -8 -7 -6 -8 -2 -3 -1 -1 -1 0 1 2 1 1 -1 -1 1 2 2 2 4 3 1 2 2 -2 -1 -2 1 0 2 1 0 -2 -2 -2 3 -3 -4 -4
-3 -7 -8 -8 -8 -8 -7 -8 -3 -3 -3 -3 -3 -1 0 -0 -0 1 -1 -1 1 1 3 3 2 3 -1 3 3 2 1 1 2 2 2 1 -3 -3 -2 2 1 -3 -3 -3
-2 -3 -8 -8 -9 -8 -8 -5 -3 -4 -3 -3 -3 -4 -3 -2 -3 0 -3 -0 0 2 3 3 2 2 -0 0 0 0 2 1 2 2 4 2 -4 -2 0 -2 -3 -3 -2 -2
-1 -4 -7 -9 -9 -8 -6 -5 -4 -5 -3 -2 -4 -4 -3 -3 -3 -2 -1 -0 0 0 2 1 1 1 0 -0 1 -2 1 0 2 0 1 -3 -5 -5 -3 -3 -2 -1 -2 -2
-4 -5 -6 -9 -9 -8 -8 -8 -6 -5 -4 -4 -4 -4 -5 -6 -5 -3 -2 -2 -1 -1 0 0 0 1 0 1 1 -0 -1 -4 -0 -3 -2 -4 -5 -3 -3 -2 -2 -2 -2 -2
-5 -5 -6 -8 -8 -8 -8 -8 -7 -6 -5 -3 -3 -3 -4 -4 -7 -8 -3 -2 -2 -2 -2 -1 0 0 -1 -0 -1 -1 -3 -5 -4 -5 -3 -4 -3 -3 -2 -2 -2 -2 -2 -2
-4 -4 -6 -8 -8 -8 -8 -8 -6 -5 -4 -3 -3 -3 -4 -4 -5 -6 -3 -3 -4 -4 -2 -1 -2 -4 -3 -5 -5 -5 -6 -5 -4 -1 -1 -1 -2 -2 -2 -2 -3 -2 -2 -2
-4 -5 -8 -9 -7 -7 -7 -6 -6 -7 -7 -4 -2 -2 -3 -3 -4 -5 -5 -4 -4 -3 -3 -3 -4 -4 -2 -3 -4 -6 -4 -4 -3 -2 -2 -1 -1 -2 -3 -3 -3 -3 -3 -3
-5 -6 -8 -7 -6 -6 -6 -5 -7 -7 -10 -8 -2 -3 -3 -3 -2 -2 -2 -4 -4 -3 -3 -3 -4 -3 -3 -2 -2 -6 -5 -2 -2 -2 -2 -3 -3 -3 -4 -5 -5 -5 -6 -4
-5 -6 -7 -7 -6 -6 -6 -7 -6 -12 -12 -8 -3 -4 -3 -2 -3 -2 -2 -3 -2 -3 -2 -3 -3 -3 -3 -1 -4 -4 -4 -3 -3 -3 -3 -4 -4 -4 -6 -8 -7 -8 -8 -8
-5 -8 -7 -6 -6 -6 -6 -6 -9 -17 -18 -5 -1 -3 -3 -3 -3 -2 -2 -2 -2 -4 -2 -3 -3 -2 -2 -2 -3 -6 -4 -4 -4 -6 -9 -9 -7 -8 -8 -7 -7 -6 -7 -7
-6 -6 -7 -7 -6 -6 -7 -9 -14 -15 -13 -10 -3 -4 -4 -3 -3 -3 -3 -3 -2 -2 -2 -3 -2 -2 -3 -5 -5 -5 -6 -7 -7 -8 -9 -9 -10 -9 -9 -8 -8 -7 -7 -8
-6 -7 -6 -6 -7 -10 -11 -8 -5 -5 -2 -4 -4 -4 -4 -3 -2 -3 -3 -3 -3 -2 -1 -2 -1 -2 -4 -5 -5 -7 -6 -6 -7 -10 -11 -11 -10 -9 -8 -9 -11 -13 -12 -11
-7 -9 -6 -8 -10 -11 -5 -3 -4 -3 -3 -3 -4 -4 -3 -3 -3 -4 -3 -3 -3 -1 -3 -2 -2 -2 -6 -8 -10 -11 -12 -14 -15 -14 -14 -14 -13 -11 -9 -10 -15 -18 -18 -18
-9 -12 -9 -10 -10 -2 -6 -6 -4 -3 -3 -4 -5 -4 -4 -3 -3 -4 -4 -3 -2 -2 -1 -2 -2 -6 -9 -10 -12 -12 -13 -12 -13 -14 -14 -13 -13 -11 -11 -17 -12 -7 -8 -8
-13 -13 -9 -4 -4 -2 -1 -1 -2 -2 -3 -3 -5 -4 -3 -4 -3 -4 -4 -3 -3 -3 -3 -4 -5 -8 -10 -12 -10 -12 -13 -13 -13 -12 -13 -13 -13 -11 -15 -14 -8 -9 -11 -12
-12 -10 -6 -3 -5 -4 -3 -4 -4 -4 -4 -7 -4 -4 -4 -4 -4 -4 -4 -5 -5 -4 -4 -4 -6 -11 -11 -8 -10 -13 -14 -15 -14 -13 -12 -12 -12 -13 -14 -11 -10 -10 -11 -12
-11 -9 -5 -4 -5 -4 -3 -4 -4 -5 -5 -6 -7 -5 -6 -4 -5 -5 -6 -5 -5 -5 -4 -4 -7 -10 -8 -9 -13 -14 -13 -12 -11 -11 -11 -12 -13 -12 -11 -10 -10 -12 -13 -15
-7 -5 -9 -5 -5 -4 -5 -7 -7 -8 -6 -4 -4 -8 -5 -5 -5 -5 -5 -6 -5 -5 -6 -9 -10 -11 -13 -14 -13 -12 -12 -12 -12 -12 -11 -10 -10 -10 -12 -12 -13 -14 -14 -14

GFSNW_850_dewp_063.txt.gz
Dewpoint
8 8 7 5 -5 -0 2 2 3 2 2 3 3 4 3 1 2 2 2 3 3 2 -2 0 3 5 3 1 2 2 3 3 6 5 5 3 3 3 2 4 3 2 2 -1
6 8 7 4 -5 -0 2 3 3 2 3 3 2 2 2 2 2 2 3 2 1 1 1 2 3 3 2 2 2 3 2 4 6 5 3 2 4 3 2 2 3 3 2 -0
5 8 7 4 -7 -0 2 1 3 2 3 3 3 2 3 3 1 1 1 2 2 1 1 0 2 3 2 2 1 1 1 2 1 3 4 3 4 3 2 2 3 3 3 -0
5 8 6 -0 -8 1 2 1 1 1 3 2 2 2 2 3 2 1 -0 0 2 1 2 1 3 2 3 2 1 1 2 3 1 2 2 2 2 2 2 3 2 3 1 1
5 7 4 -1 -8 2 3 2 2 1 1 1 2 2 2 2 3 2 1 1 1 1 3 3 2 1 1 2 2 2 1 2 1 1 0 1 2 2 1 2 2 2 1 1
4 7 5 -2 -3 2 3 1 0 1 1 1 1 2 1 3 2 2 1 1 3 3 2 0 -0 -0 0 1 2 2 2 1 1 2 -1 -1 1 0 0 1 1 2 3 1
3 6 5 -3 -3 1 0 -1 -0 -0 2 1 2 1 2 2 2 2 0 1 2 1 0 -1 -1 -0 -0 0 0 1 2 2 0 0 -0 -0 -2 -3 -3 1 1 0 0 -1
3 5 6 -4 -6 0 -1 -2 -1 -1 0 -0 0 1 2 1 0 0 -0 -0 0 1 1 1 1 1 1 0 -1 -1 1 2 2 2 1 -1 -0 -1 -1 0 2 -2 -2 -3
3 2 1 -6 -7 -3 -1 -4 -2 -2 -1 -2 -2 1 2 2 1 0 -2 0 0 2 2 2 3 3 1 2 2 -2 -1 -1 1 1 2 2 -1 -2 -2 -2 3 -4 -3 -3
2 2 0 -6 -7 -5 -4 -5 -2 -2 -3 -3 -2 -0 1 0 0 0 -1 -0 1 2 2 2 2 2 -0 3 2 2 1 1 1 1 1 1 -3 -4 -1 1 -0 -3 -2 -2
2 1 -2 -6 -7 -6 -5 -6 -3 -3 -3 -3 -3 -2 -1 -2 -1 -0 -2 -0 0 1 2 2 2 1 -0 1 1 1 1 1 2 2 4 3 -5 -3 0 -2 -2 -2 -2 -2
2 -0 -3 -5 -6 -6 -4 -6 -3 -4 -3 -3 -3 -2 -2 -2 -2 -2 -1 -1 0 1 1 1 0 1 0 -0 2 -2 1 -0 1 0 0 -4 -4 -2 -2 -2 -2 -2 -2 -2
2 -0 -4 -7 -7 -6 -6 -4 -4 -4 -4 -4 -5 -5 -5 -4 -3 -2 -1 -1 -1 -0 -0 -0 -0 1 -0 0 0 -0 -1 -4 -0 -1 -3 -4 -2 -2 -2 -2 -2 -2 -2 -2
1 -0 -5 -7 -6 -6 -5 -4 -4 -5 -5 -4 -4 -4 -5 -6 -6 -3 -2 -2 -2 -1 -1 -1 -1 0 -1 -1 -1 -1 -2 -5 -4 -4 -3 -3 -2 -2 -3 -3 -4 -4 -3 -3
0 -0 -2 -7 -6 -7 -6 -5 -6 -6 -6 -3 -3 -3 -3 -4 -6 -4 -3 -3 -3 -3 -3 -3 -2 -3 -4 -5 -6 -4 -5 -5 -4 -5 -2 -3 -2 -2 -3 -5 -5 -6 -4 -4
-0 -1 -2 -6 -7 -6 -6 -5 -5 -5 -7 -4 -3 -3 -3 -3 -5 -4 -4 -4 -4 -3 -3 -3 -4 -4 -3 -4 -4 -6 -4 -4 -4 -2 -2 -2 -2 -5 -4 -5 -5 -7 -7 -7
-0 -2 -4 -6 -5 -5 -7 -7 -6 -7 -10 -6 -3 -3 -3 -2 -3 -3 -5 -6 -4 -5 -3 -3 -4 -4 -3 -3 -3 -5 -4 -2 -2 -2 -4 -4 -3 -5 -5 -6 -7 -8 -8 -8
-2 -2 -5 -4 -5 -5 -5 -5 -7 -10 -11 -9 -7 -6 -4 -2 -3 -3 -2 -3 -3 -3 -3 -3 -4 -4 -3 -2 -4 -4 -3 -3 -4 -4 -5 -6 -7 -8 -10 -11 -11 -10 -10 -9
-3 -4 -5 -6 -6 -6 -7 -13 -16 -18 -16 -3 -5 -5 -6 -3 -3 -3 -3 -2 -3 -4 -3 -3 -3 -3 -3 -4 -3 -4 -4 -5 -4 -7 -11 -11 -12 -12 -13 -12 -11 -9 -11 -12
-4 -5 -5 -6 -6 -6 -9 -9 -15 -16 -13 -10 -5 -4 -6 -3 -3 -4 -3 -3 -1 -4 -3 -4 -3 -2 -3 -5 -4 -4 -6 -11 -12 -14 -14 -14 -15 -15 -15 -14 -12 -10 -13 -18
-5 -5 -6 -6 -7 -9 -11 -9 -8 -6 -5 -5 -3 -4 -4 -2 -4 -4 -4 -3 -3 -2 -2 -2 -2 -2 -4 -5 -7 -8 -10 -11 -13 -14 -14 -14 -14 -14 -13 -13 -12 -11 -17 -11
-6 -7 -6 -8 -11 -11 -8 -5 -5 -5 -5 -3 -5 -3 -3 -3 -3 -4 -4 -4 -4 -2 -3 -3 -2 -2 -6 -6 -8 -10 -13 -14 -14 -14 -14 -14 -14 -13 -13 -11 -10 -15 -8 -9
-6 -8 -10 -8 -10 -8 -14 -7 -6 -5 -3 -4 -4 -5 -4 -4 -4 -4 -5 -5 -4 -3 -1 -3 -4 -5 -8 -11 -13 -13 -13 -14 -14 -14 -13 -13 -13 -13 -12 -11 -14 -13 -10 -10
-13 -13 -10 -10 -10 -6 -3 -5 -6 -3 -5 -5 -5 -3 -4 -4 -4 -5 -7 -3 -4 -5 -5 -5 -7 -7 -10 -12 -11 -11 -12 -14 -14 -13 -12 -12 -12 -12 -13 -14 -13 -11 -11 -11
-11 -11 -13 -6 -4 -3 -3 -3 -3 -4 -6 -8 -5 -4 -5 -6 -6 -5 -6 -6 -7 -6 -5 -6 -5 -9 -11 -10 -8 -11 -13 -14 -14 -13 -12 -12 -13 -12 -12 -11 -11 -11 -12 -12
-11 -8 -6 -4 -4 -3 -4 -4 -4 -5 -7 -8 -9 -6 -7 -5 -6 -7 -7 -7 -7 -7 -7 -3 -7 -11 -11 -8 -11 -14 -13 -13 -13 -12 -12 -12 -13 -13 -14 -16 -16 -16 -15 -15
-7 -5 -6 -4 -5 -4 -5 -5 -6 -7 -9 -6 -7 -9 -8 -6 -7 -6 -7 -7 -8 -4 -4 -5 -6 -9 -10 -13 -14 -13 -14 -14 -14 -14 -14 -15 -17 -17 -17 -17 -18 -16 -16 -15

GFSNW_850_dewp_066.txt.gz
Dewpoint
2 3 6 6 4 -0 2 2 2 1 2 3 3 4 3 1 1 1 2 2 2 1 -2 2 4 4 3 1 1 3 2 3 5 5 3 3 3 3 1 2 2 2 0 -1
1 2 4 5 0 -0 2 3 2 2 3 3 3 2 3 1 2 3 3 2 1 1 1 3 3 3 2 2 2 3 1 3 2 3 2 2 4 3 2 2 2 4 1 -0
1 2 3 2 2 0 0 1 2 2 3 2 3 3 3 3 1 2 2 2 1 1 1 0 3 3 3 1 1 1 1 2 1 2 2 3 4 3 2 2 3 3 3 -1
2 3 3 3 1 1 2 0 1 1 2 2 2 1 2 3 3 1 -0 1 2 1 1 1 3 3 3 2 1 1 1 2 0 2 2 2 2 3 3 2 2 3 1 1
0 4 3 3 1 3 1 2 1 1 1 1 2 2 2 2 3 1 1 1 0 0 2 1 2 2 1 2 1 1 1 2 0 1 0 0 2 1 2 2 2 2 1 2
1 1 3 3 2 3 2 2 1 -0 1 1 2 2 2 3 2 1 1 1 2 2 1 0 -1 -0 0 1 2 2 1 1 0 3 -0 -1 1 -1 1 1 1 1 3 1
3 2 3 2 2 3 2 1 1 0 2 1 1 1 2 3 1 2 0 1 1 2 -0 -0 -0 -0 -1 -1 -1 1 2 1 -1 -1 -2 0 -3 -3 -1 1 0 -0 -1 -2
2 3 3 2 2 3 -0 -0 -0 -1 1 0 1 2 2 1 0 -0 -0 0 0 0 -1 0 1 1 1 0 -1 -1 0 1 1 1 0 -1 -1 -1 -1 0 0 -4 -3 -3
1 2 2 1 1 3 -1 -1 -1 -1 -0 -2 -1 2 1 1 0 -1 -1 1 1 1 1 1 2 3 1 3 1 -2 -2 -1 -0 1 2 2 -1 -2 -2 -2 2 -2 -2 -2
1 1 2 1 1 2 2 -4 -1 -2 -3 -3 -1 1 1 0 -0 -0 -1 1 1 2 1 2 2 2 -0 3 2 1 1 0 1 1 1 0 -3 -4 -2 0 -1 -2 -2 -2
2 1 2 1 -0 -1 2 -2 -2 -3 -3 -3 -2 -1 -1 -1 -1 0 -1 0 0 1 1 2 1 1 -0 1 0 0 1 1 1 1 3 3 -4 -3 0 -2 -2 -2 -2 -3
2 2 2 0 -2 -1 -1 -5 -3 -3 -2 -3 -2 -2 -2 -2 -2 -2 -1 -1 0 1 1 0 -0 1 -1 -0 2 -2 1 -1 0 -0 0 -3 -3 -3 -3 -3 -3 -3 -3 -3
2 1 1 -1 -1 -2 -3 -5 -3 -3 -3 -4 -4 -4 -4 -3 -2 -1 -1 -1 -0 -0 -0 -1 -0 1 -1 0 -0 -0 -1 -3 -1 -1 -3 -2 -2 -2 -3 -3 -3 -3 -3 -3
1 0 -1 -2 -0 -2 -3 -5 -4 -4 -4 -4 -3 -4 -4 -5 -3 -2 -2 -2 -1 -1 -1 -1 -1 -0 -1 -1 -1 -1 -1 -3 -3 -2 -2 -2 -2 -2 -3 -4 -4 -5 -5 -4
1 0 -1 -1 -1 -2 -4 -4 -4 -5 -6 -3 -3 -4 -4 -6 -4 -3 -3 -2 -1 -3 -3 -3 -2 -3 -4 -5 -5 -4 -5 -4 -4 -3 -3 -3 -2 -2 -3 -5 -6 -7 -8 -9
0 -0 -1 -1 -3 -5 -4 -4 -5 -5 -6 -5 -3 -3 -3 -5 -4 -4 -3 -3 -4 -4 -4 -4 -4 -4 -4 -5 -5 -7 -4 -4 -4 -2 -2 -2 -2 -4 -4 -7 -9 -9 -9 -9
-0 -1 -2 -2 -5 -4 -5 -7 -6 -6 -7 -6 -3 -3 -3 -3 -5 -5 -6 -5 -5 -6 -3 -4 -4 -5 -3 -3 -3 -5 -4 -3 -2 -3 -4 -3 -4 -5 -8 -11 -11 -10 -10 -10
-0 -1 -2 -2 -3 -4 -4 -5 -6 -8 -12 -10 -6 -3 -3 -3 -3 -3 -3 -4 -4 -3 -3 -3 -4 -4 -3 -3 -4 -3 -2 -2 -4 -6 -9 -10 -9 -10 -12 -13 -13 -12 -11 -11
-1 -2 -2 -2 -5 -5 -4 -5 -7 -14 -14 -6 -7 -5 -4 -3 -3 -3 -3 -3 -3 -3 -3 -3 -3 -3 -3 -5 -4 -3 -3 -4 -5 -8 -11 -12 -13 -14 -15 -15 -14 -12 -11 -11
-3 -4 -5 -6 -6 -7 -10 -14 -15 -14 -13 -6 -5 -4 -4 -3 -3 -3 -4 -3 -3 -6 -3 -4 -3 -3 -3 -4 -4 -4 -4 -9 -12 -13 -13 -13 -15 -15 -15 -15 -13 -11 -10 -11
-4 -4 -5 -6 -10 -9 -9 -10 -9 -7 -6 -4 -4 -4 -3 -3 -5 -3 -4 -2 -3 -3 -4 -3 -4 -2 -4 -4 -4 -6 -11 -12 -13 -14 -14 -14 -14 -14 -14 -15 -14 -14 -12 -14
-5 -5 -6 -7 -9 -10 -8 -7 -6 -6 -5 -4 -4 -4 -3 -3 -4 -4 -4 -5 -3 -4 -3 -3 -3 -4 -5 -6 -8 -9 -11 -13 -13 -13 -14 -15 -14 -13 -13 -13 -13 -12 -13 -15
-5 -6 -7 -9 -10 -10 -13 -10 -5 -3 -4 -4 -4 -5 -5 -5 -5 -4 -5 -5 -5 -3 -3 -5 -5 -5 -5 -6 -10 -13 -13 -13 -14 -15 -15 -14 -13 -13 -12 -13 -13 -13 -12 -11
-10 -12 -8 -8 -9 -8 -6 -5 -6 -5 -5 -5 -5 -4 -4 -4 -5 -5 -6 -3 -4 -5 -6 -5 -7 -5 -6 -9 -13 -12 -11 -12 -14 -14 -13 -12 -12 -13 -13 -12 -11 -12 -14 -15
-11 -14 -13 -8 -6 -4 -3 -3 -4 -5 -6 -9 -5 -5 -5 -6 -5 -5 -4 -3 -6 -6 -6 -7 -5 -5 -7 -11 -12 -9 -9 -13 -14 -13 -13 -13 -13 -15 -17 -18 -18 -17 -17 -17
-11 -8 -6 -4 -4 -4 -4 -4 -4 -6 -9 -10 -11 -7 -7 -5 -6 -7 -8 -8 -8 -8 -8 -4 -5 -7 -10 -12 -10 -9 -13 -14 -14 -14 -14 -15 -15 -18 -19 -19 -18 -17 -17 -17
-7 -4 -6 -5 -5 -5 -5 -5 -7 -9 -12 -8 -9 -12 -10 -7 -8 -6 -7 -8 -8 -9 -5 -5 -7 -9 -11 -11 -10 -14 -14 -14 -15 -13 -13 -13 -14 -17 -18 -18 -20 -18 -18 -16

GFSNW_850_dewp_069.txt.gz
Dewpoint
-4 0 1 4 4 2 2 2 3 2 1 3 2 2 2 1 2 1 2 1 2 -1 -1 2 4 4 3 1 1 3 2 3 4 5 3 3 3 3 0 2 2 1 -0 0
-3 1 1 3 3 2 3 2 2 2 2 2 2 2 2 1 2 2 2 2 1 1 0 4 3 3 2 2 1 2 1 2 1 1 0 2 4 3 2 1 1 2 1 0
-2 0 1 3 2 3 2 2 3 2 3 3 2 3 3 3 1 2 2 1 1 1 1 1 3 4 3 1 1 2 0 1 0 2 1 2 4 3 1 1 1 2 2 1
-3 1 2 3 2 2 3 1 1 1 3 2 2 2 3 3 3 1 2 2 1 0 1 2 3 3 3 1 1 1 -0 2 0 1 2 2 2 3 2 2 1 2 1 0
-3 1 1 2 2 1 3 2 1 1 0 1 2 2 2 3 2 0 1 1 0 -0 1 0 2 2 2 2 1 1 0 2 0 0 -1 -0 2 1 2 2 1 1 1 2
-1 0 1 1 2 2 3 3 0 0 1 1 2 2 2 2 1 1 1 1 1 1 1 0 -1 -1 1 1 1 2 1 1 -0 2 -1 -1 1 -1 1 1 1 1 3 1
0 1 1 1 1 2 2 2 0 -0 2 1 2 1 1 2 1 2 1 1 1 1 -0 -0 -1 -1 -1 -1 -1 0 1 1 -1 -1 -2 0 -3 -2 -2 0 -1 -1 -2 -3
1 1 3 2 2 2 2 0 0 -0 1 0 1 2 2 0 -0 -0 -0 0 1 -0 -1 0 1 1 0 0 -1 0 -1 0 1 -0 -0 -2 -1 -1 -0 0 0 -3 -3 -3
1 2 2 3 2 2 0 -0 -1 -0 -0 -1 -1 1 0 0 -0 -1 -0 1 1 1 0 0 2 2 1 2 1 -2 -2 -2 0 1 2 2 -2 -2 -2 -2 1 -3 -3 -2
3 2 2 2 1 2 2 -2 -2 -2 -2 -2 -1 1 1 -0 -1 -1 0 1 1 1 0 2 2 1 -0 2 2 1 1 0 1 1 1 0 -3 -4 -2 0 -2 -2 -2 -2
3 2 1 1 1 2 2 0 -2 -2 -2 -2 -2 -1 -1 -1 -1 0 -0 0 0 1 1 1 1 0 0 0 -0 -0 1 1 1 1 2 1 -4 -3 -0 -2 -2 -2 -2 -3
2 2 2 1 1 1 2 1 -2 -2 -1 -3 -2 -2 -2 -1 -2 -1 -1 -1 0 0 0 0 -0 1 -1 -0 2 -2 1 -1 0 -0 -0 -3 -3 -3 -3 -3 -3 -2 -3 -3
2 2 2 1 1 1 1 -1 -3 -2 -3 -3 -3 -4 -3 -2 -1 -1 -1 -0 -0 -0 -1 -1 -1 0 -1 0 -0 -1 -1 -3 -1 -1 -2 -2 -2 -2 -3 -3 -3 -3 -4 -4
2 1 1 1 0 -1 -3 -5 -3 -3 -3 -3 -3 -4 -4 -3 -2 -2 -2 -1 -1 -0 -1 -1 -1 -0 -2 -1 -2 -1 -2 -3 -3 -2 -2 -2 -2 -2 -3 -4 -5 -6 -8 -9
2 1 1 -1 -0 -1 -3 -4 -4 -4 -5 -3 -4 -4 -4 -4 -3 -2 -2 -1 -1 -2 -3 -3 -2 -3 -4 -6 -5 -3 -4 -3 -2 -2 -4 -3 -3 -3 -3 -6 -8 -9 -11 -12
2 1 -1 -0 -0 -1 -3 -4 -4 -5 -4 -4 -3 -3 -4 -4 -4 -3 -3 -2 -3 -4 -4 -4 -4 -3 -4 -5 -5 -7 -5 -4 -5 -4 -3 -3 -3 -2 -3 -7 -9 -10 -11 -10
1 1 -0 -2 -2 -3 -4 -5 -5 -5 -6 -6 -3 -4 -3 -4 -5 -5 -5 -5 -5 -5 -4 -4 -5 -5 -3 -4 -4 -6 -3 -3 -3 -2 -3 -3 -3 -5 -5 -9 -11 -11 -11 -11
0 -0 -1 -3 -3 -3 -4 -5 -5 -6 -9 -7 -5 -3 -3 -4 -4 -4 -5 -5 -5 -4 -4 -4 -4 -4 -4 -3 -5 -4 -2 -2 -4 -5 -7 -9 -6 -8 -11 -12 -13 -13 -13 -13
-1 -1 -3 -2 -3 -4 -4 -4 -6 -8 -13 -7 -6 -4 -3 -3 -3 -3 -3 -3 -4 -3 -3 -3 -3 -3 -3 -6 -5 -3 -2 -4 -5 -8 -11 -12 -12 -13 -14 -15 -15 -15 -16 -14
-2 -3 -4 -4 -5 -5 -4 -7 -12 -14 -12 -6 -5 -4 -3 -3 -3 -3 -4 -3 -4 -7 -3 -4 -3 -3 -4 -4 -4 -4 -3 -4 -7 -11 -11 -13 -14 -14 -15 -15 -15 -14 -14 -13
-3 -4 -4 -5 -5 -7 -8 -9 -10 -8 -6 -5 -4 -4 -3 -4 -5 -4 -4 -6 -5 -6 -5 -4 -5 -3 -4 -4 -4 -4 -4 -9 -11 -13 -14 -14 -14 -15 -15 -15 -14 -13 -13 -12
-4 -4 -5 -8 -9 -9 -10 -9 -6 -7 -5 -4 -4 -3 -3 -4 -4 -4 -4 -5 -6 -5 -3 -3 -4 -5 -4 -4 -4 -5 -9 -10 -12 -14 -14 -14 -15 -14 -14 -13 -12 -13 -13 -13
-5 -6 -8 -8 -9 -13 -13 -11 -8 -6 -4 -4 -3 -5 -4 -4 -5 -4 -5 -4 -5 -4 -3 -5 -5 -5 -5 -5 -7 -8 -9 -12 -13 -13 -14 -15 -15 -14 -12 -12 -12 -12 -13 -15
-6 -9 -9 -10 -12 -9 -9 -7 -4 -5 -5 -4 -5 -4 -4 -5 -5 -5 -7 -3 -5 -4 -5 -5 -8 -6 -5 -5 -7 -10 -13 -12 -11 -12 -15 -14 -13 -13 -13 -15 -17 -17 -17 -17
-9 -12 -9 -9 -8 -4 -4 -4 -4 -5 -5 -7 -5 -5 -6 -6 -5 -5 -4 -4 -7 -7 -7 -7 -6 -5 -5 -6 -8 -12 -12 -10 -10 -14 -15 -14 -14 -15 -17 -18 -19 -18 -17 -18
-10 -9 -6 -4 -4 -4 -4 -4 -5 -6 -8 -10 -11 -7 -7 -5 -6 -7 -8 -8 -9 -9 -9 -7 -5 -5 -5 -6 -10 -12 -10 -10 -14 -15 -15 -15 -14 -14 -14 -16 -17 -17 -17 -18
-7 -5 -5 -5 -5 -5 -5 -6 -7 -8 -12 -8 -9 -11 -9 -7 -8 -7 -8 -8 -9 -11 -9 -5 -5 -6 -7 -10 -11 -10 -10 -14 -14 -15 -14 -12 -12 -11 -12 -13 -15 -16 -17 -16

GFSNW_850_dewp_072.txt.gz
Dewpoint
-2 -4 -2 0 2 2 1 1 2 2 1 3 2 2 1 1 1 1 2 0 1 -1 -1 3 4 4 3 2 1 3 2 2 5 5 3 3 3 2 -1 2 2 0 1 1
-2 -3 -2 1 2 2 2 1 1 2 2 3 3 2 2 1 1 2 2 2 1 1 1 4 3 4 2 1 1 2 0 1 0 1 0 1 3 2 1 -0 -0 1 1 1
-2 -2 -2 1 3 2 1 1 2 2 2 2 0 2 3 2 1 2 1 1 1 1 1 1 4 4 2 1 2 2 -0 0 -0 1 0 2 4 3 1 0 0 2 -0 1
-1 -2 0 1 2 2 2 1 2 2 3 2 2 1 2 3 3 1 2 2 1 -0 2 1 3 3 2 1 1 1 -1 2 0 0 2 2 3 3 2 1 0 1 1 1
-1 -2 0 2 2 2 2 2 1 1 -1 1 2 2 2 2 2 1 1 1 1 -0 1 -0 1 2 2 2 0 1 -0 1 -0 0 -1 -1 2 1 2 2 1 1 -1 1
-1 -5 1 1 2 2 3 2 1 0 0 0 2 2 2 2 1 1 0 0 1 1 1 -0 0 1 1 1 1 1 0 0 -1 1 -1 -2 1 -1 1 1 1 1 2 0
-2 -1 1 2 2 1 2 2 1 -0 1 1 1 1 1 2 1 2 0 0 1 1 -1 -1 -1 -1 -1 -1 -1 -0 0 -0 -1 -1 -2 1 -2 -2 -2 0 -1 -1 -2 -3
-4 1 2 2 1 2 2 2 1 -0 0 -0 1 2 1 -0 -0 -0 -0 0 1 -0 -1 -0 1 1 1 0 -1 -0 -1 -1 0 -0 -1 -3 -1 0 -0 0 0 -3 -3 -3
1 2 2 3 2 1 1 -1 -1 -0 -0 -1 -1 1 0 0 -1 -0 1 1 0 0 -0 -0 1 2 1 2 1 -2 -2 -2 0 0 1 1 -2 -2 -2 -2 -0 -3 -3 -3
1 2 2 2 2 2 -0 -2 -2 -2 -2 -2 -1 0 0 -1 -1 -1 0 1 1 0 0 2 2 1 -1 2 2 2 1 -0 0 1 1 -1 -4 -3 -3 -0 -2 -2 -3 -2
2 2 2 1 2 2 1 -1 -2 -2 -1 -2 -2 -1 -1 -1 -1 0 -0 0 0 0 1 1 1 0 -0 0 -1 -0 1 0 1 0 1 0 -4 -2 -1 -3 -2 -2 -2 -3
2 2 1 2 2 2 1 -1 -2 -1 -1 -3 -2 -2 -2 -1 -1 -0 -0 -1 -0 0 0 -0 -1 0 -1 -1 1 -2 0 -2 -0 -1 -1 -3 -3 -2 -3 -2 -2 -2 -3 -3
2 2 2 2 2 2 1 0 -2 -1 -2 -3 -3 -3 -2 -2 -1 -1 -1 -0 -0 -0 -1 -1 -1 0 -2 0 -0 -1 -2 -2 -1 -2 -2 -3 -2 -2 -3 -3 -3 -3 -3 -4
2 1 1 1 1 1 1 0 -2 -2 -2 -2 -3 -3 -3 -2 -2 -1 -1 -1 -1 -1 -1 -2 -1 -1 -2 -2 -2 -2 -2 -3 -3 -2 -3 -2 -2 -2 -3 -3 -5 -6 -8 -10
2 2 1 1 1 0 -0 -1 -4 -4 -4 -3 -4 -4 -3 -3 -2 -2 -1 -1 -1 -2 -3 -3 -2 -3 -4 -6 -4 -3 -4 -3 -2 -1 -4 -3 -4 -3 -3 -4 -6 -9 -10 -12
2 1 1 1 -1 -3 -2 -5 -4 -5 -3 -3 -2 -4 -4 -3 -3 -2 -2 -2 -2 -4 -4 -4 -4 -3 -4 -4 -3 -7 -5 -4 -5 -5 -4 -3 -3 -3 -3 -4 -8 -9 -11 -12
1 1 -0 0 -1 -3 -5 -5 -4 -5 -6 -5 -4 -4 -4 -4 -4 -4 -4 -5 -5 -5 -4 -5 -5 -4 -4 -5 -5 -8 -4 -4 -4 -4 -3 -2 -2 -3 -3 -6 -10 -13 -13 -14
1 0 -0 -1 -2 -4 -4 -5 -4 -5 -7 -6 -5 -3 -4 -5 -5 -5 -6 -6 -6 -5 -4 -4 -5 -5 -4 -3 -5 -5 -3 -3 -3 -2 -3 -6 -7 -6 -6 -9 -13 -14 -15 -15
0 -1 -3 -3 -4 -4 -4 -4 -5 -8 -12 -5 -5 -4 -4 -4 -3 -4 -4 -4 -4 -4 -4 -3 -4 -4 -4 -7 -7 -5 -3 -3 -4 -6 -8 -10 -9 -10 -13 -14 -15 -15 -16 -16
-1 -3 -5 -4 -4 -4 -4 -6 -8 -13 -13 -7 -7 -4 -3 -4 -3 -3 -4 -4 -4 -6 -3 -4 -3 -3 -5 -5 -5 -5 -4 -4 -5 -7 -9 -11 -13 -14 -14 -15 -15 -16 -15 -14
-4 -5 -5 -4 -5 -4 -8 -10 -10 -9 -6 -5 -4 -4 -3 -4 -5 -4 -4 -7 -6 -5 -6 -4 -5 -3 -4 -4 -4 -4 -3 -3 -6 -10 -14 -14 -14 -14 -14 -15 -16 -15 -13 -12
-5 -5 -5 -4 -6 -8 -11 -11 -7 -7 -7 -5 -4 -4 -4 -4 -4 -4 -4 -5 -7 -5 -5 -4 -4 -6 -5 -4 -4 -4 -4 -5 -10 -13 -14 -14 -14 -14 -15 -15 -14 -12 -12 -12
-6 -7 -9 -8 -8 -12 -13 -14 -10 -7 -5 -4 -3 -4 -4 -5 -5 -4 -6 -6 -6 -5 -3 -5 -6 -6 -5 -4 -4 -4 -7 -10 -10 -13 -13 -13 -14 -15 -14 -13 -12 -13 -15 -17
-5 -7 -8 -8 -10 -9 -9 -9 -7 -6 -5 -4 -5 -4 -5 -5 -5 -5 -7 -4 -5 -5 -4 -6 -8 -7 -5 -5 -5 -7 -9 -10 -13 -12 -11 -13 -15 -15 -14 -14 -13 -14 -16 -19
-7 -10 -8 -8 -9 -5 -5 -5 -4 -4 -4 -5 -5 -6 -6 -6 -5 -5 -4 -4 -5 -7 -8 -8 -8 -7 -6 -5 -5 -6 -9 -12 -12 -10 -11 -14 -15 -15 -14 -13 -12 -12 -13 -15
-10 -9 -9 -5 -5 -5 -4 -4 -5 -5 -6 -8 -10 -7 -7 -5 -5 -6 -8 -9 -9 -9 -9 -9 -6 -6 -6 -5 -5 -7 -10 -11 -10 -11 -14 -15 -14 -12 -11 -11 -11 -11 -11 -12
-7 -6 -6 -6 -5 -5 -4 -5 -5 -6 -8 -9 -9 -12 -10 -7 -8 -8 -8 -8 -8 -13 -10 -6 -5 -6 -5 -6 -7 -10 -11 -10 -13 -14 -15 -13 -12 -11 -11 -11 -12 -12 -12 -11

GFSNW_850_dewp_075.txt.gz
Dewpoint
-2 -2 -1 -1 1 1 2 1 2 1 1 2 1 2 1 1 1 1 1 -0 -0 -1 -0 3 4 4 3 2 1 3 2 3 5 5 2 2 3 2 -1 3 2 -0 1 1
-2 -2 -1 -2 2 1 2 0 1 1 2 3 3 1 2 1 1 1 1 2 1 0 1 3 3 3 2 1 1 1 0 1 2 3 1 1 3 2 0 -1 -0 1 2 1
-2 -1 -1 0 2 1 1 1 1 1 2 2 1 3 2 2 1 2 0 1 0 -0 1 1 4 4 2 1 2 1 -1 1 -0 2 1 2 4 3 1 -0 1 1 -0 1
-1 -1 -3 1 1 2 1 1 2 1 2 2 1 2 1 2 2 1 1 1 0 0 2 1 4 3 1 0 1 -0 -1 2 -0 -0 1 2 3 3 2 1 -0 0 -0 1
-2 -2 -4 1 2 2 2 1 1 1 -0 1 1 2 1 2 1 1 2 2 1 -1 0 -0 2 2 1 2 0 0 -1 1 -1 0 -1 -0 2 2 2 2 1 0 -1 0
-1 -2 1 2 1 2 2 2 1 1 1 1 2 2 1 1 1 1 0 0 0 1 1 -1 0 0 0 0 1 0 -0 -0 -1 1 -2 -2 1 -0 2 2 1 0 1 -0
-2 -2 2 2 1 2 2 2 1 -1 2 1 1 1 1 1 1 1 0 0 0 0 -0 -1 -1 -1 -1 -1 -1 -1 -0 -1 -2 -0 -1 1 -2 -1 -2 0 -0 -1 -1 -1
-3 2 2 2 1 2 2 2 1 -0 1 -0 1 1 0 -0 -0 -0 1 1 0 -1 -1 -0 1 1 0 -0 -2 -1 -2 -1 -0 0 -0 -3 -2 -0 -0 0 -0 -2 -3 -3
-1 2 2 2 1 2 1 -2 -1 -0 -0 -0 -1 0 -0 -0 -1 -0 1 1 -0 -0 -1 -1 1 2 1 2 1 -2 -2 -2 -0 -0 1 0 -3 -2 -2 -2 -1 -3 -3 -3
1 2 2 2 1 1 -1 -2 -2 -1 -1 -2 -1 -0 0 -1 -1 -0 0 1 0 -0 -0 1 1 1 -1 2 2 2 1 -0 0 1 1 -1 -4 -3 -3 -0 -3 -3 -3 -2
2 3 2 2 2 1 -2 -2 -2 -1 -1 -2 -2 -1 -1 -1 -0 0 0 -0 0 -0 1 1 1 0 -1 -0 -1 0 1 0 1 0 1 -1 -4 -2 -2 -3 -3 -2 -2 -3
2 3 2 2 2 1 -1 -2 -1 -1 -1 -2 -2 -2 -2 -1 -1 0 -1 -1 -0 -0 -0 -1 -1 -0 -2 -2 -0 -2 0 -2 -1 -1 -1 -4 -4 -2 -2 -3 -3 -2 -3 -3
2 2 2 2 2 1 -1 -2 -2 -1 -2 -3 -3 -3 -2 -1 -1 -1 -1 -0 -0 -1 -1 -2 -2 0 -2 -0 -1 -1 -2 -3 -1 -2 -3 -3 -3 -3 -3 -3 -3 -3 -4 -4
2 2 2 2 2 1 -1 -1 -3 -2 -1 -2 -3 -3 -3 -2 -1 -1 -1 -1 -1 -1 -2 -2 -2 -1 -2 -2 -3 -2 -2 -3 -3 -2 -4 -3 -3 -3 -3 -3 -3 -4 -5 -7
1 0 1 1 1 1 0 -1 -4 -5 -4 -3 -3 -3 -3 -2 -2 -1 -1 -1 -1 -2 -2 -3 -2 -3 -3 -5 -4 -3 -3 -3 -1 -1 -3 -3 -4 -4 -3 -3 -4 -5 -7 -9
2 1 1 1 0 1 -0 -2 -4 -4 -3 -2 -1 -3 -3 -3 -2 -2 -1 -1 -2 -3 -4 -4 -4 -3 -4 -3 -3 -5 -3 -3 -4 -5 -4 -4 -3 -3 -3 -3 -4 -7 -8 -11
1 1 1 0 -2 -2 -2 -6 -5 -5 -5 -4 -4 -5 -4 -4 -3 -3 -4 -4 -4 -5 -5 -5 -5 -3 -3 -5 -5 -9 -7 -5 -4 -4 -4 -3 -3 -3 -3 -3 -5 -9 -12 -13
1 1 1 -1 -3 -4 -5 -6 -5 -5 -6 -6 -5 -4 -4 -4 -5 -5 -5 -6 -5 -5 -5 -5 -5 -5 -4 -3 -5 -6 -5 -4 -3 -4 -3 -4 -6 -4 -5 -5 -7 -13 -15 -15
1 -0 0 -0 -2 -4 -5 -5 -5 -8 -10 -6 -6 -4 -5 -5 -4 -4 -5 -5 -5 -4 -4 -4 -4 -5 -5 -7 -8 -6 -4 -4 -4 -3 -3 -7 -9 -7 -10 -13 -15 -15 -15 -15
-0 -2 -3 -4 -4 -5 -5 -5 -6 -7 -11 -8 -6 -4 -5 -4 -4 -4 -4 -4 -4 -6 -4 -4 -3 -3 -5 -6 -7 -8 -6 -4 -5 -5 -7 -10 -12 -14 -14 -14 -14 -14 -14 -13
-3 -4 -5 -4 -4 -5 -7 -9 -10 -11 -9 -7 -4 -4 -3 -4 -5 -4 -4 -7 -7 -6 -6 -4 -5 -3 -5 -5 -4 -5 -5 -3 -4 -6 -11 -15 -14 -14 -14 -13 -14 -14 -13 -12
-4 -4 -4 -4 -5 -8 -11 -11 -8 -6 -9 -5 -4 -4 -4 -4 -4 -4 -4 -6 -7 -6 -6 -4 -5 -6 -6 -5 -4 -4 -4 -3 -4 -8 -13 -14 -14 -13 -13 -14 -14 -13 -13 -16
-4 -6 -5 -8 -9 -11 -11 -12 -10 -7 -5 -4 -3 -4 -4 -5 -5 -5 -6 -6 -6 -5 -5 -6 -7 -8 -5 -4 -4 -4 -4 -4 -7 -11 -13 -14 -12 -12 -14 -15 -14 -14 -14 -13
-4 -7 -9 -7 -9 -8 -8 -9 -8 -9 -6 -4 -4 -4 -5 -5 -5 -5 -7 -5 -5 -5 -6 -7 -9 -9 -7 -5 -4 -4 -5 -8 -10 -12 -13 -10 -10 -14 -15 -15 -13 -12 -11 -11
-5 -8 -7 -7 -8 -8 -7 -8 -6 -6 -6 -4 -6 -6 -6 -5 -5 -5 -4 -4 -5 -8 -9 -8 -9 -8 -6 -5 -5 -6 -7 -8 -11 -12 -11 -10 -14 -15 -15 -13 -12 -11 -11 -12
-8 -8 -10 -8 -7 -7 -6 -5 -5 -5 -4 -7 -9 -6 -7 -6 -6 -6 -7 -9 -10 -10 -9 -10 -7 -7 -6 -5 -5 -6 -6 -9 -11 -10 -11 -14 -15 -13 -12 -12 -12 -12 -12 -12
-6 -7 -8 -8 -6 -8 -7 -6 -6 -5 -7 -8 -9 -11 -11 -8 -10 -9 -9 -9 -9 -13 -10 -7 -6 -6 -6 -5 -5 -6 -10 -11 -11 -14 -15 -15 -13 -12 -12 -13 -14 -15 -15 -14

GFSNW_850_dewp_078.txt.gz
Dewpoint
-2 -2 -1 -1 1 1 1 1 2 0 1 1 2 2 1 0 0 1 0 -0 -1 -0 1 3 3 4 4 1 2 3 1 3 6 4 2 1 3 2 -1 2 2 1 0 1
-2 -2 -2 2 1 1 1 0 1 1 1 3 3 2 1 0 0 0 0 1 0 -1 2 3 3 3 2 2 2 2 0 3 6 5 2 1 3 1 -1 -1 0 1 2 1
-2 -2 -1 2 2 2 1 1 2 0 1 2 -0 4 1 0 1 1 0 1 -0 0 1 2 4 3 2 1 2 1 -1 1 2 3 3 3 3 2 1 0 3 -1 -0 1
-1 -3 1 2 2 2 1 1 1 1 3 3 2 2 0 1 1 2 0 0 -1 -0 2 2 3 2 1 0 1 -0 -0 4 2 0 1 2 3 3 2 3 -0 0 -1 -0
-1 -3 1 1 1 2 2 1 2 1 1 1 2 2 0 1 2 1 1 0 -0 -1 -0 -0 2 1 1 2 0 0 -1 4 1 3 -1 1 2 2 2 1 0 -0 -1 0
-3 -1 2 2 1 2 2 1 1 1 0 1 3 2 1 1 1 1 0 -1 -0 1 0 0 0 0 0 0 1 0 1 2 3 4 -1 -1 1 -0 1 2 1 -0 -0 0
-3 1 1 1 1 1 0 1 0 -1 1 -0 3 1 0 1 1 1 0 0 0 0 -1 -1 -1 -1 -1 -1 -2 -2 0 1 2 4 0 3 -2 -2 -1 -1 0 -0 -1 -0
-2 2 2 1 1 1 0 1 0 -1 1 0 2 1 0 0 0 1 1 1 -0 -1 -1 0 1 1 0 0 -1 -2 -2 -1 1 2 2 -2 -2 -1 -1 -0 -0 -2 -1 -2
1 2 2 1 1 0 -1 -1 -0 -2 -0 -0 -1 0 0 1 1 1 1 0 -0 -1 -1 -1 1 1 1 2 1 -2 -2 -2 -1 -0 0 -2 -2 -2 -2 -1 -2 -3 -2 -2
2 1 2 1 1 -1 -2 -1 -1 -1 -1 -2 -1 -0 0 -0 0 1 1 1 1 -1 0 1 1 1 -0 1 1 2 1 1 2 1 1 -1 -4 -3 -3 -1 -2 -3 -3 -2
2 2 1 1 1 -2 -1 -1 -1 -1 -1 -2 -2 -1 -1 -0 -0 1 1 1 0 0 1 1 1 0 -0 -0 -1 0 1 1 1 1 2 -1 -3 -2 -1 -3 -3 -2 -2 -2
3 1 2 1 -1 -2 -2 -1 -0 -1 -1 -2 -2 -2 -1 -1 -1 -0 -1 -0 0 -0 0 -0 -1 -0 -1 -1 -1 -2 0 -1 -1 -1 -2 -4 -3 -2 -2 -3 -2 -2 -2 -3
2 2 1 1 0 -1 -2 -1 -1 -1 -2 -2 -2 -2 -2 -1 -1 -1 -0 -0 -0 -1 -1 -1 -1 0 -2 -0 -0 -1 -2 -3 -1 -1 -3 -3 -3 -3 -3 -3 -3 -3 -3 -3
2 2 1 1 1 -0 -2 -3 -2 -1 -1 -1 -2 -2 -2 -2 -1 -1 -1 -1 -1 -1 -2 -1 -0 -1 -2 -1 -2 -1 -2 -2 -1 -1 -3 -3 -3 -3 -3 -3 -3 -3 -3 -4
1 1 2 1 0 1 -0 -3 -4 -4 -3 -2 -3 -3 -2 -2 -1 -1 -1 -1 -1 -2 -1 -0 -1 -2 -2 -4 -3 -1 -3 -2 -1 -3 -3 -3 -3 -4 -3 -3 -3 -3 -5 -7
1 0 0 1 1 1 -1 -2 -4 -4 -2 -2 -1 -3 -3 -3 -2 -1 -1 -1 -2 -3 -2 -2 -3 -3 -3 -1 -2 -4 -3 -3 -3 -4 -4 -4 -4 -4 -3 -3 -3 -4 -6 -8
2 -0 0 -0 -0 0 -2 -5 -5 -5 -5 -3 -1 -2 -4 -4 -3 -3 -3 -3 -4 -4 -4 -4 -4 -3 -2 -3 -2 -7 -7 -4 -4 -4 -4 -4 -4 -3 -3 -3 -3 -5 -8 -11
1 0 0 -1 -2 -2 -3 -6 -5 -5 -6 -6 -1 -2 -4 -4 -4 -3 -5 -5 -5 -5 -4 -5 -5 -4 -4 -2 -5 -6 -7 -6 -5 -4 -4 -5 -5 -5 -4 -4 -4 -9 -13 -14
1 0 -0 -2 -2 -4 -5 -6 -5 -7 -9 -7 -3 0 0 -4 -4 -5 -5 -5 -3 -4 -4 -4 -4 -5 -3 -5 -7 -7 -6 -5 -4 -4 -3 -4 -7 -8 -8 -11 -13 -14 -14 -14
0 -0 -2 -3 -3 -4 -5 -6 -6 -6 -9 -9 -3 -5 -2 -4 -4 -3 -3 -4 -4 -1 -4 -3 -3 -3 -5 -7 -8 -9 -8 -5 -5 -4 -6 -7 -10 -13 -14 -14 -13 -13 -14 -15
-2 -4 -4 -4 -4 -5 -6 -7 -7 -9 -8 -8 -5 -4 -3 -4 -2 -3 -4 -3 -4 -1 -3 -2 -2 -3 -5 -5 -5 -6 -7 -4 -5 -5 -8 -14 -14 -14 -14 -13 -13 -14 -15 -15
-4 -5 -4 -4 -4 -6 -7 -6 -9 -6 -6 -6 -4 -4 -4 -5 -5 -4 -4 -3 -4 -2 -4 -2 -2 -3 -6 -5 -4 -5 -5 -4 -4 -5 -10 -13 -14 -13 -12 -12 -14 -15 -16 -14
-5 -5 -4 -5 -7 -7 -6 -6 -6 -5 -6 -5 -4 -3 -5 -5 -5 -4 -5 -3 -3 -5 -3 -3 -4 -7 -7 -5 -4 -4 -4 -3 -4 -7 -11 -13 -13 -11 -12 -15 -16 -14 -13 -12
-5 -5 -7 -5 -5 -5 -5 -5 -4 -10 -7 -5 -4 -4 -4 -5 -4 -5 -3 -5 -5 -3 -4 -4 -4 -9 -7 -5 -4 -4 -4 -4 -7 -10 -12 -13 -10 -11 -15 -15 -13 -12 -12 -12
-4 -6 -5 -5 -7 -8 -8 -10 -7 -7 -7 -4 -6 -6 -6 -4 -4 -5 -4 -4 -3 -5 -4 -4 -11 -9 -7 -5 -4 -5 -6 -7 -8 -11 -12 -10 -11 -15 -16 -14 -13 -12 -13 -14
-4 -7 -7 -9 -7 -7 -6 -8 -6 -6 -5 -7 -8 -5 -5 -4 -4 -3 -3 -5 -5 -3 -5 -11 -9 -9 -7 -6 -5 -6 -6 -7 -10 -11 -11 -13 -15 -15 -14 -13 -13 -16 -17 -16
-2 -6 -9 -9 -9 -8 -8 -7 -8 -6 -6 -4 -7 -7 -6 -6 -5 -5 -6 -4 -4 -10 -11 -9 -9 -9 -7 -6 -6 -6 -6 -10 -11 -12 -15 -16 -14 -13 -13 -17 -18 -16 -15 -13

GFSNW_850_dewp_081.txt.gz
Dewpoint
-1 -1 2 2 2 0 -2 1 1 1 1 1 1 4 1 -2 -1 -0 -1 -2 -2 -1 0 2 2 5 4 1 1 2 1 3 5 4 1 1 2 -0 -1 3 3 1 2 3
-2 1 2 2 1 -0 0 0 0 0 1 4 4 2 -0 -1 -1 -0 -0 -0 -1 -1 1 3 2 3 1 1 1 2 -0 2 7 4 2 1 1 -0 -1 -1 1 1 3 3
-2 -1 2 2 2 1 1 1 2 1 1 2 1 -0 -2 -0 1 0 -0 0 -1 -1 1 1 3 3 1 1 1 0 -0 1 3 5 5 3 3 1 -1 1 4 -2 0 1
-2 -0 1 1 0 1 1 2 2 2 4 1 2 -0 -3 -1 1 0 -1 -1 -2 -1 2 1 2 1 1 0 0 -0 0 4 3 0 1 2 2 1 -0 2 -1 0 -1 -0
-1 0 -0 -1 1 0 -1 2 2 1 0 2 2 -0 -2 -1 1 1 -1 -1 -2 -2 0 -0 1 -1 -1 1 -1 -0 -0 4 2 4 -1 1 2 1 1 1 -0 -2 -2 0
-1 1 1 -1 0 1 2 1 0 0 -0 1 1 -1 -2 -0 -0 0 -1 -2 -1 1 1 -0 -1 -1 -1 -1 -0 -0 1 3 5 4 -1 -0 1 -0 1 2 1 -0 -0 0
1 2 1 -0 -1 -1 1 0 1 -2 0 0 2 -1 -1 1 0 1 1 -0 -0 0 -1 -1 -1 -1 -2 -2 -2 -2 -0 1 3 5 2 4 -2 -2 -1 -1 0 -0 0 -0
1 1 1 -0 -0 0 -0 -1 1 -2 1 1 -0 -0 0 0 1 1 1 1 -0 -0 -1 -0 1 -0 0 -0 -1 -2 -3 -2 0 3 -0 -2 -3 -2 -1 -0 -1 -1 -1 -1
1 1 -0 -0 -1 -1 -1 -1 -1 -0 -0 1 -1 -0 -1 -1 0 1 0 0 0 1 -2 -2 0 1 0 1 -1 -2 -1 -2 -0 -1 -0 -3 -2 -2 -2 -2 -1 -2 -2 -1
0 1 0 0 -0 -2 -1 -2 -1 1 1 -1 -1 -0 0 0 0 1 1 1 1 0 -1 -1 -0 0 -1 -1 -1 0 0 -0 1 -0 0 -2 -3 -3 -2 -0 -1 -3 -2 -2
0 1 1 -0 -1 -1 -1 -1 -1 -0 -0 -1 -1 -1 -0 0 0 -0 1 1 1 -1 -1 -1 -1 -2 -1 -1 -2 -1 0 0 -0 -0 1 0 -4 -2 -1 -2 -3 -2 -2 -2
-0 -0 -1 -1 -2 -1 -1 -1 -1 -1 -1 -1 -1 -1 -1 -1 -1 0 -0 0 0 -0 -1 -1 -2 -2 -2 -2 -3 -2 -1 -1 -2 -2 -2 -4 -3 -2 -2 -2 -2 -2 -2 -2
-0 -0 -1 -1 -3 -2 -1 -1 -1 -1 -1 -2 -1 -2 -1 -1 -0 -1 0 -0 0 0 -1 -1 -1 -1 -2 -2 -3 -1 -2 -3 -2 -2 -4 -3 -3 -3 -2 -2 -2 -2 -2 -2
1 -0 0 -0 -1 -2 -3 -2 -1 -2 -1 -1 -2 -2 -2 -1 -1 -1 -1 -1 -1 -1 -1 -1 -1 -1 -2 -2 -2 -2 -2 -2 -2 -2 -4 -3 -3 -3 -2 -2 -2 -3 -3 -3
2 1 0 0 0 -1 -3 -4 -3 -3 -0 -1 -2 -2 -2 -2 -1 -1 -1 -1 -1 -0 0 0 -1 -2 -2 -3 -3 -2 -3 -3 -2 -4 -3 -3 -3 -3 -3 -2 -2 -2 -3 -4
-0 -1 -0 0 -0 -1 -2 -1 -4 -2 -2 0 1 -2 -3 -2 -2 -1 -1 -1 -2 -2 -1 -1 -2 -3 -2 -0 -2 -5 -3 -3 -3 -4 -4 -3 -4 -4 -4 -2 -2 -3 -4 -5
1 -0 -0 -1 -0 -1 -1 -3 -5 -5 -4 -1 0 -0 -3 -3 -3 -3 -3 -3 -3 -2 -2 -2 -3 -2 -1 -1 -2 -6 -6 -3 -4 -3 -4 -3 -4 -3 -4 -3 -3 -4 -5 -8
1 -0 0 -1 -1 -0 -3 -5 -6 -5 -6 -5 2 1 -2 -3 -2 -2 -4 -3 -3 -3 -3 -4 -4 -4 -3 -1 -4 -6 -6 -5 -3 -3 -4 -4 -5 -5 -4 -4 -4 -6 -11 -13
1 0 0 -1 -1 -2 -3 -5 -5 -5 -8 -1 -0 3 2 -4 -2 -2 -3 -4 -1 -3 -3 -4 -4 -3 -1 -3 -5 -6 -5 -5 -4 -4 -4 -4 -5 -7 -7 -8 -12 -14 -12 -13
0 0 -1 -2 -2 -2 -4 -6 -6 -6 -7 -9 -2 -2 -0 -2 -3 -2 -2 -3 -2 1 -3 -3 -3 -2 -5 -5 -8 -8 -6 -5 -5 -4 -4 -5 -7 -10 -11 -14 -14 -13 -13 -14
-1 -3 -5 -5 -4 -5 -5 -5 -3 -5 -3 -5 -3 -2 -2 -4 -1 -1 -3 0 -2 0 -0 -2 -1 -2 -5 -5 -5 -6 -8 -6 -5 -5 -6 -8 -12 -13 -14 -13 -12 -13 -15 -15
-3 -5 -5 -5 -5 -5 -3 -1 -5 -5 -2 -5 -3 -3 -3 -4 -5 -3 -3 -1 -2 0 -3 -1 -1 -1 -4 -6 -5 -5 -6 -5 -5 -5 -7 -11 -13 -14 -13 -12 -13 -15 -16 -14
-5 -5 -5 -5 -5 -3 -3 -2 -2 -3 -5 -3 -3 -2 -4 -5 -4 -3 -3 -1 -1 -4 -2 -1 -1 -5 -6 -5 -5 -5 -5 -4 -4 -5 -7 -11 -13 -12 -11 -12 -15 -16 -14 -13
-5 -6 -3 -1 -2 -4 -2 -4 -1 -4 -3 -3 -2 -3 -3 -4 -3 -4 -2 -4 -5 -2 -2 -2 -1 -6 -7 -6 -5 -4 -4 -4 -3 -5 -9 -12 -13 -11 -12 -15 -16 -14 -13 -13
-5 -5 -2 -2 -4 -6 -7 -10 -9 -8 -3 -3 -4 -4 -5 -3 -3 -5 -4 -3 -2 -3 -1 1 -5 -8 -7 -6 -5 -4 -4 -4 -4 -8 -10 -12 -11 -12 -16 -16 -14 -14 -15 -18
-4 -5 -4 -7 -5 -3 -5 -7 -5 -8 -4 -5 -6 -3 -3 -2 -3 -3 -2 -3 -2 0 -1 -6 -10 -9 -8 -7 -5 -5 -5 -6 -8 -9 -11 -11 -13 -17 -16 -15 -15 -18 -18 -16
-2 -3 -5 -6 -6 -4 -6 -6 -7 -9 -5 -2 -3 -3 -3 -5 -3 -3 -4 -2 1 -4 -10 -11 -11 -10 -9 -7 -6 -6 -6 -7 -8 -11 -11 -16 -17 -15 -15 -18 -19 -17 -15 -14

GFSNW_850_dewp_084.txt.gz
Dewpoint
-2 2 2 1 -1 -0 -1 0 1 1 1 1 1 3 2 -2 -1 -1 -1 -1 0 2 1 4 4 5 5 1 1 2 1 3 6 3 1 1 3 0 -1 5 3 3 4 4
-1 1 1 1 0 -1 0 0 0 1 1 3 3 3 -0 0 -1 0 -0 -0 -1 -1 2 5 3 3 1 1 1 2 1 2 6 4 3 2 1 -1 0 1 4 2 5 4
1 0 1 0 -0 -1 -0 1 1 1 2 2 3 0 -0 1 0 0 -1 -1 -1 -0 1 1 2 3 1 0 1 -0 1 2 3 5 4 3 3 1 -0 2 4 2 2 2
0 0 -0 0 -1 -1 -1 1 2 2 3 2 0 -2 -1 1 1 -1 -2 -1 -1 -1 1 2 2 1 2 -0 -1 0 1 3 2 0 1 2 2 1 1 1 -1 2 1 2
1 1 -1 0 0 -1 0 2 2 1 0 1 -1 -2 0 1 1 1 -1 0 0 0 1 1 1 -1 0 1 -1 -0 -0 3 2 1 -0 0 1 1 2 2 1 -1 0 1
1 -1 -1 1 0 -1 -0 0 -0 -0 1 1 -2 -1 -0 1 0 -0 0 -0 1 2 1 -1 -1 -2 -2 -2 -0 0 1 3 4 4 -0 -0 2 -0 1 2 1 1 2 0
0 -0 -1 0 1 -0 1 0 1 -1 1 0 -1 -1 0 2 1 1 1 -0 0 -0 -0 -1 -1 -2 -2 -2 -2 -3 -0 1 3 4 2 3 -2 -3 -2 -0 -0 -0 0 -0
1 -0 -1 -0 -0 -1 -3 -1 1 -0 1 -1 -1 -1 0 0 1 1 1 0 -0 -0 -0 1 1 0 1 -0 -1 -1 -2 -1 1 3 1 -2 -2 -1 -0 1 0 -1 -0 -1
2 -0 -0 -1 -2 -2 -2 -1 0 0 0 0 -1 -0 -1 -0 1 1 0 0 -1 -0 0 -1 0 2 -0 0 -1 -2 -1 -2 1 1 1 -1 -1 -2 -2 -2 1 -2 -1 -1
1 1 0 -0 -1 -1 -2 -0 -0 0 -0 -1 -1 0 1 0 0 1 1 0 1 0 1 0 1 1 -1 1 -1 -0 0 0 1 0 1 -0 -2 -2 -2 0 0 -3 -2 -1
1 1 -1 -2 -1 -1 -2 -0 1 0 -0 -1 -1 -1 0 0 1 1 1 1 1 1 0 0 -0 -0 -1 -1 -2 -1 0 1 1 0 1 1 -3 -2 -1 -2 -3 -2 -2 -2
1 -1 -2 -2 -1 -1 -1 -1 -0 -0 -0 -1 -1 -1 -1 -1 -0 0 -0 0 0 1 1 -0 -1 -1 -2 -2 -1 -2 -0 -1 0 -1 0 -3 -3 -2 -2 -3 -2 -2 -2 -2
-1 -1 -1 -2 -2 -1 -1 -1 -1 -1 -1 -1 -1 -1 -1 -1 -0 -1 1 0 -0 0 -1 0 -0 1 -2 -1 -2 -2 -2 -3 -1 -2 -3 -3 -4 -3 -3 -3 -2 -2 -2 -2
-1 -1 -1 -1 -1 -2 -3 -2 -2 -1 -0 0 -1 -2 -1 -1 -1 -1 -1 -1 -1 -1 -1 0 -0 -0 -2 -1 -2 -2 -2 -2 -2 -2 -3 -3 -3 -3 -3 -3 -3 -3 -2 -3
-0 -1 -1 -1 -0 -1 -3 -3 -3 -3 1 0 -1 -2 -2 -2 -1 -1 -1 -1 -1 0 1 1 1 -2 -1 -2 -2 -1 -2 -2 -1 -2 -3 -3 -3 -3 -3 -2 -2 -2 -2 -3
0 -1 -1 -1 -1 -1 -2 -1 -4 -2 -2 1 1 -1 -2 -2 -2 -1 -1 -1 -2 -1 -0 -0 -1 -2 -2 0 -1 -4 -4 -4 -3 -3 -4 -3 -3 -4 -4 -3 -2 -3 -3 -4
-0 -1 -1 -2 -1 -1 -1 -4 -5 -5 -4 -0 1 1 -2 -3 -2 -2 -2 -2 -2 -2 -1 -1 -2 -2 -2 -0 0 -4 -4 -3 -3 -3 -4 -3 -4 -3 -4 -4 -3 -3 -4 -6
1 -0 -1 -1 -1 -1 -1 -4 -7 -5 -6 -5 -0 1 -2 -3 -2 -2 -3 -3 -3 -2 -2 -3 -3 -3 -3 -1 -2 -6 -7 -5 -4 -4 -3 -3 -4 -4 -4 -4 -4 -5 -9 -14
1 1 0 -1 -1 -1 -2 -3 -5 -5 -6 -3 -0 0 1 -3 -2 -2 -3 -3 -1 -2 -2 -3 -3 -2 -2 -3 -4 -4 -5 -6 -6 -4 -4 -4 -5 -5 -6 -6 -9 -14 -13 -13
1 1 -1 -1 -2 -2 -2 -4 -6 -6 -6 -8 -1 -1 -1 -2 -2 -2 -1 -3 -1 -2 -2 -3 -2 -2 -4 -4 -5 -5 -6 -6 -5 -4 -4 -4 -5 -7 -9 -12 -13 -14 -13 -13
0 -1 -3 -5 -3 -3 -5 -6 -4 -3 -3 -4 -3 -1 -3 -2 -1 -0 -2 -1 -2 -2 -2 -2 -1 -1 -3 -5 -4 -8 -8 -7 -6 -5 -6 -6 -6 -9 -11 -13 -13 -12 -13 -15
-1 -4 -5 -4 -4 -5 -5 -3 -3 -4 -2 -4 -3 -4 -3 -4 -3 -2 -3 -1 -3 -2 -3 -2 -1 -2 -4 -5 -5 -6 -7 -7 -5 -5 -6 -9 -11 -13 -14 -13 -12 -13 -15 -16
-4 -5 -5 -4 -4 -3 -4 -5 -3 -3 -4 -4 -4 -3 -4 -5 -4 -3 -3 -2 -2 -4 -4 -2 -2 -3 -4 -6 -6 -5 -5 -6 -5 -6 -7 -9 -11 -13 -13 -12 -12 -15 -16 -15
-5 -6 -6 -4 -4 -3 -2 -2 -1 -4 -4 -4 -2 -3 -3 -4 -3 -3 -3 -3 -5 -5 -4 -3 -3 -5 -7 -6 -5 -6 -5 -5 -5 -5 -6 -8 -11 -13 -12 -12 -16 -16 -15 -15
-5 -5 -4 -3 -4 -4 -4 -6 -9 -10 -6 -2 -3 -4 -4 -3 -3 -4 -4 -5 -5 -4 -3 -3 -3 -6 -8 -6 -6 -5 -5 -5 -4 -4 -6 -9 -12 -12 -12 -16 -16 -15 -17 -19
-4 -4 -4 -4 -4 -3 -6 -8 -6 -7 -3 -4 -5 -4 -4 -4 -4 -4 -5 -4 -4 -3 -3 -6 -8 -7 -8 -7 -7 -6 -5 -4 -4 -5 -8 -10 -11 -12 -17 -16 -16 -19 -20 -17
-2 -3 -4 -4 -5 -3 -6 -7 -7 -8 -4 -3 -3 -5 -6 -6 -5 -4 -4 -4 -3 -3 -10 -10 -10 -9 -8 -8 -7 -6 -5 -5 -7 -8 -9 -11 -14 -17 -16 -17 -20 -20 -16 -16

GFSNW_850_dewp_087.txt.gz
Dewpoint
1 1 1 -0 -0 -1 -1 0 0 -0 0 1 1 3 2 2 1 -0 -1 -1 1 1 3 5 4 5 5 3 1 4 3 3 4 3 1 1 2 3 -0 4 3 3 4 6
1 0 0 1 -1 -2 -0 0 1 0 1 0 2 3 2 1 0 0 0 0 -1 -0 3 3 3 3 1 1 1 2 1 2 4 3 1 1 2 0 0 1 1 3 4 5
1 1 -0 0 -1 -1 -0 0 1 0 2 2 2 1 0 1 0 -0 -1 -1 -1 -0 2 1 3 3 1 0 0 0 1 1 2 4 3 2 2 2 1 1 2 3 3 4
0 -2 -1 -1 -1 -1 1 0 -0 1 0 2 2 -1 1 2 2 -0 -2 -1 -1 -1 2 2 2 1 1 0 -0 0 0 2 0 0 1 1 1 2 2 2 -0 2 3 3
-1 -2 -1 -2 -2 -2 -0 -0 1 2 1 1 -1 -1 1 2 1 1 2 2 1 1 2 1 1 0 0 1 -1 -1 0 1 2 -0 -0 -1 -0 0 2 2 1 1 1 1
-1 -0 0 -1 -3 -2 -0 -0 0 1 0 -0 -1 0 1 2 -0 0 1 1 1 1 0 -0 -0 -2 -2 -2 -1 -0 1 1 1 1 0 -0 0 -0 1 1 1 1 2 0
-0 -1 -0 -1 -2 -2 -1 0 0 0 1 -0 -0 1 1 2 1 1 0 -0 0 -0 -0 -1 -1 -2 -2 -2 -2 -2 -0 0 1 1 1 0 -2 -3 -2 -1 0 0 0 0
1 -1 -1 -1 -2 -3 -1 -0 0 0 -0 -1 -1 0 1 1 0 1 1 -0 -1 -1 0 0 1 0 -0 -1 -1 -1 -2 -1 0 1 -0 -3 -2 -1 -1 0 1 -1 -0 -1
0 -0 -1 -2 -2 -2 -3 -1 1 1 -1 -1 -1 -0 -0 -0 0 0 0 -0 0 -0 1 -1 -0 1 -0 -0 -2 -3 -2 -2 0 -0 1 -1 -2 -2 -2 -2 1 -2 -1 -1
-0 0 -1 -2 -2 -2 -3 -0 0 -1 -1 -1 -0 -0 0 0 0 1 0 0 -1 0 -0 -0 1 -0 -2 1 -0 -2 -0 -0 0 0 0 -1 -2 -2 -2 -1 -3 -3 -2 -1
1 -0 -2 -1 -1 -1 -1 -1 -0 -0 -1 -1 -1 -1 -0 0 1 1 0 1 0 1 0 0 -1 -0 -1 -1 -2 -2 -0 0 1 -0 0 -2 -3 -2 -1 -3 -2 -2 -2 -2
-0 -2 -2 -1 -1 -1 -2 -1 -1 -0 -1 -1 -1 -1 -1 -1 -0 0 -0 0 1 0 1 -1 -1 -1 -2 -2 -2 -2 -3 -2 -1 -2 -1 -4 -3 -2 -2 -3 -3 -2 -2 -2
-1 -2 -2 -1 -1 -2 -2 -1 -1 -1 -1 -1 -1 -1 -1 -1 -1 -0 0 0 -1 1 -1 0 -0 -0 -2 -1 -2 -2 -3 -3 -2 -3 -4 -3 -4 -3 -2 -3 -2 -2 -2 -2
-0 -1 -2 -2 -1 -3 -2 -2 -1 -1 -0 -0 -1 -1 -1 -1 -1 -1 -1 -1 -1 -1 -1 0 -1 -0 -2 -2 -2 -2 -3 -3 -2 -2 -3 -3 -3 -3 -3 -3 -3 -2 -2 -2
0 -1 -1 -2 -2 -2 -3 -3 -3 -3 0 -0 -1 -2 -2 -2 -1 -1 -1 -1 -1 -0 0 -0 -0 -1 -2 -2 -3 -2 -3 -2 -1 -2 -4 -4 -3 -3 -3 -3 -3 -3 -3 -3
0 -0 -1 -1 -1 -1 -2 -2 -4 -3 -2 0 -1 -1 -2 -2 -2 -1 -1 -1 -1 -1 -0 -0 -1 -2 -2 -1 -1 -3 -4 -4 -4 -4 -3 -3 -3 -3 -4 -3 -3 -3 -3 -3
0 -1 -1 -2 -1 -1 -2 -4 -6 -5 -5 -2 0 -0 -2 -3 -2 -2 -2 -2 -2 -2 -1 -2 -1 -2 -2 -2 -0 -4 -5 -4 -4 -4 -4 -4 -4 -4 -4 -3 -3 -3 -4 -5
-0 -0 -1 -1 -1 -1 -1 -2 -7 -7 -5 -6 -1 -2 -2 -3 -2 -2 -3 -3 -3 -2 -2 -2 -4 -3 -3 -1 -3 -3 -4 -3 -3 -4 -4 -4 -4 -3 -4 -4 -4 -5 -6 -12
-2 1 -0 -1 -1 -2 -1 -2 -4 -5 -5 -6 -2 -5 -4 -3 -2 -2 -3 -3 -3 -2 -3 -3 -3 -3 -2 -3 -4 -4 -6 -5 -5 -4 -4 -4 -4 -5 -5 -5 -5 -9 -14 -14
-0 1 -0 -1 -2 -2 -2 -2 -4 -6 -6 -7 -3 -2 -4 -2 -3 -2 -2 -2 -2 -4 -3 -3 -3 -2 -4 -5 -5 -6 -5 -5 -6 -4 -4 -5 -5 -5 -6 -7 -11 -14 -14 -13
1 -0 -2 -2 -4 -2 -4 -5 -5 -3 -5 -5 -5 -1 -4 -3 -3 -2 -2 -2 -5 -5 -4 -3 -2 -0 -3 -5 -6 -5 -5 -5 -7 -7 -8 -7 -6 -6 -7 -11 -13 -13 -12 -13
-0 -2 -4 -4 -4 -5 -7 -8 -5 -5 -4 -4 -5 -4 -3 -4 -2 -2 -3 -4 -5 -5 -3 -3 -2 -3 -4 -5 -5 -6 -7 -7 -7 -7 -7 -6 -6 -8 -11 -13 -13 -12 -13 -16
-2 -5 -5 -4 -4 -6 -7 -7 -7 -6 -4 -4 -3 -5 -4 -5 -4 -3 -4 -4 -3 -5 -6 -4 -4 -5 -5 -5 -6 -7 -7 -7 -6 -6 -7 -8 -10 -11 -13 -13 -12 -13 -17 -17
-5 -5 -7 -6 -7 -6 -6 -6 -6 -5 -6 -6 -4 -4 -4 -3 -4 -4 -6 -4 -5 -7 -6 -5 -5 -6 -5 -6 -6 -6 -5 -5 -5 -6 -7 -8 -9 -11 -13 -12 -13 -17 -17 -16
-4 -5 -6 -6 -6 -3 -3 -3 -8 -8 -7 -5 -4 -4 -4 -5 -4 -5 -5 -6 -7 -6 -7 -6 -5 -8 -7 -6 -6 -6 -5 -5 -5 -6 -6 -7 -10 -12 -12 -13 -17 -17 -18 -20
-3 -4 -4 -3 -5 -5 -6 -6 -9 -9 -6 -4 -4 -6 -6 -5 -5 -5 -6 -7 -7 -8 -7 -9 -10 -10 -8 -7 -6 -6 -6 -6 -5 -5 -5 -7 -10 -11 -13 -17 -17 -19 -21 -18
-1 -2 -4 -5 -6 -5 -5 -7 -9 -8 -3 -6 -5 -7 -7 -7 -7 -5 -6 -6 -6 -7 -9 -12 -13 -13 -10 -8 -7 -6 -5 -5 -4 -4 -6 -9 -11 -13 -18 -17 -19 -21 -18 -17

GFSNW_850_dewp_090.txt.gz
Dewpoint
-1 -0 -1 -1 -2 -2 -3 -1 0 -1 1 0 1 3 2 2 2 1 2 -1 0 2 4 4 4 4 4 3 2 4 3 3 4 3 0 1 2 3 1 4 3 3 3 5
-0 -1 -0 -1 -3 -2 -3 -0 -1 -0 1 -1 0 1 3 2 1 0 -0 -0 -1 1 3 4 3 3 1 2 1 2 0 2 4 2 -1 0 2 1 1 1 1 3 3 4
-1 -1 -1 -2 -2 -3 -1 -1 -1 -0 1 2 1 1 0 1 -0 -0 -1 -1 -1 0 2 1 3 3 1 0 0 0 0 1 2 2 3 2 3 2 1 -0 1 3 3 3
-2 -2 -2 -1 -2 -2 -1 -1 -2 0 1 1 1 1 1 2 2 -0 0 1 1 -0 2 1 1 0 0 -0 -0 -0 -1 1 -0 -0 1 -0 0 1 2 2 0 1 3 3
-0 -1 -2 -2 -2 -2 -1 -1 -0 1 1 1 -1 -1 1 2 1 1 1 2 1 0 1 1 1 0 -0 1 -1 -1 -0 -0 2 -1 -1 -2 -2 -0 1 2 1 2 1 2
-1 -0 -1 -2 -1 -2 -1 -0 0 1 -0 -2 -0 1 1 1 -0 0 0 1 0 1 0 -0 -0 -0 -2 -2 -1 -1 0 1 0 -0 -0 -0 -2 -1 1 1 1 0 2 0
-2 -1 -2 -4 -2 -1 -0 0 0 -0 0 -1 0 1 1 1 1 1 0 -1 -1 -1 -1 -1 -1 -2 -2 -2 -2 -2 -0 0 -0 -1 -1 -3 -5 -3 -2 -1 0 -0 1 1
-2 -1 -2 -3 -3 -3 -1 -1 0 0 -1 -1 -1 0 1 0 -0 0 -0 -1 -0 -0 -1 -1 -1 -1 -1 -2 -2 -2 -2 -1 -0 -0 -1 -4 -3 -2 -1 -0 0 -2 -0 -0
-2 -2 -1 -3 -3 -3 -2 -1 0 -0 -1 -1 -1 -1 0 -0 -0 -1 -1 -1 0 0 -0 -2 -1 -0 -0 -1 -2 -5 -2 -2 -0 -0 -0 -2 -4 -2 -2 -3 -1 -3 -1 -1
-1 -1 -2 -3 -3 -3 -3 -1 0 -1 -1 -1 -1 -0 -0 0 0 -0 0 0 -1 0 -1 -1 0 -0 -2 0 -1 -2 -1 -1 -0 0 -0 -2 -3 -3 -3 -1 -8 -3 -1 -1
0 -2 -1 -2 -2 -3 -4 -1 -1 -0 -2 -1 -1 -1 -1 0 1 -0 0 0 -0 0 -0 -0 -1 -0 -2 -2 -3 -2 -3 -1 0 -0 0 -3 -3 -2 -3 -6 -2 -3 -2 -1
-1 -2 -1 -1 -2 -2 -2 -2 -1 -1 -1 -2 -1 -1 -1 -1 -0 -0 -0 0 0 0 0 -1 -1 -1 -2 -3 -3 -3 -1 -3 -2 -2 -3 -6 -3 -4 -4 -4 -4 -3 -2 -2
-0 -1 -1 -1 -2 -2 -3 -3 -1 -1 -1 -1 -1 -1 -1 -1 -1 -1 0 0 -1 1 -1 -0 -1 -1 -2 -1 -2 -3 -4 -3 -2 -3 -7 -4 -4 -3 -3 -3 -3 -3 -3 -2
-0 -1 -1 -1 -1 -2 -2 -2 -2 -1 -1 -0 -1 -2 -1 -1 -1 -1 -1 -2 -1 -1 -1 -0 -1 -0 -2 -2 -3 -2 -4 -3 -2 -2 -4 -4 -3 -4 -3 -3 -3 -3 -2 -2
1 -0 -1 -1 -1 -1 -3 -3 -2 -2 -2 -1 -2 -3 -2 -2 -1 -1 -1 -1 -1 -0 -0 -1 -1 -1 -2 -3 -3 -2 -3 -2 -2 -3 -5 -5 -4 -3 -3 -3 -3 -3 -3 -3
0 0 -0 -0 -1 -1 -2 -2 -4 -4 -3 -2 -2 -1 -2 -2 -2 -2 -1 -1 -1 -2 -1 -1 -1 -1 -2 -2 -2 -3 -4 -4 -4 -5 -5 -4 -3 -3 -3 -3 -3 -3 -3 -3
-0 1 0 -1 -1 -1 -1 -3 -6 -7 -5 -3 -2 -2 -1 -3 -3 -2 -2 -2 -2 -2 -1 -1 -2 -2 -2 -3 -1 -5 -6 -5 -4 -4 -4 -3 -3 -4 -4 -4 -3 -3 -3 -4
-1 -0 -1 -1 -1 -1 -1 -1 -3 -8 -5 -6 -4 -3 -3 -3 -3 -2 -2 -3 -2 -2 -2 -2 -3 -3 -3 -1 -3 -3 -4 -4 -4 -4 -4 -4 -4 -4 -4 -3 -3 -4 -5 -6
-4 -0 -1 -1 -1 -2 -1 -1 -2 -5 -6 -6 -3 -5 -5 -3 -2 -2 -2 -3 -3 -2 -3 -3 -3 -3 -2 -3 -4 -5 -5 -5 -4 -3 -4 -4 -4 -4 -4 -5 -5 -5 -7 -13
-4 -1 0 -1 -2 -2 -2 -2 -3 -5 -6 -6 -4 -5 -3 -3 -3 -2 -2 -2 -3 -4 -3 -3 -2 -2 -4 -4 -4 -4 -5 -5 -5 -4 -4 -4 -3 -4 -5 -5 -6 -9 -14 -13
-1 0 -1 -2 -3 -2 -3 -4 -5 -5 -5 -5 -6 -3 -4 -3 -3 -3 -2 -5 -5 -4 -5 -3 -3 -2 -3 -5 -5 -6 -6 -5 -5 -5 -7 -7 -7 -6 -6 -6 -10 -13 -13 -13
-2 -1 -3 -5 -3 -4 -7 -8 -6 -5 -4 -4 -4 -3 -3 -3 -2 -2 -3 -4 -6 -4 -5 -4 -3 -5 -7 -7 -6 -5 -5 -4 -5 -5 -7 -8 -7 -6 -7 -9 -12 -13 -12 -13
-1 -4 -5 -4 -4 -6 -7 -7 -7 -7 -5 -4 -4 -4 -4 -4 -3 -3 -4 -4 -3 -5 -7 -4 -5 -8 -9 -7 -6 -6 -5 -5 -5 -6 -7 -7 -7 -7 -9 -12 -13 -12 -13 -17
-4 -5 -6 -6 -7 -6 -6 -7 -7 -7 -6 -5 -5 -4 -4 -4 -4 -5 -6 -5 -5 -7 -6 -6 -7 -11 -9 -9 -5 -6 -6 -6 -5 -6 -7 -8 -9 -10 -12 -12 -12 -13 -18 -17
-5 -5 -5 -6 -6 -6 -5 -6 -4 -4 -6 -5 -5 -4 -5 -5 -5 -5 -6 -6 -6 -6 -7 -7 -13 -10 -12 -10 -6 -7 -6 -6 -5 -6 -7 -8 -9 -10 -12 -12 -13 -18 -17 -20
-3 -4 -5 -5 -5 -6 -4 -3 -9 -7 -6 -5 -5 -6 -6 -5 -5 -5 -5 -7 -7 -8 -8 -13 -13 -14 -14 -12 -9 -8 -7 -6 -6 -6 -7 -7 -8 -10 -12 -12 -17 -17 -20 -21
-0 -2 -3 -5 -5 -5 -5 -5 -6 -7 -5 -6 -6 -7 -7 -6 -6 -5 -6 -7 -7 -12 -14 -16 -16 -17 -17 -14 -10 -8 -7 -6 -6 -6 -6 -6 -8 -10 -11 -16 -18 -19 -21 -18

GFSNW_850_dewp_093.txt.gz
Dewpoint
-0 -2 -2 -2 -4 -3 -3 -3 -2 -1 -1 -0 1 3 3 2 2 1 2 0 0 2 3 4 4 4 3 2 3 4 3 3 4 3 0 0 1 3 2 4 3 3 3 6
-1 -1 -2 -3 -3 -3 -3 -2 -1 -1 -1 -0 1 1 2 2 1 0 -0 -0 -1 1 3 4 3 2 1 2 2 2 1 2 3 -0 -2 -0 2 1 1 1 1 3 3 3
-2 -2 -2 -3 -4 -1 -1 -2 -2 -1 0 1 1 1 1 1 -0 -0 -1 0 -1 0 2 1 2 2 1 1 0 0 -0 1 2 1 2 2 2 1 1 -0 1 2 3 4
-2 -5 -4 -3 -4 -3 -2 -1 -1 0 0 0 1 1 1 1 2 0 -0 0 1 0 2 1 1 -0 -0 -0 -1 0 -1 0 -0 -0 0 0 -1 1 2 2 1 0 2 2
-0 -4 -5 -3 -5 -4 -1 -1 -0 1 -0 0 -1 0 1 1 1 1 1 1 1 -0 1 1 1 0 -1 0 -2 -1 -1 -1 1 -1 -1 -1 -0 -2 1 1 1 1 1 2
-0 -3 -5 -4 -3 -5 -2 0 0 0 -1 -1 -0 1 1 1 -0 0 0 0 -0 0 0 -0 -0 -0 -1 -2 -1 -1 0 0 0 -1 -1 -1 -3 -3 0 1 1 0 1 -0
-0 -1 -4 -5 -3 -1 -1 -1 -0 -1 -0 -1 -0 1 1 1 1 1 -0 -1 -1 -1 -1 -0 -1 -1 -2 -2 -2 -2 -1 0 -1 -0 -2 -1 -7 -3 -2 -1 0 -0 0 0
-1 -2 -3 -5 -5 -3 -2 -1 -1 -1 -1 -1 -1 -1 0 -1 -1 -0 -0 -1 0 0 -1 -2 -2 -1 -3 -3 -3 -2 -2 -1 -1 -0 -1 -5 -4 -3 -1 -0 -1 -1 0 -0
-1 -1 -2 -3 -4 -5 -5 -2 -1 -1 -2 -3 -1 -1 -0 -0 -0 -2 -2 -1 -1 -0 -2 -3 -1 -1 -1 -2 -2 -4 -2 -2 -1 -1 -1 -4 -6 -2 -2 -4 -5 -2 -1 -1
-0 -1 -1 -2 -3 -4 -4 -2 -1 -1 -2 -1 -1 -1 -0 0 0 -1 -1 0 0 -0 -2 -1 -0 -1 -2 -1 -1 -3 -2 -1 -0 0 1 -2 -5 -3 -3 -5 -10 -3 -1 -1
-0 -1 -1 -2 -1 -2 -3 -3 -2 -2 -2 -2 -1 -1 -1 0 0 0 -0 -0 -0 -1 -0 -0 -1 -1 -2 -1 -4 -3 -4 -2 -0 -1 0 -4 -3 -2 -4 -7 -3 -3 -2 -1
-1 -1 -1 -2 -2 -1 -1 -3 -3 -2 -2 -2 -2 -1 -1 -1 -1 -0 -0 0 0 0 -0 -1 -1 -1 -2 -3 -2 -5 -1 -3 -4 -2 -3 -7 -3 -5 -4 -4 -4 -3 -3 -2
-1 -2 -1 -1 -2 -2 -2 -2 -3 -2 -2 -2 -2 -2 -2 -1 -1 -1 -1 -0 -1 0 -1 -1 -1 0 -2 -1 -2 -3 -4 -4 -2 -3 -8 -5 -4 -4 -4 -3 -4 -4 -4 -3
-0 -1 -2 -1 -1 -2 -2 -2 -1 -1 -1 -1 -2 -2 -2 -1 -1 -1 -1 -1 -1 -1 -1 -1 -1 -0 -2 -2 -3 -3 -4 -3 -2 -3 -4 -4 -5 -4 -4 -3 -3 -3 -3 -2
-1 -0 -1 -1 -1 -1 -3 -3 -2 -2 -2 -1 -3 -3 -3 -2 -1 -1 -1 -1 -1 -1 -0 -1 -1 -2 -2 -3 -3 -2 -3 -3 -2 -3 -6 -6 -7 -5 -4 -3 -3 -3 -3 -3
-5 -0 0 -0 -1 -1 -1 -2 -3 -5 -3 -2 -2 -2 -2 -2 -2 -2 -1 -1 -1 -1 -1 -1 -1 -1 -2 -2 -2 -4 -4 -4 -5 -5 -6 -6 -5 -4 -4 -3 -3 -3 -3 -3
-9 -0 1 1 -0 -1 -1 -2 -4 -7 -5 -3 -2 -2 -2 -2 -2 -2 -2 -2 -2 -2 -2 -1 -2 -2 -2 -2 -1 -5 -6 -6 -5 -5 -4 -4 -4 -4 -3 -3 -3 -3 -3 -3
-10 -1 1 -0 -1 -1 -1 -1 -3 -5 -6 -5 -5 -5 -3 -2 -3 -2 -2 -2 -2 -2 -2 -2 -3 -3 -2 -1 -3 -3 -3 -4 -5 -5 -4 -4 -4 -4 -4 -4 -3 -3 -3 -4
-10 -3 1 0 -0 -1 -2 -1 -1 -2 -5 -5 -4 -6 -5 -3 -2 -2 -2 -3 -3 -2 -3 -3 -3 -3 -2 -3 -4 -4 -5 -5 -5 -4 -3 -3 -4 -4 -4 -4 -3 -4 -5 -6
-2 -3 0 -0 -1 -2 -2 -2 -2 -2 -3 -5 -4 -5 -3 -3 -3 -3 -2 -2 -3 -4 -3 -3 -2 -2 -3 -4 -4 -5 -5 -5 -5 -3 -3 -3 -4 -4 -4 -4 -5 -5 -6 -10
0 -1 0 -1 -2 -2 -3 -4 -4 -5 -5 -5 -6 -5 -4 -4 -4 -3 -2 -5 -5 -4 -5 -3 -3 -3 -5 -6 -8 -8 -7 -6 -5 -5 -5 -6 -6 -5 -4 -5 -5 -6 -12 -13
-0 -1 -1 -2 -4 -3 -6 -7 -6 -5 -4 -4 -4 -3 -3 -3 -2 -2 -3 -4 -6 -4 -5 -4 -3 -5 -9 -9 -9 -7 -6 -5 -5 -4 -5 -7 -8 -8 -6 -5 -7 -10 -13 -13
-0 -2 -5 -4 -4 -6 -6 -4 -7 -7 -5 -4 -3 -4 -4 -3 -3 -3 -5 -4 -3 -5 -6 -4 -5 -8 -11 -10 -10 -7 -6 -5 -4 -5 -5 -7 -8 -7 -6 -7 -10 -12 -13 -13
-2 -3 -6 -5 -7 -5 -5 -6 -7 -7 -5 -4 -4 -4 -5 -4 -4 -5 -6 -5 -5 -6 -5 -5 -7 -13 -13 -12 -10 -7 -6 -6 -5 -5 -6 -7 -7 -7 -7 -10 -12 -13 -13 -16
-3 -5 -4 -6 -6 -6 -6 -7 -5 -5 -5 -5 -5 -5 -5 -5 -5 -4 -6 -6 -6 -5 -5 -6 -14 -14 -14 -14 -11 -7 -7 -6 -6 -6 -7 -7 -8 -9 -10 -11 -12 -12 -15 -19
-3 -4 -5 -6 -5 -5 -4 -6 -5 -5 -5 -6 -6 -6 -6 -6 -5 -5 -5 -6 -6 -6 -7 -12 -15 -16 -17 -17 -15 -10 -8 -7 -6 -6 -6 -8 -9 -9 -9 -11 -12 -13 -18 -19
-0 -2 -3 -5 -4 -3 -4 -5 -6 -6 -5 -6 -7 -8 -6 -6 -6 -4 -6 -6 -6 -9 -14 -15 -16 -17 -15 -14 -15 -14 -10 -8 -7 -6 -6 -7 -8 -9 -9 -11 -12 -16 -18 -21

GFSNW_850_dewp_096.txt.gz
Dewpoint
-3 -4 -4 -6 -4 -3 -3 -2 -1 -1 -1 0 1 2 3 2 1 1 1 -0 0 2 3 3 4 4 2 2 3 4 3 3 4 2 0 -0 1 2 2 3 3 3 3 5
-3 -5 -5 -5 -5 -3 -4 -3 -2 -0 -2 0 1 -0 2 2 1 0 0 -0 -0 1 3 3 3 2 1 2 2 2 2 2 2 -1 -2 -1 1 1 1 1 0 2 3 3
-3 -5 -5 -6 -6 -4 -4 -3 -1 -1 -1 1 0 1 1 1 0 0 -0 0 -1 1 2 1 2 2 1 1 2 1 -0 1 2 1 1 1 1 -0 1 0 1 2 2 3
-2 -5 -5 -6 -7 -4 -4 -2 -1 0 -0 0 -1 0 0 1 2 0 -0 -0 1 1 1 0 0 -0 -1 -0 -1 1 -1 0 -0 -0 -0 0 -0 -1 1 2 1 -1 1 2
-1 -3 -4 -5 -6 -4 -3 -1 -0 -0 -1 -1 -1 0 1 1 1 1 1 1 0 -0 1 1 1 1 -1 -0 -2 -1 -1 -0 1 0 -1 -1 0 -1 -0 1 1 1 2 1
-1 -2 -4 -3 -4 -5 -3 -1 -0 -1 -1 -2 0 1 1 1 0 0 -0 0 -0 -0 -0 -0 -0 -0 -0 -1 -1 -1 -0 -0 -0 0 -2 -1 -2 -3 0 0 0 -0 1 -1
-1 -2 -3 -3 -2 -2 -3 -2 -2 -2 -1 -1 -0 0 0 0 0 1 -1 -1 -1 -1 0 -1 -0 -0 -1 -2 -2 -2 -1 -0 -1 -0 -3 -4 -8 -3 -2 -1 -1 -0 -0 -0
-1 -2 -3 -3 -4 -4 -3 -3 -3 -2 -1 -1 -1 -1 -0 -1 -1 -1 -0 -1 -0 0 -1 -2 -2 -2 -4 -2 -4 -3 -3 -1 -1 -1 -1 -5 -5 -4 -2 -1 -2 -1 -1 -0
-1 -1 -2 -3 -3 -4 -3 -3 -3 -3 -2 -3 -1 -1 -0 -0 -1 -2 -2 -1 -1 -1 -3 -3 -2 -3 -2 -3 -4 -3 -3 -3 -1 -1 -1 -6 -10 -3 -2 -5 -5 -4 -1 -1
-0 -1 -2 -2 -3 -3 -3 -2 -2 -2 -2 -3 -1 -1 -1 -0 -0 -1 -2 -1 -0 -1 -2 -1 -1 -1 -3 -2 -1 -4 -3 -2 -1 -0 -0 -2 -7 -3 -3 -6 -11 -3 -1 -1
-0 -1 -1 -2 -2 -2 -2 -2 -1 -2 -2 -3 -3 -2 -1 -0 0 -0 -1 -2 -1 -1 -1 -1 -1 -1 -2 -1 -4 -3 -4 -3 -1 -1 -0 -3 -3 -3 -5 -8 -4 -3 -2 -2
0 -1 -1 -2 -2 -2 -2 -2 -2 -2 -1 -2 -3 -2 -2 -1 -1 -0 -0 -1 -0 -1 -1 -1 -2 -1 -3 -3 -2 -6 -2 -4 -6 -3 -3 -7 -3 -5 -5 -4 -4 -4 -3 -3
-0 -1 -2 -1 -2 -2 -2 -2 -2 -1 -1 -2 -2 -3 -3 -2 -1 -1 -1 -0 -0 -0 -1 -1 -1 0 -2 -1 -2 -3 -5 -4 -3 -3 -7 -5 -5 -4 -4 -4 -4 -5 -5 -4
-4 -0 -1 -2 -1 -2 -3 -2 -2 -1 -1 -1 -3 -3 -2 -2 -1 -1 -1 -1 -1 -1 -1 -1 -1 -0 -3 -2 -4 -4 -5 -4 -3 -3 -4 -5 -5 -6 -5 -4 -4 -4 -3 -3
-12 -2 0 -1 -1 -1 -2 -3 -3 -2 -1 -1 -3 -3 -3 -2 -2 -1 -1 -1 -1 -1 -0 -2 -1 -2 -2 -3 -3 -2 -4 -4 -3 -4 -7 -7 -8 -6 -6 -5 -4 -3 -3 -3
-11 -10 -1 0 -0 -1 -1 -1 -2 -4 -4 -3 -2 -3 -2 -3 -2 -2 -1 -1 -1 -1 -1 -1 -1 -1 -2 -2 -2 -4 -4 -4 -5 -5 -5 -6 -6 -6 -5 -4 -3 -3 -3 -3
-10 -11 -2 1 1 -0 -0 -2 -3 -6 -6 -4 -3 -3 -2 -2 -2 -2 -2 -2 -1 -2 -2 -2 -2 -2 -1 -2 -1 -4 -5 -6 -5 -5 -4 -4 -5 -5 -4 -4 -3 -3 -3 -3
-10 -11 -3 1 0 -1 -1 -1 -1 -2 -5 -5 -6 -5 -3 -2 -3 -3 -2 -2 -2 -2 -2 -2 -2 -3 -2 -1 -3 -3 -3 -4 -4 -4 -5 -4 -4 -4 -4 -3 -3 -3 -3 -3
-10 -10 -3 1 0 -1 -1 -2 -1 -1 -2 -5 -5 -6 -5 -3 -3 -2 -2 -3 -3 -3 -3 -3 -3 -3 -2 -2 -3 -3 -4 -5 -5 -5 -5 -4 -3 -4 -3 -4 -3 -3 -4 -4
-7 -7 -1 0 -1 -1 -2 -2 -2 -2 -2 -4 -5 -5 -5 -3 -2 -3 -2 -3 -3 -4 -3 -3 -2 -2 -3 -4 -5 -4 -4 -5 -5 -4 -4 -3 -3 -3 -4 -4 -4 -4 -4 -5
-1 -4 -3 -1 -1 -2 -2 -3 -3 -4 -5 -5 -5 -5 -4 -4 -4 -3 -3 -5 -5 -4 -4 -3 -3 -2 -4 -6 -9 -8 -9 -8 -7 -6 -5 -4 -4 -4 -4 -4 -4 -4 -5 -6
-1 -3 -2 -1 -2 -3 -5 -6 -6 -5 -4 -5 -5 -5 -4 -4 -3 -2 -3 -4 -6 -3 -5 -4 -2 -4 -7 -8 -10 -10 -10 -7 -5 -5 -5 -4 -5 -7 -7 -5 -4 -5 -6 -10
-1 -1 -3 -4 -4 -5 -3 -2 -5 -7 -5 -5 -3 -4 -4 -3 -3 -3 -5 -4 -2 -5 -6 -4 -5 -7 -10 -11 -12 -12 -8 -5 -5 -6 -4 -4 -6 -7 -8 -6 -5 -6 -9 -12
-0 -2 -3 -4 -6 -4 -4 -4 -4 -6 -6 -4 -4 -4 -5 -4 -4 -5 -6 -5 -5 -6 -3 -4 -6 -9 -14 -14 -14 -10 -8 -6 -5 -5 -5 -5 -6 -7 -8 -6 -6 -8 -11 -13
-0 -2 -3 -4 -5 -6 -6 -6 -7 -7 -5 -4 -5 -5 -5 -6 -5 -5 -6 -6 -5 -5 -5 -5 -10 -14 -15 -16 -16 -12 -9 -8 -7 -6 -5 -6 -7 -7 -7 -7 -9 -11 -12 -13
-1 -2 -5 -6 -6 -6 -6 -6 -5 -5 -4 -5 -6 -6 -7 -6 -6 -5 -5 -6 -5 -6 -7 -9 -15 -16 -16 -15 -15 -15 -11 -9 -8 -7 -7 -7 -7 -8 -8 -9 -10 -11 -12 -13
-1 -1 -2 -5 -5 -4 -6 -6 -6 -5 -5 -5 -6 -6 -6 -7 -8 -5 -5 -4 -6 -9 -10 -12 -16 -17 -15 -13 -12 -12 -13 -12 -10 -9 -7 -7 -7 -9 -9 -10 -9 -11 -12 -15

GFSNW_850_dewp_099.txt.gz
Dewpoint
-6 -6 -6 -6 -5 -4 -3 -1 -0 -1 -2 -0 0 2 2 2 1 1 1 -1 0 2 2 2 4 3 2 2 3 4 3 3 4 2 0 -0 1 2 2 4 3 3 3 4
-5 -6 -8 -7 -6 -6 -5 -3 -2 -1 -2 1 -2 -1 1 1 1 0 -0 0 0 1 2 3 3 2 1 2 3 3 2 2 2 -2 -3 -1 1 0 0 1 0 2 3 3
-4 -5 -6 -7 -4 -4 -4 -3 -1 -2 -1 0 -0 0 1 1 0 0 -0 -0 -1 1 1 1 2 1 0 2 2 1 1 1 1 1 -1 1 2 -0 0 1 1 1 1 3
-2 -3 -5 -6 -4 -4 -3 -2 -1 -1 -1 -0 -1 -0 0 1 2 -0 -0 -0 0 0 1 -0 0 -0 -1 -0 -1 1 -1 1 -0 0 -0 0 1 -0 -1 0 -0 -0 -1 2
-2 -3 -2 -5 -6 -4 -4 -2 -1 -1 -1 -1 -1 -0 1 1 1 0 1 0 -0 -1 0 0 1 1 -1 -1 -2 -1 -1 1 1 1 -1 -1 0 -1 -2 1 1 1 1 1
-2 -3 -2 -2 -4 -5 -4 -3 -2 -2 -1 -1 -0 0 1 1 0 -0 -0 -0 -1 -1 -1 -0 -0 -0 -1 -1 -1 -1 -1 -0 -0 0 -3 -2 -1 -2 -1 0 0 -1 2 -1
-2 -2 -3 -2 -2 -2 -2 -4 -4 -4 -1 -1 -0 -0 0 -0 -0 0 -1 -1 -1 -1 0 -0 0 0 -0 -1 -2 -2 -1 -1 -1 1 -3 -6 -8 -4 -2 -1 -1 -1 -0 -1
-3 -2 -2 -3 -3 -3 -2 -2 -3 -4 -2 -1 -1 -1 -0 -1 -1 -1 -1 -1 -1 -0 -2 -3 -3 -3 -4 -2 -3 -2 -3 -2 -1 -1 -1 -7 -8 -6 -2 -1 -4 -2 -1 -1
-2 -2 -2 -2 -3 -4 -3 -1 -2 -2 -4 -4 -2 -1 -0 -1 -1 -2 -3 -2 -1 -1 -3 -3 -3 -4 -3 -3 -4 -3 -3 -3 -1 -1 -2 -6 -13 -4 -3 -5 -6 -6 -1 -1
-1 -2 -2 -2 -2 -3 -3 -2 -1 -1 -3 -4 -2 -1 -1 -1 -1 -2 -2 -1 -0 -2 -2 -2 -2 -2 -3 -2 -2 -5 -3 -2 0 0 -0 -3 -7 -3 -4 -6 -13 -5 -1 -1
-1 -1 -2 -2 -2 -2 -2 -2 -1 -1 -2 -3 -3 -3 -1 -1 -0 -2 -3 -3 -2 -2 -2 -1 -2 -1 -3 -2 -4 -5 -5 -3 -1 -1 -0 -4 -4 -3 -5 -8 -6 -4 -2 -2
-4 -0 -1 -2 -2 -2 -2 -2 -2 -2 -2 -2 -3 -3 -3 -1 -1 -1 -0 -2 -1 -1 -2 -2 -2 -0 -3 -4 -3 -6 -3 -5 -7 -4 -5 -8 -4 -5 -5 -6 -5 -5 -5 -4
-12 -1 -1 -2 -2 -1 -2 -2 -2 -1 -1 -2 -2 -3 -3 -3 -2 -1 -1 -0 -0 -0 -1 -2 -2 -0 -2 -1 -2 -4 -5 -5 -3 -4 -7 -5 -6 -6 -5 -4 -5 -5 -5 -5
-12 -10 -1 -1 -2 -2 -2 -2 -3 -2 -1 -1 -3 -3 -3 -3 -2 -1 -1 -1 -1 -1 -0 -1 -2 -1 -3 -3 -4 -4 -6 -4 -4 -3 -5 -6 -7 -7 -7 -7 -5 -4 -4 -4
-11 -12 -6 -1 -1 -2 -2 -2 -2 -2 -2 -1 -2 -3 -3 -3 -2 -2 -1 -1 -1 -1 -1 -2 -1 -2 -3 -4 -4 -3 -4 -4 -4 -4 -7 -7 -8 -7 -6 -6 -6 -5 -4 -3
-8 -10 -12 -3 -1 -1 -1 -1 -2 -2 -5 -3 -2 -3 -2 -3 -2 -2 -2 -1 -1 -1 -1 -1 -1 -1 -2 -2 -2 -4 -4 -4 -5 -6 -6 -6 -6 -6 -6 -6 -6 -5 -3 -3
-1 -10 -11 -6 -0 -0 -1 -2 -3 -4 -7 -5 -3 -3 -2 -2 -2 -2 -2 -2 -1 -1 -1 -2 -2 -2 -1 -2 -1 -4 -5 -6 -5 -5 -5 -4 -5 -5 -5 -5 -4 -4 -3 -3
1 -8 -10 -6 0 0 -0 -1 -1 -1 -1 -5 -6 -5 -5 -2 -2 -2 -2 -2 -2 -2 -2 -2 -2 -2 -2 -1 -2 -3 -3 -4 -4 -4 -4 -4 -4 -4 -4 -4 -4 -3 -3 -3
1 -7 -8 -5 0 0 -1 -1 -1 -1 -1 -6 -5 -5 -5 -3 -3 -2 -2 -2 -3 -2 -3 -3 -3 -3 -1 -2 -2 -3 -4 -4 -5 -5 -5 -5 -5 -4 -4 -4 -3 -3 -3 -3
1 -7 -6 -1 -0 -1 -1 -2 -2 -2 -2 -2 -5 -5 -6 -3 -3 -2 -3 -3 -3 -5 -3 -3 -2 -2 -3 -4 -4 -4 -4 -4 -4 -4 -6 -7 -5 -4 -4 -4 -3 -3 -3 -3
-1 -4 -5 -2 -1 -1 -2 -3 -3 -3 -4 -4 -4 -5 -4 -4 -4 -3 -2 -5 -5 -4 -4 -3 -3 -2 -4 -5 -6 -6 -5 -6 -7 -9 -8 -7 -5 -4 -4 -4 -4 -4 -4 -4
0 -2 -2 -1 -2 -3 -5 -6 -6 -5 -3 -5 -5 -5 -4 -4 -3 -3 -3 -4 -5 -3 -5 -3 -2 -4 -6 -7 -8 -9 -10 -11 -9 -6 -5 -5 -5 -4 -5 -6 -4 -4 -4 -5
-0 -1 -0 -3 -3 -5 -3 -2 -5 -5 -5 -5 -4 -4 -4 -3 -3 -3 -4 -3 -1 -5 -7 -4 -5 -7 -9 -10 -13 -14 -10 -8 -5 -6 -7 -6 -5 -5 -6 -8 -7 -5 -5 -6
-1 -1 -2 -3 -6 -5 -4 -4 -4 -5 -6 -5 -4 -4 -4 -4 -3 -4 -4 -4 -5 -5 -3 -4 -6 -8 -11 -16 -16 -14 -11 -11 -8 -5 -5 -5 -5 -5 -7 -8 -7 -6 -6 -7
-1 -1 -1 -3 -5 -5 -6 -5 -7 -7 -6 -4 -5 -5 -5 -5 -4 -4 -6 -5 -4 -5 -5 -6 -9 -13 -16 -17 -17 -16 -14 -12 -10 -9 -6 -5 -5 -6 -7 -8 -7 -6 -7 -10
-1 -2 -4 -5 -6 -6 -6 -6 -6 -6 -5 -5 -6 -6 -6 -5 -5 -5 -4 -5 -5 -5 -6 -8 -12 -16 -16 -15 -15 -15 -14 -14 -13 -12 -11 -9 -8 -8 -7 -7 -7 -7 -9 -11
-2 -2 -1 -4 -5 -5 -6 -6 -6 -4 -4 -3 -4 -4 -4 -6 -7 -6 -5 -4 -4 -8 -10 -10 -13 -17 -15 -14 -12 -12 -13 -12 -11 -11 -11 -11 -11 -9 -8 -8 -8 -8 -9 -10

GFSNW_850_dewp_102.txt.gz
Dewpoint
-4 -5 -5 -4 -7 -4 -3 -2 4 -1 -2 3 2 4 2 1 1 1 0 -1 0 1 2 2 3 3 2 1 3 3 3 3 5 3 0 -0 1 2 0 4 5 3 3 3
-4 -6 -6 -3 -4 -7 -6 -3 -2 -2 -2 5 3 1 1 1 0 0 -0 1 1 1 2 3 2 2 1 2 2 2 2 3 5 0 -0 -0 1 1 -0 1 1 4 4 2
-3 -3 -5 -4 -4 -4 -4 -3 5 -2 -1 -0 1 1 1 1 0 -0 -0 -0 -0 1 1 1 2 1 1 2 2 2 2 2 2 1 -1 0 2 0 -0 1 4 1 1 1
-4 -3 -4 -5 -4 -4 -3 -2 1 -1 3 0 0 0 1 1 2 0 -1 -1 0 0 1 -0 0 -0 -1 1 1 1 1 3 1 0 -1 0 1 0 -1 2 1 1 -2 1
-5 -4 -2 -4 -5 -4 -4 -1 0 -1 -0 -1 -0 -0 1 1 1 1 0 -0 -0 -1 -0 -0 -0 0 -2 -1 -2 0 -0 4 1 3 -1 0 1 -1 -1 -1 -1 1 -0 1
-3 -5 -4 -3 -3 -4 -3 -3 -3 -2 -1 -1 -1 0 -0 0 0 0 -0 -0 -1 -1 -1 -0 -0 -1 -1 -1 -1 -1 0 1 2 2 -3 -3 -2 -3 -2 -2 -1 -1 1 -2
-3 -4 -5 -5 -4 -3 -2 -2 -3 -3 -2 -1 -1 -0 0 -1 -0 1 -1 -1 -1 -1 -0 -1 -0 0 0 -0 -0 -1 -0 0 1 4 -2 -1 -7 -4 -3 -2 -2 -1 -2 -2
-2 -2 -4 -4 -5 -5 -3 -2 -2 -3 -2 -1 -1 -1 -1 -1 -1 -1 -0 -1 -1 -1 -2 -2 -3 -3 -3 -2 -2 -1 -2 -1 1 2 -1 -6 -7 -7 -3 -3 -6 -5 -2 -2
-2 -2 -2 -3 -4 -5 -5 -3 -1 -2 -3 -4 -3 -1 -0 -2 -1 -2 -3 -2 -2 -1 -3 -3 -3 -6 -5 -4 -4 -3 -2 -2 -0 -1 -1 -9 -12 -5 -4 -4 -5 -6 -3 -3
-10 -1 -1 -2 -3 -5 -5 -4 -2 -1 -1 -4 -3 -1 -1 -1 -1 -2 -2 -2 -0 -2 -2 -3 -3 -3 -3 -3 -4 -3 -1 -1 1 1 -1 -5 -8 -3 -4 -5 -12 -7 -2 -2
-12 -3 -1 -2 -2 -2 -3 -4 -3 -1 -1 -3 -3 -3 -2 -1 -1 -1 -3 -1 -2 -1 -2 -2 -3 -2 -4 -2 -4 -5 -5 -3 -2 -1 0 -1 -5 -2 -5 -8 -9 -4 -2 -1
-11 -9 -1 -1 -2 -2 -3 -3 -3 -2 -2 -2 -3 -3 -3 -3 -2 -1 -1 -2 -1 -1 -3 -2 -2 -1 -2 -4 -6 -6 -4 -7 -7 -4 -6 -7 -4 -4 -5 -7 -5 -5 -4 -4
-6 -11 -5 -1 -2 -2 -2 -2 -2 -2 -2 -2 -2 -3 -3 -3 -2 -2 -0 -1 -1 -1 -1 -2 -1 -1 -3 -2 -3 -3 -5 -6 -5 -5 -8 -6 -7 -7 -7 -6 -5 -5 -5 -5
-0 -10 -11 -4 -1 -2 -2 -1 -2 -3 -2 -0 -2 -4 -3 -3 -3 -2 -1 -1 -1 -1 -1 -0 -1 -1 -3 -3 -4 -5 -7 -5 -5 -5 -6 -7 -6 -6 -7 -6 -7 -6 -4 -4
-0 -4 -10 -11 -3 -1 -1 -2 -2 -2 -3 -1 -2 -3 -3 -3 -3 -2 -2 -1 -1 -1 -0 -0 0 -1 -2 -3 -3 -2 -5 -5 -5 -6 -8 -8 -8 -8 -7 -6 -6 -6 -5 -4
-0 -0 -9 -10 -8 -0 0 -1 -2 -2 -3 -4 -1 -3 -3 -3 -3 -2 -2 -1 -1 -1 -0 -0 -1 -1 -2 0 -0 -3 -4 -5 -6 -7 -7 -7 -7 -6 -6 -6 -6 -6 -5 -4
2 1 -5 -10 -10 -1 0 -1 -3 -5 -6 -6 -2 -2 -2 -2 -2 -2 -2 -2 -1 -1 -1 -1 -1 -1 -1 0 -1 -4 -4 -5 -5 -5 -5 -4 -5 -5 -5 -5 -5 -5 -4 -3
2 1 0 -9 -10 -4 -0 -0 -0 -0 -1 -3 -0 -1 -5 -2 -2 -2 -2 -2 -1 -1 -1 -2 -2 -2 -1 1 -2 -2 -3 -3 -4 -4 -5 -5 -5 -4 -4 -4 -4 -4 -3 -3
2 2 1 -9 -8 -3 -1 -1 -1 -1 -1 -4 -3 -1 0 -3 -3 -2 -2 -2 -1 -2 -2 -2 -2 -1 -0 -1 -2 -2 -3 -4 -3 -4 -4 -5 -5 -6 -5 -5 -4 -4 -3 -3
1 1 -3 -7 -1 -1 -1 -2 -2 -1 -1 -2 -3 -5 -2 -3 -2 -2 -2 -2 -1 0 -2 -3 -2 -1 -3 -3 -4 -4 -4 -4 -4 -4 -4 -4 -6 -9 -6 -5 -4 -4 -3 -3
1 0 -2 -3 -1 -1 -2 -2 -2 -2 -2 -2 -3 -4 -3 -4 -1 -1 -2 -1 -2 0 -1 -1 -0 -1 -3 -4 -5 -7 -7 -5 -5 -5 -6 -8 -9 -8 -4 -4 -4 -4 -4 -4
1 0 -1 -1 -2 -2 -2 -2 -4 -3 -1 -4 -4 -4 -4 -4 -4 -2 -3 -1 -3 -0 -4 -2 -1 -2 -5 -6 -7 -9 -11 -11 -12 -12 -9 -7 -6 -7 -5 -5 -5 -4 -4 -4
0 -0 -1 -1 -2 -2 -1 -1 -1 -2 -4 -5 -4 -3 -4 -4 -3 -3 -3 -1 -1 -5 -2 -2 -2 -5 -9 -10 -10 -12 -13 -11 -8 -6 -8 -7 -6 -6 -5 -5 -7 -7 -5 -4
0 -1 -1 -1 -1 -3 -2 -2 -1 -4 -5 -5 -4 -4 -3 -4 -3 -3 -1 -3 -4 -1 -1 -1 -2 -7 -9 -10 -13 -14 -11 -10 -8 -6 -7 -7 -6 -5 -5 -6 -7 -8 -7 -6
-0 -1 0 -1 -3 -5 -5 -5 -5 -6 -6 -5 -4 -5 -5 -3 -2 -4 -4 -3 -2 -2 -1 -2 -7 -8 -13 -17 -17 -15 -13 -13 -13 -13 -11 -9 -8 -6 -6 -6 -7 -8 -7 -6
-0 -1 -1 -3 -4 -4 -5 -6 -5 -6 -5 -5 -6 -4 -3 -2 -3 -3 -2 -3 -2 -2 -2 -8 -9 -14 -17 -16 -15 -15 -14 -13 -12 -12 -12 -11 -12 -12 -11 -9 -9 -8 -7 -6
-2 -2 -1 -2 -4 -4 -5 -5 -6 -5 -4 -2 -3 -2 -2 -5 -3 -3 -4 -3 -2 -7 -9 -10 -11 -15 -17 -15 -14 -13 -13 -12 -11 -11 -10 -10 -10 -10 -10 -10 -10 -9 -7 -7

GFSNW_850_dewp_105.txt.gz
Dewpoint
-5 -4 -5 -6 -7 -4 -3 1 5 -1 0 4 2 4 2 1 1 1 -0 -1 -0 0 1 2 2 2 2 1 2 2 2 2 4 2 1 0 1 2 -0 3 5 3 3 3
-7 -5 -4 -4 -5 -5 -4 -0 1 -2 1 6 4 0 1 0 0 0 0 1 1 1 1 2 1 1 1 1 2 2 1 3 5 2 1 -0 2 0 -0 -0 1 4 4 2
-7 -6 -6 -5 -5 -5 -4 1 6 2 1 1 0 1 1 1 1 -0 -1 -0 -0 0 0 -0 1 1 1 1 2 1 1 2 2 3 0 -1 0 -0 -1 0 4 1 0 -2
-7 -6 -6 -5 -5 -5 -4 -0 2 1 3 -0 -0 -0 0 1 1 -1 -1 -1 -0 -0 -1 -1 -1 -1 -1 1 2 1 1 3 2 0 -1 -2 -1 -1 -1 1 1 1 -3 -2
-5 -6 -6 -5 -5 -5 -4 0 0 -1 -1 -1 -2 -1 0 1 1 -0 -1 -1 -2 -2 -1 -1 -1 -1 -2 -2 -1 -1 -0 3 1 3 -2 -1 -0 -2 -2 -1 -2 -1 -2 -1
-4 -5 -5 -6 -6 -5 -3 -2 -3 -1 -1 -2 -2 -2 -1 -0 0 0 -1 -1 -1 -2 -1 -1 -1 -1 -1 -2 -2 -2 -1 1 2 2 -3 -3 -3 -5 -3 -2 -3 -3 -2 -4
-3 -4 -5 -5 -6 -6 -5 -4 -3 -1 -3 -2 -2 -1 -1 -2 -1 0 -1 -1 -1 -0 -1 -0 0 -0 -1 -1 -1 -1 -1 -0 1 4 -0 1 -6 -5 -3 -4 -4 -5 -3 -4
-6 -2 -3 -4 -5 -6 -6 -5 -4 -1 -4 -3 -3 -2 -2 -2 -2 -1 -1 -1 -0 -1 -1 -2 -4 -2 -2 -1 -1 -1 -2 -1 1 3 -2 -5 -8 -7 -4 -2 -6 -6 -3 -4
-11 -3 -2 -3 -4 -6 -5 -5 -4 -4 -2 -4 -3 -3 -1 -3 -4 -4 -3 -2 -2 -1 -3 -3 -3 -7 -6 -5 -3 -4 -1 -1 0 -1 -1 -7 -9 -7 -5 -4 -5 -8 -6 -6
-11 -6 -1 -2 -3 -3 -4 -4 -3 -2 -1 -2 -4 -4 -3 -1 -2 -3 -3 -2 -0 -2 -3 -4 -5 -5 -4 -5 -5 -1 -1 -1 1 1 1 -3 -7 -5 -4 -4 -7 -8 -6 -5
-2 -12 -5 -1 -2 -2 -3 -3 -3 -2 0 -1 -4 -5 -2 -1 -1 -4 -2 -1 -1 -1 -2 -4 -5 -3 -5 -4 -6 -6 -5 -3 -1 -2 -1 1 -4 -3 -5 -7 -7 -4 -3 -3
-0 -6 -13 -4 -1 -2 -1 -3 -3 -2 -2 -0 -3 -4 -4 -4 -3 -2 -1 -1 -2 -2 -3 -4 -4 -4 -4 -6 -8 -7 -4 -8 -8 -6 -5 -7 -4 -7 -5 -6 -5 -4 -4 -3
0 -0 -10 -13 -5 -2 -2 -1 -2 -2 -1 -1 -1 -2 -4 -4 -3 -3 -2 -1 -1 -0 -0 -2 -3 -2 -4 -4 -5 -6 -7 -8 -5 -7 -9 -8 -8 -7 -6 -4 -4 -5 -4 -4
3 -1 -2 -11 -13 -5 -1 -1 -1 -1 -2 0 -1 -4 -4 -4 -3 -2 -2 -1 -1 -1 -1 -1 -1 -2 -4 -4 -6 -4 -7 -6 -6 -7 -8 -8 -8 -7 -7 -7 -7 -6 -6 -4
4 2 -0 -5 -11 -12 -4 -1 -1 -1 -1 0 -1 -2 -3 -3 -3 -3 -2 -1 -0 -0 0 1 0 -2 -1 -3 -3 -2 -6 -6 -5 -6 -8 -8 -9 -7 -7 -6 -6 -6 -6 -5
4 4 1 -0 -8 -12 -5 0 -2 -2 -1 -2 -0 -2 -3 -3 -3 -2 -2 -1 -0 -0 0 -0 -1 -0 -2 -1 -2 -5 -5 -5 -7 -7 -7 -7 -7 -7 -7 -6 -6 -5 -6 -6
4 4 2 1 -4 -10 -6 0 -3 -5 -4 -4 -0 -0 -3 -2 -2 -1 -1 -1 -0 -0 -0 -0 -1 -1 -1 0 -1 -7 -4 -4 -4 -5 -5 -5 -5 -5 -5 -5 -5 -5 -5 -5
3 3 3 2 -0 -7 -8 -7 -1 -1 -1 -1 2 2 -4 -3 -2 -2 -2 -1 -1 -1 -1 -1 -1 -1 -1 1 -2 -4 -4 -4 -4 -4 -4 -5 -5 -5 -5 -5 -5 -4 -4 -4
3 3 2 2 -2 -5 -3 -3 -2 -0 -1 1 -0 1 3 -3 -2 -2 -2 -1 -1 -1 -1 -1 -1 -1 2 -0 -2 -2 -2 -2 -3 -4 -3 -4 -4 -4 -5 -6 -6 -4 -4 -4
3 2 2 -3 -3 -2 -1 -1 -1 -1 -1 -1 -1 -2 -0 -3 -2 -2 -1 -2 -1 0 -1 -2 -1 -1 -3 -2 -2 -2 -2 -3 -3 -3 -4 -5 -5 -5 -5 -7 -8 -5 -4 -4
2 1 1 -0 -2 -1 -1 -1 -1 -1 -1 -1 -1 -1 -1 -4 -1 -1 -2 1 -1 1 0 -1 0 0 -2 -4 -4 -3 -3 -4 -4 -3 -3 -4 -4 -4 -6 -7 -5 -4 -4 -4
1 2 1 -0 -0 -1 -1 -0 -2 -2 -0 -1 -2 -3 -3 -3 -4 -2 -2 -0 -2 1 -3 -1 -0 -1 -4 -5 -6 -7 -9 -12 -11 -7 -6 -7 -9 -8 -8 -7 -4 -4 -4 -4
1 1 0 -1 -1 -0 0 -0 -0 -0 -2 -2 -3 -2 -3 -4 -3 -2 -2 -0 -0 -4 -2 -1 -1 -3 -6 -9 -8 -10 -12 -13 -12 -10 -8 -9 -9 -7 -7 -6 -5 -6 -7 -5
0 -1 -0 -0 1 -1 -0 -1 1 -1 -3 -3 -2 -2 -3 -3 -2 -3 -0 -2 -4 -0 -0 -0 -0 -4 -7 -8 -10 -13 -13 -12 -10 -9 -10 -9 -8 -8 -6 -5 -6 -6 -7 -7
-0 -1 1 -0 -1 -2 -3 -3 -4 -5 -4 -4 -4 -3 -4 -2 -1 -3 -2 -2 -1 -1 -0 1 -3 -9 -9 -10 -15 -16 -13 -13 -12 -12 -12 -11 -10 -9 -8 -8 -7 -6 -7 -7
-0 -1 -1 -1 -1 -1 -3 -4 -4 -5 -5 -4 -4 -2 -2 -1 -2 -2 -1 -1 -0 1 1 -7 -9 -10 -13 -16 -16 -15 -15 -13 -13 -12 -11 -10 -10 -10 -10 -10 -9 -9 -9 -8
-1 -2 -2 -1 -1 -2 -2 -2 -3 -5 -4 -1 -1 -0 -1 -4 -2 -2 -3 -1 1 -5 -7 -8 -8 -7 -10 -14 -15 -14 -14 -13 -12 -11 -10 -10 -10 -10 -9 -9 -9 -7 -9 -9

GFSNW_850_dewp_108.txt.gz
Dewpoint
-8 -8 -6 -6 -4 -2 -0 1 5 -0 2 5 2 5 2 0 0 0 -0 -0 1 1 0 1 2 2 2 2 2 2 2 3 5 4 2 0 1 2 1 3 6 4 3 4
-8 -8 -8 -6 -6 -5 -4 1 1 1 2 7 5 1 1 1 0 0 0 1 1 0 1 2 1 1 1 1 2 3 1 4 4 2 1 -0 1 1 1 -0 2 4 4 3
-7 -7 -8 -8 -6 -6 -5 2 4 2 -0 1 1 1 1 2 0 -0 -1 -0 -0 -0 -0 -1 1 2 1 1 2 1 1 2 3 4 2 -1 1 0 1 0 3 4 3 1
-6 -7 -7 -8 -7 -6 -3 0 2 1 6 1 0 0 0 1 1 -1 -1 -1 -1 -0 -1 -2 -0 -1 1 2 2 1 1 3 1 2 1 -0 -0 -1 -0 1 1 2 -1 -1
-5 -6 -7 -8 -7 -6 -4 1 1 -1 -1 -1 0 -1 0 1 0 0 -1 -1 -2 -2 -1 -1 -1 -1 -2 -2 0 0 0 3 1 1 -0 -1 0 -1 -2 -1 -0 0 0 0
-3 -4 -6 -8 -8 -8 -6 -4 -2 -1 -2 -2 -1 -0 -0 0 1 -0 -1 -1 -0 -2 0 -1 -1 -1 -1 -1 -2 -1 -1 1 2 3 0 0 -0 -3 -3 -2 -2 -2 0 -2
-10 -3 -3 -5 -7 -8 -6 -5 -3 -0 -1 -2 -1 -2 -1 -1 -1 1 -1 -1 -1 0 -3 -1 -1 -0 -1 -1 -1 -1 -0 0 1 3 1 2 -4 -5 -3 -4 -4 -3 -4 -5
-13 -7 -3 -3 -5 -6 -7 -6 -4 -1 0 -3 -2 -2 -2 -2 -2 -1 -1 -1 -1 -2 -1 -1 -2 -0 -1 -1 -1 -1 -1 -0 1 2 1 -2 -6 -4 -4 -3 -5 -5 -5 -5
-6 -12 -4 -2 -3 -5 -5 -6 -5 -3 -1 -2 -4 -3 -2 -2 -4 -2 -2 -3 -3 -2 -1 -2 -2 -4 -5 -2 -1 -4 -2 -1 1 1 1 -1 -6 -7 -5 -5 -5 -7 -6 -5
-1 -10 -10 -3 -2 -4 -4 -3 -4 -3 1 -2 -5 -3 -2 -2 -2 -2 -3 -3 0 -2 -1 -1 -3 -2 -4 -3 -4 -0 1 1 2 2 2 0 -5 -6 -4 -6 -7 -7 -6 -6
0 -2 -11 -9 -2 -3 -4 -3 -3 -2 1 -1 -2 -4 -4 -3 -3 -3 -2 -1 -0 -0 -0 -3 -3 -2 -4 -4 -6 -3 -1 0 1 0 1 1 -5 -3 -5 -7 -6 -5 -5 -4
3 -0 -3 -12 -10 -2 -3 -3 -3 -3 -2 -3 -3 -4 -4 -3 -3 -2 -2 -1 -2 -2 -1 -2 -3 -2 -4 -5 -5 -7 -5 -7 -5 -3 -1 -6 -5 -7 -6 -7 -6 -5 -5 -6
4 3 -1 -4 -11 -12 -3 -2 -2 -2 -1 -1 -0 -2 -3 -4 -4 -4 -3 -1 -1 -1 -1 -0 -1 -0 -3 -2 -4 -6 -7 -8 -5 -6 -9 -10 -9 -8 -9 -5 -4 -6 -5 -5
4 4 3 -0 -4 -11 -12 -5 -2 -1 -1 1 -1 -2 -3 -4 -4 -4 -2 -2 -1 -0 -1 0 0 -0 -4 -3 -4 -5 -6 -6 -5 -5 -7 -8 -9 -9 -9 -8 -7 -6 -6 -7
3 3 4 3 -0 -6 -12 -7 -2 -0 -1 1 -0 -2 -2 -2 -3 -3 -2 -2 -1 -1 0 0 1 -1 -2 -2 -2 -2 -5 -6 -5 -7 -8 -8 -8 -8 -9 -8 -8 -8 -7 -7
4 4 4 4 2 -1 -9 -0 -2 -2 -1 -2 1 -1 -2 -3 -3 -3 -2 -2 -1 -0 0 0 -0 -0 -2 -0 -1 -4 -5 -6 -7 -7 -8 -8 -7 -7 -7 -8 -7 -6 -5 -5
3 3 4 4 3 2 -6 -2 -2 -4 -2 -2 -0 1 -1 -3 -2 -2 -1 -1 -0 -0 -0 -0 -0 -0 -1 0 -1 -5 -6 -6 -6 -6 -7 -5 -5 -6 -6 -6 -5 -5 -5 -5
3 3 3 3 3 2 0 -3 -6 -1 -0 -1 -0 0 -3 -3 -1 -1 -1 -1 -1 -1 -0 -0 -1 -1 -0 1 -1 -2 -3 -4 -5 -4 -4 -5 -5 -5 -5 -4 -5 -5 -6 -5
2 3 3 2 2 -1 -2 -2 -2 -2 -1 1 1 0 2 -3 -1 -1 -2 -1 -1 -1 -1 -1 -1 -1 1 -1 -1 -2 -2 -2 -3 -3 -4 -4 -4 -4 -4 -4 -4 -5 -7 -6
2 3 2 2 -3 -3 -2 -1 -1 -1 -1 -1 -1 -1 -0 -3 -2 -1 -1 -1 -1 -1 -1 -2 -1 -1 -2 -3 -3 -3 -3 -2 -2 -2 -2 -4 -4 -5 -5 -5 -5 -5 -8 -7
1 2 2 1 -1 -0 -1 -1 -1 -1 -0 -1 -1 -1 -1 -3 -1 -0 -2 -1 -1 0 -1 -1 -1 0 -2 -3 -4 -6 -6 -3 -3 -3 -3 -3 -3 -4 -4 -4 -6 -7 -5 -5
1 1 0 1 -0 -0 -1 -0 -1 -1 -1 -1 -1 -2 -2 -2 -3 -2 -1 -1 -2 -1 -2 -2 -1 -2 -4 -5 -7 -7 -8 -10 -10 -10 -6 -5 -4 -5 -6 -8 -9 -5 -4 -4
0 1 1 -0 -1 -0 0 -0 -1 -1 -2 -2 -3 -3 -3 -4 -4 -2 -2 -1 -1 -4 -4 -2 -2 -3 -5 -8 -7 -11 -12 -13 -13 -11 -8 -8 -8 -8 -7 -7 -7 -5 -6 -6
0 0 0 -1 -0 -1 -1 -2 -1 -1 -1 -2 -3 -2 -2 -3 -2 -2 -0 -2 -4 -3 -1 -2 -2 -3 -9 -9 -9 -9 -13 -12 -11 -9 -8 -8 -8 -7 -7 -6 -6 -6 -6 -6
-0 -1 -1 -1 -2 -1 -2 -1 -2 -4 -3 -3 -3 -3 -3 -2 -1 -2 -2 -2 -2 -3 -2 -2 -3 -9 -9 -12 -16 -16 -15 -14 -12 -12 -11 -10 -10 -10 -9 -9 -8 -9 -7 -8
-1 -1 -2 -1 -1 -1 -1 -3 -4 -4 -5 -4 -3 -3 -2 -2 -2 -1 -3 -2 -3 -3 -2 -7 -8 -7 -9 -11 -12 -16 -15 -14 -14 -13 -12 -11 -10 -9 -9 -9 -9 -9 -7 -6
-1 -2 -1 -1 -2 -2 -1 -2 -2 -3 -4 -3 -1 -1 -1 -2 -1 -2 -4 -3 -3 -4 -7 -9 -10 -8 -8 -8 -6 -8 -15 -15 -14 -13 -13 -12 -10 -10 -10 -10 -8 -5 -2 -2

GFSNW_850_dewp_111.txt.gz
Dewpoint
-7 -7 -7 -6 -5 -2 0 1 1 1 2 1 2 1 2 0 0 0 -0 1 1 1 0 1 2 3 2 2 2 3 1 3 4 3 2 1 2 2 2 3 5 4 3 3
-7 -8 -8 -7 -6 -6 -5 1 1 1 3 1 0 1 1 1 1 0 1 1 1 0 1 2 1 2 1 2 2 2 1 3 2 2 0 -0 1 1 2 0 1 2 3 3
-7 -8 -8 -7 -6 -5 -2 0 0 1 0 1 1 1 1 2 0 -0 -1 -0 -0 0 -0 -1 1 2 1 1 2 1 1 2 2 3 1 1 2 1 1 1 2 1 3 2
-7 -8 -8 -8 -7 -6 -2 -1 -0 1 0 -1 -0 -0 0 1 1 -0 -1 -1 -1 -0 -0 -1 0 1 1 1 2 1 1 3 1 1 1 1 1 0 0 2 1 2 -0 -0
-8 -8 -8 -9 -9 -7 -3 -1 0 -1 -1 -1 -1 -1 0 1 1 0 -0 -1 -1 -2 -1 -0 0 -1 -1 1 1 1 0 1 1 0 -0 0 1 0 -0 -1 1 0 -0 -0
-15 -8 -7 -8 -10 -10 -8 -4 -2 -1 -3 -2 -2 -1 -0 0 0 -0 -1 -1 -1 -1 -0 -1 -2 -1 -1 -1 -0 0 1 1 0 0 0 0 -3 -3 -2 -1 -2 -1 1 -1
-14 -12 -5 -6 -7 -8 -8 -6 -2 -0 -1 -2 -2 -2 -2 -2 -1 0 -1 -2 -1 -0 -2 -3 -1 -1 -1 -1 -1 -2 -0 -0 -0 1 0 -2 -9 -6 -5 -3 -3 -3 -3 -4
-7 -13 -8 -4 -5 -7 -6 -6 -2 -1 -0 -3 -2 -2 -2 -2 -2 -2 -1 -1 -1 -1 -3 -2 -3 -1 -1 -1 -1 -1 -1 -0 0 1 1 -2 -6 -4 -5 -4 -7 -5 -4 -4
-2 -9 -13 -8 -4 -5 -7 -6 -5 -2 -1 -4 -4 -3 -3 -2 -3 -2 -2 -2 -4 -3 -1 -2 -2 -4 -5 -2 -0 -4 -2 -1 1 1 1 -1 -10 -8 -6 -7 -9 -10 -5 -5
-1 -2 -9 -12 -5 -4 -5 -5 -6 -4 0 -1 -3 -5 -2 -2 -2 -3 -3 -2 -1 -2 -1 -1 -2 -3 -5 -6 -3 -0 1 1 2 2 2 1 -4 -7 -5 -12 -16 -8 -7 -7
3 -1 -3 -10 -12 -6 -4 -4 -4 -4 -3 -5 -2 -3 -4 -3 -2 -4 -3 -4 -1 -0 -1 -2 -3 -3 -4 -4 -5 -1 -0 0 1 1 2 1 -5 -4 -8 -11 -6 -8 -8 -8
4 3 -0 -2 -9 -12 -8 -4 -3 -3 -3 -5 -4 -2 -3 -4 -3 -2 -2 -3 -2 -2 -1 -3 -3 -3 -4 -5 -6 -8 -4 -3 -1 -1 -0 -5 -5 -7 -8 -8 -8 -8 -7 -7
3 4 4 1 -2 -7 -12 -8 -4 -3 -2 -2 -1 -1 -2 -2 -3 -3 -2 -3 -4 -1 -2 -1 -1 -0 -3 -2 -4 -6 -8 -8 -6 -7 -9 -8 -7 -7 -7 -7 -6 -6 -6 -6
3 3 3 3 2 -1 -6 -10 -7 -2 -1 0 -2 -1 -2 -3 -3 -3 -3 -3 -1 -0 -0 -1 -1 -1 -3 -3 -5 -5 -6 -7 -6 -6 -8 -8 -9 -9 -9 -9 -9 -9 -7 -5
2 3 2 3 3 2 -2 -4 -3 -2 -1 -1 -2 -2 -2 -2 -3 -3 -3 -2 -1 -1 -1 -1 -0 -1 -1 -2 -2 -2 -5 -6 -5 -5 -9 -9 -9 -8 -8 -9 -9 -8 -7 -7
2 2 2 3 3 3 2 -0 -3 -5 -4 -3 -1 -2 -1 -3 -3 -3 -2 -2 -1 -1 -0 -0 -0 -1 -1 -1 -1 -3 -6 -5 -6 -7 -8 -8 -8 -7 -7 -7 -7 -8 -7 -7
0 3 3 3 3 2 2 -2 -2 -3 -2 -1 -1 -2 -1 -3 -2 -2 -2 -1 -0 -0 -0 -0 -0 -0 -0 -1 -0 -5 -5 -5 -5 -5 -5 -5 -6 -6 -6 -6 -6 -6 -5 -5
-1 2 2 3 3 2 2 1 -0 -4 -3 -1 -2 -1 -2 -3 -1 -1 -1 -1 -1 -1 -1 -0 -1 -1 -1 0 -2 -2 -3 -3 -4 -5 -3 -4 -4 -4 -4 -4 -4 -4 -4 -5
-3 1 2 3 2 0 -1 -2 -2 -2 -2 0 -0 -1 -1 -3 -1 -1 -2 -1 -1 -2 -1 -1 -1 -2 0 -1 -2 -2 -2 -2 -2 -3 -3 -2 -3 -4 -4 -4 -4 -4 -5 -5
2 2 2 2 -1 -2 -1 -1 -1 -1 -0 -1 -2 -1 -1 -3 -2 -1 -1 -2 -2 0 -1 -2 -1 -1 -2 -4 -4 -4 -6 -5 -6 -3 -2 -2 -2 -3 -3 -4 -4 -5 -4 -6
1 -0 -0 0 0 0 -1 -1 -2 -1 -0 -1 -1 -1 -3 -3 -2 -2 -2 -3 -1 -1 -1 -1 -1 -1 -2 -4 -6 -7 -7 -6 -8 -5 -3 -3 -3 -3 -3 -3 -4 -4 -8 -5
1 0 1 -1 -0 -0 -1 -1 -1 -1 -1 -2 -1 -2 -2 -2 -3 -2 -2 -3 -2 -1 -3 -2 -1 -3 -6 -5 -9 -8 -10 -11 -12 -12 -12 -10 -7 -6 -6 -7 -7 -8 -6 -5
-0 -1 -0 0 -1 -1 -0 -1 -1 -2 -2 -2 -2 -4 -3 -3 -4 -2 -3 -1 -2 -4 -6 -3 -4 -6 -7 -10 -10 -13 -14 -14 -12 -11 -9 -9 -8 -8 -7 -7 -7 -6 -5 -6
-0 -1 -1 -1 -2 -1 -2 -4 -4 -2 -1 -2 -3 -3 -3 -3 -3 -3 -3 -3 -4 -5 -2 -3 -4 -7 -8 -8 -12 -15 -16 -15 -15 -14 -13 -11 -9 -7 -7 -7 -7 -7 -7 -7
-2 -1 -1 -2 -2 -2 -1 -2 -2 -4 -3 -3 -2 -3 -3 -4 -3 -2 -3 -3 -3 -4 -4 -3 -7 -8 -8 -8 -8 -8 -9 -13 -15 -14 -14 -13 -11 -10 -9 -8 -8 -8 -7 -7
-1 -1 -2 -2 -2 -2 -1 -2 -3 -3 -4 -4 -3 -3 -4 -3 -3 -1 -3 -5 -4 -5 -5 -7 -8 -8 -9 -8 -6 -6 -6 -7 -7 -13 -13 -13 -13 -11 -10 -9 -9 -9 -8 -7
-2 -2 -2 -2 -2 -3 -2 -2 -2 -3 -4 -5 -3 -1 -3 -3 -2 -2 -4 -5 -4 -6 -7 -7 -5 -5 -5 -6 -5 -6 -6 -6 -6 -7 -9 -11 -7 -6 -7 -9 -8 -10 -10 -7

GFSNW_850_dewp_114.txt.gz
Dewpoint
-7 -7 -6 -6 -6 -1 1 1 1 2 3 1 1 -0 1 0 0 0 0 1 1 1 1 2 3 3 2 1 1 3 1 2 4 4 1 1 2 3 2 2 3 3 2 3
-8 -8 -7 -6 -6 -6 -2 1 1 1 1 1 -0 1 1 0 1 -0 0 1 1 0 1 2 2 2 1 2 2 2 1 2 1 2 0 -0 2 2 1 0 0 2 3 2
-8 -9 -8 -7 -5 -4 -1 0 -0 0 -0 1 0 1 1 1 0 -0 -1 -1 -1 -0 -1 -0 2 2 1 1 2 1 0 2 1 1 0 1 2 2 2 1 1 2 2 1
-6 -9 -10 -9 -6 -3 -1 -3 -0 1 -1 -1 -1 -0 0 1 1 -0 -1 -1 -2 -1 -0 -1 0 1 1 1 2 1 1 2 1 1 1 1 1 1 1 2 2 1 -2 1
-11 -6 -10 -11 -10 -6 -2 -1 -2 -1 -2 -1 -2 -1 0 1 1 -0 -0 -1 -1 -2 -1 -1 -0 -1 0 1 2 1 0 0 0 0 -0 0 1 0 0 0 1 1 0 0
-14 -7 -6 -11 -12 -10 -7 -3 -2 -1 -2 -2 -2 -2 -1 -0 0 -0 -1 -1 -1 -1 -1 -1 -2 -1 -1 -1 0 1 1 1 -0 0 -1 -0 -3 -2 -1 -1 -1 -1 1 -1
-8 -12 -5 -6 -11 -12 -10 -6 -2 -0 -2 -2 -2 -2 -2 -1 -1 -0 -1 -1 -1 -1 -1 -2 -1 -1 -1 -1 -1 -2 -0 -1 -1 1 -1 -5 -11 -7 -5 -3 -3 -3 -3 -4
-2 -10 -11 -5 -6 -10 -10 -9 -6 -3 -2 -3 -3 -2 -2 -2 -2 -2 -3 -1 -1 -1 -3 -3 -4 -3 -2 -1 -1 -1 -1 -0 0 0 1 -2 -9 -5 -3 -4 -6 -5 -4 -5
-1 -3 -11 -10 -5 -6 -8 -9 -7 -5 -3 -7 -4 -3 -3 -3 -3 -3 -2 -2 -3 -3 -2 -2 -4 -6 -5 -2 0 -3 -1 -1 -0 1 2 -2 -12 -8 -6 -9 -12 -14 -6 -5
3 -1 -3 -11 -9 -5 -5 -6 -7 -6 -3 -3 -3 -5 -4 -2 -3 -4 -3 -2 -1 -2 -1 -1 -2 -3 -6 -4 -2 -0 1 0 2 1 2 1 -3 -6 -6 -10 -16 -9 -7 -7
3 3 0 -3 -9 -11 -6 -4 -4 -4 -6 -6 -2 -3 -3 -2 -2 -5 -4 -4 -2 -1 -1 -2 -3 -3 -5 -4 -5 -1 -0 0 1 0 2 1 -4 -5 -8 -10 -9 -8 -9 -9
2 3 3 1 -2 -6 -9 -8 -7 -5 -4 -4 -3 -2 -2 -3 -2 -2 -2 -5 -2 -3 -2 -2 -3 -3 -4 -4 -6 -5 -3 -4 -1 -1 -1 -5 -5 -7 -8 -7 -7 -7 -8 -9
1 2 2 3 3 0 -3 -6 -7 -6 -4 -3 -3 -1 -1 -2 -3 -3 -2 -2 -2 -1 -1 -2 -2 -1 -4 -3 -4 -6 -8 -7 -5 -6 -8 -6 -6 -7 -7 -8 -8 -8 -7 -7
0 1 1 2 3 3 1 -1 -3 -4 -3 -1 -3 -1 -1 -3 -3 -3 -3 -2 -2 -1 -0 -1 -2 -1 -4 -4 -5 -5 -7 -7 -7 -6 -8 -9 -9 -9 -9 -9 -9 -9 -9 -9
-3 -1 1 1 2 3 2 -1 -3 -3 -2 -3 -3 -3 -2 -2 -3 -3 -2 -3 -2 -1 -1 -1 -0 -1 -1 -2 -2 -2 -4 -5 -4 -5 -8 -9 -8 -8 -8 -8 -8 -8 -7 -7
-6 -2 1 2 3 3 2 -1 -3 -4 -3 -4 -2 -3 -2 -3 -3 -3 -2 -2 -1 -1 -1 -1 -1 -1 -1 -1 -1 -3 -4 -5 -5 -6 -6 -5 -5 -5 -5 -6 -7 -7 -6 -7
-8 -5 2 2 3 3 2 1 -0 -0 -2 -2 -2 -2 -1 -2 -3 -2 -2 -1 -1 -1 -1 -0 -0 -0 -0 -1 0 -3 -5 -4 -4 -4 -4 -4 -4 -3 -3 -5 -5 -5 -5 -5
-6 -4 1 2 2 2 2 1 1 0 -2 -2 -2 -1 -1 -3 -2 -2 -2 -1 -1 -1 -1 -1 -0 -1 -1 0 -1 -2 -3 -4 -5 -5 -4 -4 -4 -4 -3 -4 -4 -4 -4 -4
-6 -2 1 2 1 2 0 -1 -2 -2 -2 -0 -1 -0 -1 -3 -2 -2 -2 -2 -1 -2 -1 -1 -1 -2 0 -1 -2 -3 -4 -3 -4 -6 -7 -3 -2 -2 -2 -3 -3 -4 -4 -5
-1 1 1 1 -0 -0 -1 -1 -1 -1 -1 -1 -1 -1 -1 -3 -2 -2 -1 -2 -2 -1 -1 -2 -1 -1 -2 -4 -5 -4 -6 -7 -6 -6 -9 -11 -10 -6 -4 -3 -3 -3 -4 -4
0 -1 -0 1 0 -0 -1 -1 -2 -1 -1 -1 -1 -1 -3 -3 -3 -2 -2 -3 -2 -0 -2 -1 -1 -1 -3 -5 -5 -9 -8 -10 -10 -11 -11 -11 -9 -7 -6 -6 -5 -4 -5 -7
-1 -1 -0 -0 -1 -1 -1 -1 -1 -1 -1 -2 -1 -2 -2 -2 -3 -2 -2 -4 -2 -1 -3 -1 -2 -4 -8 -7 -11 -16 -16 -15 -14 -12 -11 -9 -9 -8 -8 -8 -8 -8 -7 -6
-2 -0 -1 -1 -1 -0 -0 -3 -2 -2 -3 -2 -2 -3 -3 -3 -3 -3 -3 -1 -2 -5 -6 -3 -4 -6 -8 -7 -8 -8 -8 -7 -8 -10 -13 -13 -10 -9 -9 -8 -8 -8 -8 -8
-1 -0 -1 -1 -2 -3 -3 -5 -6 -3 -1 -2 -2 -3 -3 -3 -3 -4 -2 -3 -4 -5 -2 -4 -5 -8 -7 -8 -7 -6 -6 -6 -6 -6 -6 -7 -12 -12 -10 -9 -8 -8 -7 -5
-1 -2 -2 -3 -3 -3 -1 -2 -2 -3 -2 -3 -2 -3 -3 -4 -3 -2 -3 -2 -2 -5 -4 -5 -7 -6 -7 -7 -6 -5 -6 -5 -5 -6 -6 -6 -7 -7 -12 -10 -9 -8 -8 -9
-1 -2 -2 -3 -2 -3 -2 -2 -2 -2 -4 -3 -3 -5 -6 -4 -4 -1 -1 -3 -3 -5 -6 -7 -7 -6 -6 -7 -6 -5 -5 -5 -5 -6 -7 -6 -6 -6 -7 -10 -10 -9 -9 -8
-3 -3 -3 -3 -2 -3 -2 -2 -2 -3 -4 -5 -3 -3 -4 -5 -2 -2 -5 -5 -6 -6 -7 -10 -10 -6 -7 -6 -5 -7 -7 -7 -8 -8 -7 -6 -6 -5 -6 -6 -6 -8 -8 -8

GFSNW_850_dewp_117.txt.gz
Dewpoint
-7 -8 -7 -6 -5 -1 0 1 1 2 1 0 0 -0 1 0 0 0 0 0 1 1 0 1 3 2 2 1 1 3 1 2 3 3 1 1 2 2 2 2 2 2 2 2
-7 -8 -8 -7 -5 -5 -4 1 1 1 0 1 -1 1 0 0 0 -0 0 1 0 -0 1 2 2 2 2 2 2 2 1 2 1 1 1 1 3 2 1 -0 0 2 3 -1
-7 -8 -8 -8 -6 -4 -1 1 -0 -0 -0 0 -0 1 1 1 -0 -1 -1 -1 -1 -1 -1 -0 2 2 1 2 2 1 -0 1 0 -1 -2 1 3 2 1 1 1 2 2 0
-10 -7 -8 -9 -7 -4 0 -3 -1 1 -1 -1 -1 -1 -0 1 0 -1 -2 -2 -2 -1 -1 -1 1 1 1 1 2 1 0 1 1 1 1 1 1 1 1 2 2 2 -1 -0
-13 -8 -7 -9 -9 -6 -2 -2 -2 -1 -2 -1 -2 -2 0 -0 0 -1 -1 -2 -1 -2 -1 -2 -1 -0 0 0 2 1 0 -0 0 -0 -1 0 2 1 1 1 2 2 2 2
-10 -12 -7 -9 -10 -7 -6 -4 -2 -2 -2 -2 -2 -2 -1 -1 -0 -1 -1 -1 -1 -1 -2 -2 -2 -1 -1 -1 1 1 1 0 -1 0 -3 -1 -3 -2 -2 -1 -1 -0 2 -1
-3 -10 -12 -7 -10 -9 -7 -6 -2 -2 -4 -2 -3 -2 -2 -1 -1 -0 -1 -1 -2 -2 -1 -2 -2 -1 -1 -1 -1 -1 -0 -1 -1 0 -2 -8 -12 -7 -5 -2 -3 -3 -3 -4
-1 -4 -9 -11 -8 -10 -9 -6 -5 -4 -3 -3 -3 -2 -3 -2 -2 -2 -3 -2 -1 -1 -3 -4 -5 -4 -2 -1 -1 -1 -2 -1 -0 -0 0 -4 -11 -5 -4 -4 -9 -6 -4 -5
2 -1 -4 -9 -10 -9 -8 -8 -6 -4 -6 -8 -4 -3 -3 -4 -3 -4 -2 -2 -2 -3 -3 -3 -5 -8 -6 -1 -0 -2 -1 -2 -1 0 1 -6 -14 -9 -6 -8 -12 -16 -7 -6
3 2 -0 -2 -7 -10 -9 -6 -6 -6 -4 -4 -4 -5 -4 -3 -3 -4 -4 -2 -1 -2 -2 -3 -3 -4 -6 -4 -2 0 1 0 1 1 2 0 -4 -7 -6 -10 -16 -11 -8 -8
2 3 3 1 -1 -3 -6 -7 -7 -5 -5 -6 -2 -3 -2 -1 -2 -6 -5 -4 -3 -2 -2 -2 -3 -4 -5 -4 -6 -2 -0 0 1 1 2 -0 -4 -5 -8 -11 -11 -8 -8 -8
1 2 3 3 2 1 -1 -3 -4 -6 -5 -5 -4 -3 -2 -3 -3 -3 -4 -6 -3 -3 -3 -3 -4 -3 -4 -5 -7 -5 -4 -4 -2 -1 -1 -6 -5 -6 -8 -7 -6 -7 -8 -9
-1 1 2 1 2 2 1 1 -0 -3 -4 -4 -4 -2 -3 -3 -2 -2 -3 -2 -2 -2 -2 -3 -3 -3 -4 -3 -4 -7 -7 -6 -4 -6 -9 -5 -8 -9 -8 -9 -9 -9 -9 -8
-3 -3 0 1 2 2 2 1 -2 -4 -3 -1 -3 -2 -1 -2 -3 -3 -2 -2 -1 -1 -1 -2 -2 -2 -4 -4 -5 -6 -7 -7 -7 -6 -8 -9 -10 -9 -7 -6 -6 -7 -6 -7
-2 -4 -4 1 2 2 2 1 -3 -3 -2 -2 -2 -2 -2 -2 -3 -3 -2 -2 -2 -2 -1 -1 -1 -2 -1 -2 -3 -2 -5 -6 -6 -5 -7 -6 -5 -5 -5 -4 -4 -4 -5 -7
-3 -5 -6 -2 3 2 2 -1 -3 -3 1 -1 -2 -3 -2 -3 -3 -3 -3 -2 -1 -1 -1 -2 -2 -1 -1 -1 -1 -3 -4 -4 -4 -4 -3 -4 -6 -6 -4 -3 -3 -4 -5 -6
-6 -8 -6 -2 2 1 2 1 1 1 1 -2 -2 -2 -1 -2 -3 -2 -2 -1 -1 -1 -1 -0 -1 -1 -0 -1 0 -3 -4 -3 -3 -4 -4 -5 -7 -5 -3 -3 -4 -3 -4 -4
-8 -9 -5 2 1 1 1 1 1 1 -0 -2 -3 -1 -1 -2 -2 -2 -2 -1 -1 -1 -1 -1 -1 -1 -1 0 -1 -2 -3 -4 -7 -6 -6 -5 -7 -10 -7 -3 -3 -3 -3 -3
-8 -8 -3 0 1 1 1 -0 -1 -1 -2 -1 -1 -1 -3 -3 -2 -2 -2 -2 -2 -2 -1 -2 -1 -2 0 -1 -2 -3 -4 -4 -6 -10 -11 -10 -10 -10 -9 -7 -5 -4 -4 -4
-5 -4 -3 1 0 0 -1 -1 -2 -1 -1 -1 -1 -1 -2 -3 -2 -2 -2 -2 -2 -2 -2 -2 -1 -1 -3 -4 -5 -4 -9 -10 -10 -11 -12 -12 -11 -8 -8 -7 -7 -6 -5 -4
-2 -1 -1 0 0 -0 -1 -1 -1 -2 -2 -1 -2 -1 -3 -2 -3 -3 -2 -4 -2 -1 -2 -1 -1 -1 -3 -5 -8 -13 -13 -10 -10 -9 -9 -10 -11 -11 -10 -9 -8 -8 -8 -7
-2 -2 -0 -1 -1 -1 -1 -3 -1 -1 -1 -2 -2 -2 -2 -2 -3 -2 -2 -4 -3 -2 -3 -1 -1 -3 -6 -7 -7 -7 -6 -6 -6 -6 -6 -6 -6 -7 -9 -11 -10 -8 -8 -8
-2 -2 -2 -2 -2 -1 -1 -2 -1 -1 -3 -2 -2 -3 -3 -2 -3 -3 -4 -2 -2 -5 -3 -2 -4 -6 -7 -7 -7 -8 -7 -6 -6 -6 -6 -6 -7 -8 -6 -6 -9 -10 -8 -8
-1 -1 -2 -3 -3 -2 -4 -4 -5 -3 -3 -2 -2 -3 -3 -3 -4 -4 -2 -3 -4 -2 -2 -3 -5 -7 -6 -6 -7 -7 -8 -9 -10 -9 -8 -7 -6 -8 -8 -7 -6 -7 -10 -10
-2 -2 -3 -4 -4 -4 -3 -2 -2 -2 -2 -3 -3 -3 -3 -5 -4 -3 -3 -1 -1 -3 -3 -4 -7 -7 -8 -7 -7 -8 -10 -9 -10 -10 -7 -9 -11 -9 -9 -8 -8 -8 -6 -7
-2 -2 -2 -4 -3 -3 -3 -2 -2 -2 -3 -3 -3 -5 -6 -5 -4 -2 -1 -1 -2 -4 -6 -6 -6 -6 -6 -6 -5 -6 -7 -9 -9 -7 -7 -7 -8 -10 -10 -9 -9 -9 -7 -7
-3 -4 -3 -3 -3 -3 -3 -2 -2 -2 -3 -4 -3 -3 -3 -5 -3 -3 -4 -4 -5 -6 -6 -7 -8 -8 -8 -7 -5 -5 -8 -8 -7 -7 -6 -7 -8 -9 -10 -9 -10 -5 -5 -4

GFSNW_850_dewp_120.txt.gz
Dewpoint
-8 -8 -8 -6 -5 -5 -2 1 0 1 0 -0 -0 -0 1 0 0 0 0 0 0 1 0 1 2 1 1 1 1 2 1 1 3 3 1 1 1 2 1 2 1 2 2 2
-7 -8 -9 -8 -5 -5 -5 1 1 0 -0 0 -1 0 0 0 -0 -0 0 1 0 -0 1 2 2 2 2 2 1 1 0 1 1 1 1 1 3 2 1 -1 0 2 2 -3
-9 -7 -9 -10 -6 -3 -2 -1 -1 -1 -1 0 -0 0 1 0 -0 -1 -1 -1 -1 -1 -0 -0 2 2 1 2 2 1 -1 1 -0 -2 -3 1 4 2 1 1 1 1 2 0
-12 -7 -8 -11 -8 -2 -0 -3 -1 -0 -1 -1 -1 -1 -0 1 0 -1 -2 -2 -2 -1 -0 -1 2 1 2 1 2 1 -1 -1 0 0 -0 0 1 1 2 2 1 2 -1 -0
-10 -11 -7 -9 -10 -5 -1 -2 -2 -2 -2 -1 -2 -2 0 -0 -0 -1 -2 -3 -2 -2 -1 -2 -1 0 -0 -0 2 1 -0 -1 -0 -1 -1 -0 1 0 1 1 2 2 2 2
-4 -10 -11 -7 -10 -8 -7 -4 -2 -4 -2 -2 -3 -3 -1 -1 -0 -1 -1 -2 -2 -2 -2 -2 -2 -2 -2 -1 1 0 0 0 -1 -1 -3 -1 -3 -2 -0 -0 -0 0 2 -1
-1 -4 -10 -9 -8 -10 -8 -6 -2 -2 -5 -3 -3 -3 -2 -1 -1 -1 -1 -2 -2 -2 -1 -2 -2 -1 -1 -1 -1 -1 -0 -1 -1 -0 -3 -10 -13 -8 -5 -2 -3 -2 -2 -4
2 -1 -5 -9 -9 -9 -9 -8 -7 -5 -6 -3 -3 -2 -3 -2 -2 -2 -3 -2 -2 -1 -3 -4 -6 -4 -1 -0 -2 -1 -2 -1 -1 -1 -1 -6 -11 -5 -4 -4 -10 -5 -3 -4
2 2 -0 -4 -8 -9 -7 -8 -9 -8 -7 -10 -4 -3 -3 -4 -4 -4 -2 -1 -1 -3 -4 -4 -7 -9 -6 -1 -0 -2 -2 -2 -1 -0 0 -9 -17 -10 -6 -7 -14 -16 -7 -7
1 2 2 0 -1 -4 -7 -7 -7 -7 -7 -6 -4 -5 -4 -3 -4 -5 -4 -2 -1 -3 -3 -4 -4 -5 -7 -4 -1 1 1 -0 1 1 1 -1 -5 -7 -6 -11 -14 -11 -8 -8
1 1 2 2 1 0 -1 -3 -5 -6 -7 -6 -3 -3 -2 -2 -3 -6 -5 -4 -4 -2 -3 -3 -4 -4 -5 -5 -7 -1 0 0 1 1 2 -2 -5 -5 -7 -12 -8 -7 -8 -8
-1 1 1 1 2 2 1 0 -1 -1 -3 -4 -4 -3 -2 -3 -4 -4 -4 -6 -4 -3 -4 -3 -4 -3 -4 -5 -8 -5 -4 -3 -2 -1 -2 -6 -5 -6 -7 -6 -6 -7 -6 -6
-2 -3 -1 -0 -0 1 1 1 -1 -3 -4 -3 -3 -3 -3 -2 -2 -2 -3 -2 -3 -2 -2 -4 -3 -3 -5 -4 -5 -7 -7 -6 -4 -6 -9 -6 -9 -9 -8 -6 -6 -5 -5 -5
-2 -2 -4 -5 -2 -0 0 0 -1 -3 -2 -2 -3 -2 -1 -2 -2 -3 -2 -2 -2 -1 -1 -2 -3 -3 -5 -4 -6 -6 -8 -7 -7 -6 -8 -7 -9 -5 -4 -6 -5 -4 -3 -4
-2 -2 -3 -4 -5 -0 1 1 -2 -1 -1 -1 -2 -2 -2 -2 -2 -2 -2 -2 -1 -1 -2 -1 -1 -2 -2 -2 -3 -2 -5 -6 -5 -5 -7 -4 -3 -4 -6 -7 -4 -2 -3 -4
-1 -2 -4 -5 -4 -0 1 -0 -3 -4 0 -0 -2 -3 -2 -3 -3 -3 -2 -2 -2 -2 -2 -2 -2 -2 -2 -1 -1 -3 -4 -4 -4 -4 -4 -6 -6 -7 -8 -10 -9 -4 -3 -3
-1 -4 -6 -7 -4 0 -1 1 1 1 1 -0 -2 -2 -2 -2 -3 -2 -2 -1 -1 -1 -1 -1 -1 -1 0 -1 0 -3 -4 -2 -3 -5 -7 -10 -8 -8 -10 -8 -8 -7 -5 -3
-4 -6 -7 -6 0 -3 -2 -0 1 1 -0 -1 -5 -4 -2 -3 -2 -2 -2 -1 -1 -1 -1 -1 -1 -1 -1 0 -1 -2 -3 -6 -8 -9 -10 -10 -11 -11 -10 -9 -8 -8 -8 -7
-5 -6 -4 -0 -1 -0 0 -1 -1 -1 -1 -2 -2 -2 -4 -2 -2 -2 -2 -2 -3 -2 -2 -2 -2 -2 -0 -2 -2 -3 -4 -7 -10 -8 -8 -8 -7 -7 -8 -10 -10 -8 -8 -9
-5 -4 -2 -1 0 0 0 -1 -1 -1 -1 -1 -1 -1 -2 -3 -2 -2 -2 -2 -3 -5 -2 -2 -2 -1 -3 -3 -4 -7 -12 -9 -8 -7 -6 -6 -6 -7 -7 -7 -7 -10 -9 -8
-1 -3 -1 0 0 -0 -1 -1 -2 -2 -2 -2 -2 -2 -3 -2 -3 -3 -2 -4 -2 -1 -4 -1 -2 -1 -3 -5 -11 -9 -7 -6 -6 -6 -6 -6 -6 -6 -6 -8 -8 -7 -7 -9
-4 -1 0 -0 -1 -1 -2 -3 -2 -1 -2 -2 -2 -2 -2 -2 -3 -2 -2 -3 -3 -1 -4 -2 -1 -4 -5 -7 -7 -7 -7 -8 -9 -10 -10 -8 -7 -7 -7 -9 -11 -10 -8 -8
-1 -1 -1 -2 -2 -2 -2 -4 -2 -1 -3 -2 -2 -3 -2 -2 -3 -3 -4 -2 -2 -5 -3 -2 -4 -5 -7 -6 -6 -7 -9 -10 -10 -10 -12 -12 -9 -8 -9 -11 -12 -12 -11 -11
-2 -2 -2 -4 -3 -5 -5 -5 -5 -4 -3 -2 -2 -3 -3 -3 -4 -4 -2 -3 -4 -2 -1 -3 -6 -6 -6 -6 -6 -8 -6 -6 -6 -7 -8 -8 -10 -9 -9 -9 -10 -12 -13 -12
-3 -2 -3 -5 -4 -4 -3 -2 -2 -2 -2 -2 -3 -4 -3 -4 -4 -3 -3 -2 -1 -2 -3 -5 -6 -7 -7 -7 -7 -5 -5 -6 -8 -9 -10 -11 -10 -9 -9 -9 -10 -12 -13 -11
-3 -3 -4 -4 -4 -4 -4 -4 -3 -2 -3 -3 -3 -5 -7 -4 -3 -2 -2 -2 -3 -4 -5 -6 -6 -6 -7 -8 -10 -10 -10 -10 -9 -9 -10 -9 -9 -9 -9 -10 -10 -12 -9 -5
-3 -4 -4 -3 -3 -3 -3 -3 -2 -1 -2 -3 -4 -5 -4 -5 -3 -3 -5 -4 -5 -6 -6 -7 -7 -8 -10 -13 -15 -15 -15 -11 -10 -8 -7 -8 -10 -10 -9 -9 -12 -11 -4 -4